<?xml version="1.0" encoding="UTF-8" standalone="no" ?>
<gpx xmlns="http://www.topografix.com/GPX/1/1" xmlns:xsi="http://www.w3.org/2001/XMLSchema-instance" xsi:schemaLocation="http://www.topografix.com/GPX/1/1 http://www.topografix.com/GPX/1/1/gpx.xsd" version="1.1" creator="VisuGPX - https://www.visugpx.com">
  <metadata>
    <name>Aspre </name>
    <desc><![CDATA[description à venir
[url][/url]
[img][/img]]]></desc>
  </metadata>
  <trk>
    <name><![CDATA[19-SEP-15 17:30:55]]></name>
    <trkseg>
      <trkpt lat="42.70767" lon="1.49461">
        <ele>1263</ele>
        <time>2015-09-19T07:46:35Z</time>
      </trkpt>
      <trkpt lat="42.7077" lon="1.49464">
        <ele>1263</ele>
        <time>2015-09-19T07:46:47Z</time>
      </trkpt>
      <trkpt lat="42.70773" lon="1.49467">
        <ele>1264</ele>
        <time>2015-09-19T07:47:00Z</time>
      </trkpt>
      <trkpt lat="42.7077" lon="1.49471">
        <ele>1266</ele>
        <time>2015-09-19T07:47:14Z</time>
      </trkpt>
      <trkpt lat="42.70758" lon="1.49472">
        <ele>1270</ele>
        <time>2015-09-19T07:47:26Z</time>
      </trkpt>
      <trkpt lat="42.70758" lon="1.49484">
        <ele>1271</ele>
        <time>2015-09-19T07:47:32Z</time>
      </trkpt>
      <trkpt lat="42.70755" lon="1.49493">
        <ele>1274</ele>
        <time>2015-09-19T07:47:43Z</time>
      </trkpt>
      <trkpt lat="42.70743" lon="1.49498">
        <ele>1278</ele>
        <time>2015-09-19T07:47:58Z</time>
      </trkpt>
      <trkpt lat="42.70732" lon="1.49502">
        <ele>1281</ele>
        <time>2015-09-19T07:48:11Z</time>
      </trkpt>
      <trkpt lat="42.70723" lon="1.49514">
        <ele>1283</ele>
        <time>2015-09-19T07:48:26Z</time>
      </trkpt>
      <trkpt lat="42.70708" lon="1.49522">
        <ele>1285</ele>
        <time>2015-09-19T07:48:43Z</time>
      </trkpt>
      <trkpt lat="42.70698" lon="1.49523">
        <ele>1287</ele>
        <time>2015-09-19T07:49:09Z</time>
      </trkpt>
      <trkpt lat="42.7069" lon="1.49531">
        <ele>1290</ele>
        <time>2015-09-19T07:49:21Z</time>
      </trkpt>
      <trkpt lat="42.70685" lon="1.49537">
        <ele>1293</ele>
        <time>2015-09-19T07:49:32Z</time>
      </trkpt>
      <trkpt lat="42.70679" lon="1.49546">
        <ele>1296</ele>
        <time>2015-09-19T07:49:43Z</time>
      </trkpt>
      <trkpt lat="42.70673" lon="1.49556">
        <ele>1300</ele>
        <time>2015-09-19T07:49:55Z</time>
      </trkpt>
      <trkpt lat="42.70665" lon="1.49562">
        <ele>1303</ele>
        <time>2015-09-19T07:50:13Z</time>
      </trkpt>
      <trkpt lat="42.70665" lon="1.49564">
        <ele>1304</ele>
        <time>2015-09-19T07:50:15Z</time>
      </trkpt>
      <trkpt lat="42.70659" lon="1.49574">
        <ele>1307</ele>
        <time>2015-09-19T07:50:30Z</time>
      </trkpt>
      <trkpt lat="42.70654" lon="1.49583">
        <ele>1311</ele>
        <time>2015-09-19T07:50:47Z</time>
      </trkpt>
      <trkpt lat="42.70646" lon="1.49584">
        <ele>1313</ele>
        <time>2015-09-19T07:51:03Z</time>
      </trkpt>
      <trkpt lat="42.70644" lon="1.49584">
        <ele>1315</ele>
        <time>2015-09-19T07:51:10Z</time>
      </trkpt>
      <trkpt lat="42.70633" lon="1.49591">
        <ele>1318</ele>
        <time>2015-09-19T07:51:26Z</time>
      </trkpt>
      <trkpt lat="42.7063" lon="1.49598">
        <ele>1321</ele>
        <time>2015-09-19T07:51:34Z</time>
      </trkpt>
      <trkpt lat="42.70629" lon="1.49601">
        <ele>1320</ele>
        <time>2015-09-19T07:51:37Z</time>
      </trkpt>
      <trkpt lat="42.70623" lon="1.49604">
        <ele>1324</ele>
        <time>2015-09-19T07:51:46Z</time>
      </trkpt>
      <trkpt lat="42.70614" lon="1.49604">
        <ele>1324</ele>
        <time>2015-09-19T07:52:01Z</time>
      </trkpt>
      <trkpt lat="42.70611" lon="1.49603">
        <ele>1418</ele>
        <time>2015-09-19T07:52:14Z</time>
      </trkpt>
      <trkpt lat="42.7061" lon="1.49603">
        <ele>1418</ele>
        <time>2015-09-19T07:52:15Z</time>
      </trkpt>
      <trkpt lat="42.70609" lon="1.49604">
        <ele>1402</ele>
        <time>2015-09-19T07:52:18Z</time>
      </trkpt>
      <trkpt lat="42.70608" lon="1.49604">
        <ele>1404</ele>
        <time>2015-09-19T07:52:19Z</time>
      </trkpt>
      <trkpt lat="42.70607" lon="1.49598">
        <ele>1405</ele>
        <time>2015-09-19T07:52:29Z</time>
      </trkpt>
      <trkpt lat="42.706" lon="1.49603">
        <ele>1407</ele>
        <time>2015-09-19T07:52:42Z</time>
      </trkpt>
      <trkpt lat="42.70592" lon="1.4961">
        <ele>1409</ele>
        <time>2015-09-19T07:52:55Z</time>
      </trkpt>
      <trkpt lat="42.70579" lon="1.49617">
        <ele>1411</ele>
        <time>2015-09-19T07:53:09Z</time>
      </trkpt>
      <trkpt lat="42.70569" lon="1.49619">
        <ele>1414</ele>
        <time>2015-09-19T07:53:24Z</time>
      </trkpt>
      <trkpt lat="42.70565" lon="1.49624">
        <ele>1415</ele>
        <time>2015-09-19T07:53:36Z</time>
      </trkpt>
      <trkpt lat="42.7055" lon="1.49628">
        <ele>1417</ele>
        <time>2015-09-19T07:53:55Z</time>
      </trkpt>
      <trkpt lat="42.70541" lon="1.49628">
        <ele>1418</ele>
        <time>2015-09-19T07:54:08Z</time>
      </trkpt>
      <trkpt lat="42.70535" lon="1.49631">
        <ele>1420</ele>
        <time>2015-09-19T07:54:22Z</time>
      </trkpt>
      <trkpt lat="42.70531" lon="1.49636">
        <ele>1422</ele>
        <time>2015-09-19T07:54:36Z</time>
      </trkpt>
      <trkpt lat="42.70525" lon="1.49644">
        <ele>1424</ele>
        <time>2015-09-19T07:54:52Z</time>
      </trkpt>
      <trkpt lat="42.70513" lon="1.49648">
        <ele>1426</ele>
        <time>2015-09-19T07:55:07Z</time>
      </trkpt>
      <trkpt lat="42.70504" lon="1.49653">
        <ele>1428</ele>
        <time>2015-09-19T07:55:24Z</time>
      </trkpt>
      <trkpt lat="42.70496" lon="1.49657">
        <ele>1430</ele>
        <time>2015-09-19T07:55:41Z</time>
      </trkpt>
      <trkpt lat="42.70489" lon="1.49664">
        <ele>1432</ele>
        <time>2015-09-19T07:55:56Z</time>
      </trkpt>
      <trkpt lat="42.70482" lon="1.49669">
        <ele>1434</ele>
        <time>2015-09-19T07:56:10Z</time>
      </trkpt>
      <trkpt lat="42.70476" lon="1.49675">
        <ele>1436</ele>
        <time>2015-09-19T07:56:27Z</time>
      </trkpt>
      <trkpt lat="42.70469" lon="1.49683">
        <ele>1439</ele>
        <time>2015-09-19T07:56:45Z</time>
      </trkpt>
      <trkpt lat="42.70462" lon="1.49689">
        <ele>1442</ele>
        <time>2015-09-19T07:57:00Z</time>
      </trkpt>
      <trkpt lat="42.70456" lon="1.49692">
        <ele>1444</ele>
        <time>2015-09-19T07:57:18Z</time>
      </trkpt>
      <trkpt lat="42.70449" lon="1.49696">
        <ele>1446</ele>
        <time>2015-09-19T07:57:32Z</time>
      </trkpt>
      <trkpt lat="42.70444" lon="1.49696">
        <ele>1449</ele>
        <time>2015-09-19T07:57:46Z</time>
      </trkpt>
      <trkpt lat="42.70437" lon="1.49699">
        <ele>1452</ele>
        <time>2015-09-19T07:58:01Z</time>
      </trkpt>
      <trkpt lat="42.70431" lon="1.497">
        <ele>1454</ele>
        <time>2015-09-19T07:58:13Z</time>
      </trkpt>
      <trkpt lat="42.70423" lon="1.49703">
        <ele>1457</ele>
        <time>2015-09-19T07:58:29Z</time>
      </trkpt>
      <trkpt lat="42.70417" lon="1.49706">
        <ele>1459</ele>
        <time>2015-09-19T07:58:45Z</time>
      </trkpt>
      <trkpt lat="42.70412" lon="1.49709">
        <ele>1461</ele>
        <time>2015-09-19T07:58:58Z</time>
      </trkpt>
      <trkpt lat="42.70403" lon="1.4971">
        <ele>1464</ele>
        <time>2015-09-19T07:59:15Z</time>
      </trkpt>
      <trkpt lat="42.70397" lon="1.49711">
        <ele>1466</ele>
        <time>2015-09-19T07:59:28Z</time>
      </trkpt>
      <trkpt lat="42.70389" lon="1.49716">
        <ele>1467</ele>
        <time>2015-09-19T07:59:41Z</time>
      </trkpt>
      <trkpt lat="42.70386" lon="1.49727">
        <ele>1470</ele>
        <time>2015-09-19T07:59:56Z</time>
      </trkpt>
      <trkpt lat="42.7038" lon="1.49733">
        <ele>1471</ele>
        <time>2015-09-19T08:00:08Z</time>
      </trkpt>
      <trkpt lat="42.70372" lon="1.49741">
        <ele>1473</ele>
        <time>2015-09-19T08:00:23Z</time>
      </trkpt>
      <trkpt lat="42.70366" lon="1.49747">
        <ele>1475</ele>
        <time>2015-09-19T08:00:39Z</time>
      </trkpt>
      <trkpt lat="42.70359" lon="1.49751">
        <ele>1478</ele>
        <time>2015-09-19T08:00:53Z</time>
      </trkpt>
      <trkpt lat="42.70354" lon="1.49751">
        <ele>1481</ele>
        <time>2015-09-19T08:01:06Z</time>
      </trkpt>
      <trkpt lat="42.7035" lon="1.49753">
        <ele>1483</ele>
        <time>2015-09-19T08:01:14Z</time>
      </trkpt>
      <trkpt lat="42.70341" lon="1.49758">
        <ele>1485</ele>
        <time>2015-09-19T08:01:28Z</time>
      </trkpt>
      <trkpt lat="42.70335" lon="1.49762">
        <ele>1486</ele>
        <time>2015-09-19T08:01:40Z</time>
      </trkpt>
      <trkpt lat="42.70328" lon="1.49761">
        <ele>1488</ele>
        <time>2015-09-19T08:01:56Z</time>
      </trkpt>
      <trkpt lat="42.70323" lon="1.49756">
        <ele>1490</ele>
        <time>2015-09-19T08:02:09Z</time>
      </trkpt>
      <trkpt lat="42.7032" lon="1.49761">
        <ele>1492</ele>
        <time>2015-09-19T08:02:21Z</time>
      </trkpt>
      <trkpt lat="42.70315" lon="1.49765">
        <ele>1492</ele>
        <time>2015-09-19T08:02:39Z</time>
      </trkpt>
      <trkpt lat="42.70309" lon="1.49757">
        <ele>1493</ele>
        <time>2015-09-19T08:02:51Z</time>
      </trkpt>
      <trkpt lat="42.70302" lon="1.49753">
        <ele>1494</ele>
        <time>2015-09-19T08:03:06Z</time>
      </trkpt>
      <trkpt lat="42.70298" lon="1.49743">
        <ele>1495</ele>
        <time>2015-09-19T08:03:20Z</time>
      </trkpt>
      <trkpt lat="42.70295" lon="1.49751">
        <ele>1495</ele>
        <time>2015-09-19T08:03:34Z</time>
      </trkpt>
      <trkpt lat="42.70296" lon="1.49754">
        <ele>1496</ele>
        <time>2015-09-19T08:03:49Z</time>
      </trkpt>
      <trkpt lat="42.70288" lon="1.49756">
        <ele>1496</ele>
        <time>2015-09-19T08:04:11Z</time>
      </trkpt>
      <trkpt lat="42.70281" lon="1.49758">
        <ele>1498</ele>
        <time>2015-09-19T08:04:25Z</time>
      </trkpt>
      <trkpt lat="42.70279" lon="1.49758">
        <ele>1500</ele>
        <time>2015-09-19T08:04:29Z</time>
      </trkpt>
      <trkpt lat="42.70276" lon="1.49751">
        <ele>1501</ele>
        <time>2015-09-19T08:04:42Z</time>
      </trkpt>
      <trkpt lat="42.70276" lon="1.49746">
        <ele>1504</ele>
        <time>2015-09-19T08:04:55Z</time>
      </trkpt>
      <trkpt lat="42.70273" lon="1.49752">
        <ele>1506</ele>
        <time>2015-09-19T08:05:05Z</time>
      </trkpt>
      <trkpt lat="42.70267" lon="1.49749">
        <ele>1507</ele>
        <time>2015-09-19T08:05:17Z</time>
      </trkpt>
      <trkpt lat="42.70266" lon="1.49755">
        <ele>1509</ele>
        <time>2015-09-19T08:05:33Z</time>
      </trkpt>
      <trkpt lat="42.7026" lon="1.49754">
        <ele>1510</ele>
        <time>2015-09-19T08:05:44Z</time>
      </trkpt>
      <trkpt lat="42.70254" lon="1.49753">
        <ele>1514</ele>
        <time>2015-09-19T08:05:59Z</time>
      </trkpt>
      <trkpt lat="42.70252" lon="1.49758">
        <ele>1516</ele>
        <time>2015-09-19T08:06:13Z</time>
      </trkpt>
      <trkpt lat="42.70246" lon="1.49757">
        <ele>1518</ele>
        <time>2015-09-19T08:06:27Z</time>
      </trkpt>
      <trkpt lat="42.70244" lon="1.4976">
        <ele>1520</ele>
        <time>2015-09-19T08:06:42Z</time>
      </trkpt>
      <trkpt lat="42.70235" lon="1.49759">
        <ele>1522</ele>
        <time>2015-09-19T08:07:00Z</time>
      </trkpt>
      <trkpt lat="42.70229" lon="1.49756">
        <ele>1524</ele>
        <time>2015-09-19T08:07:13Z</time>
      </trkpt>
      <trkpt lat="42.70225" lon="1.49756">
        <ele>1526</ele>
        <time>2015-09-19T08:07:24Z</time>
      </trkpt>
      <trkpt lat="42.70215" lon="1.49751">
        <ele>1527</ele>
        <time>2015-09-19T08:07:38Z</time>
      </trkpt>
      <trkpt lat="42.70211" lon="1.49745">
        <ele>1530</ele>
        <time>2015-09-19T08:07:53Z</time>
      </trkpt>
      <trkpt lat="42.70205" lon="1.49749">
        <ele>1531</ele>
        <time>2015-09-19T08:08:08Z</time>
      </trkpt>
      <trkpt lat="42.70199" lon="1.49749">
        <ele>1533</ele>
        <time>2015-09-19T08:08:20Z</time>
      </trkpt>
      <trkpt lat="42.70195" lon="1.4975">
        <ele>1535</ele>
        <time>2015-09-19T08:08:34Z</time>
      </trkpt>
      <trkpt lat="42.70186" lon="1.49745">
        <ele>1536</ele>
        <time>2015-09-19T08:08:47Z</time>
      </trkpt>
      <trkpt lat="42.70177" lon="1.4974">
        <ele>1538</ele>
        <time>2015-09-19T08:09:03Z</time>
      </trkpt>
      <trkpt lat="42.70166" lon="1.49735">
        <ele>1539</ele>
        <time>2015-09-19T08:09:19Z</time>
      </trkpt>
      <trkpt lat="42.70156" lon="1.4973">
        <ele>1541</ele>
        <time>2015-09-19T08:09:34Z</time>
      </trkpt>
      <trkpt lat="42.7015" lon="1.49726">
        <ele>1541</ele>
        <time>2015-09-19T08:09:48Z</time>
      </trkpt>
      <trkpt lat="42.7014" lon="1.49719">
        <ele>1543</ele>
        <time>2015-09-19T08:10:02Z</time>
      </trkpt>
      <trkpt lat="42.70131" lon="1.49717">
        <ele>1544</ele>
        <time>2015-09-19T08:10:15Z</time>
      </trkpt>
      <trkpt lat="42.70122" lon="1.49714">
        <ele>1545</ele>
        <time>2015-09-19T08:10:29Z</time>
      </trkpt>
      <trkpt lat="42.70111" lon="1.4971">
        <ele>1546</ele>
        <time>2015-09-19T08:10:47Z</time>
      </trkpt>
      <trkpt lat="42.70101" lon="1.4971">
        <ele>1547</ele>
        <time>2015-09-19T08:11:03Z</time>
      </trkpt>
      <trkpt lat="42.70092" lon="1.49713">
        <ele>1549</ele>
        <time>2015-09-19T08:11:17Z</time>
      </trkpt>
      <trkpt lat="42.70082" lon="1.49712">
        <ele>1550</ele>
        <time>2015-09-19T08:11:33Z</time>
      </trkpt>
      <trkpt lat="42.70073" lon="1.49711">
        <ele>1552</ele>
        <time>2015-09-19T08:11:50Z</time>
      </trkpt>
      <trkpt lat="42.70062" lon="1.49705">
        <ele>1552</ele>
        <time>2015-09-19T08:12:05Z</time>
      </trkpt>
      <trkpt lat="42.70055" lon="1.49702">
        <ele>1555</ele>
        <time>2015-09-19T08:12:18Z</time>
      </trkpt>
      <trkpt lat="42.70048" lon="1.49701">
        <ele>1556</ele>
        <time>2015-09-19T08:12:34Z</time>
      </trkpt>
      <trkpt lat="42.70041" lon="1.49698">
        <ele>1558</ele>
        <time>2015-09-19T08:12:49Z</time>
      </trkpt>
      <trkpt lat="42.70037" lon="1.49694">
        <ele>1558</ele>
        <time>2015-09-19T08:13:04Z</time>
      </trkpt>
      <trkpt lat="42.70035" lon="1.4969">
        <ele>1560</ele>
        <time>2015-09-19T08:13:17Z</time>
      </trkpt>
      <trkpt lat="42.70029" lon="1.49685">
        <ele>1562</ele>
        <time>2015-09-19T08:13:29Z</time>
      </trkpt>
      <trkpt lat="42.7002" lon="1.49678">
        <ele>1563</ele>
        <time>2015-09-19T08:13:43Z</time>
      </trkpt>
      <trkpt lat="42.70016" lon="1.49683">
        <ele>1566</ele>
        <time>2015-09-19T08:13:58Z</time>
      </trkpt>
      <trkpt lat="42.70006" lon="1.4968">
        <ele>1568</ele>
        <time>2015-09-19T08:14:11Z</time>
      </trkpt>
      <trkpt lat="42.7" lon="1.49683">
        <ele>1569</ele>
        <time>2015-09-19T08:14:26Z</time>
      </trkpt>
      <trkpt lat="42.69992" lon="1.49685">
        <ele>1570</ele>
        <time>2015-09-19T08:14:37Z</time>
      </trkpt>
      <trkpt lat="42.69982" lon="1.49683">
        <ele>1573</ele>
        <time>2015-09-19T08:14:52Z</time>
      </trkpt>
      <trkpt lat="42.69975" lon="1.49678">
        <ele>1575</ele>
        <time>2015-09-19T08:15:06Z</time>
      </trkpt>
      <trkpt lat="42.69966" lon="1.49676">
        <ele>1576</ele>
        <time>2015-09-19T08:15:20Z</time>
      </trkpt>
      <trkpt lat="42.69961" lon="1.49673">
        <ele>1577</ele>
        <time>2015-09-19T08:15:29Z</time>
      </trkpt>
      <trkpt lat="42.6995" lon="1.49675">
        <ele>1580</ele>
        <time>2015-09-19T08:15:44Z</time>
      </trkpt>
      <trkpt lat="42.69943" lon="1.49676">
        <ele>1581</ele>
        <time>2015-09-19T08:15:57Z</time>
      </trkpt>
      <trkpt lat="42.6993" lon="1.49672">
        <ele>1581</ele>
        <time>2015-09-19T08:16:12Z</time>
      </trkpt>
      <trkpt lat="42.69918" lon="1.4967">
        <ele>1583</ele>
        <time>2015-09-19T08:16:26Z</time>
      </trkpt>
      <trkpt lat="42.69909" lon="1.4967">
        <ele>1585</ele>
        <time>2015-09-19T08:16:39Z</time>
      </trkpt>
      <trkpt lat="42.69901" lon="1.49673">
        <ele>1587</ele>
        <time>2015-09-19T08:16:53Z</time>
      </trkpt>
      <trkpt lat="42.6989" lon="1.49677">
        <ele>1589</ele>
        <time>2015-09-19T08:17:08Z</time>
      </trkpt>
      <trkpt lat="42.69883" lon="1.49675">
        <ele>1591</ele>
        <time>2015-09-19T08:17:20Z</time>
      </trkpt>
      <trkpt lat="42.69879" lon="1.49675">
        <ele>1592</ele>
        <time>2015-09-19T08:17:33Z</time>
      </trkpt>
      <trkpt lat="42.69871" lon="1.49673">
        <ele>1594</ele>
        <time>2015-09-19T08:17:44Z</time>
      </trkpt>
      <trkpt lat="42.6986" lon="1.49676">
        <ele>1595</ele>
        <time>2015-09-19T08:18:01Z</time>
      </trkpt>
      <trkpt lat="42.69855" lon="1.49677">
        <ele>1596</ele>
        <time>2015-09-19T08:18:15Z</time>
      </trkpt>
      <trkpt lat="42.69848" lon="1.49678">
        <ele>1598</ele>
        <time>2015-09-19T08:18:28Z</time>
      </trkpt>
      <trkpt lat="42.69845" lon="1.49681">
        <ele>1600</ele>
        <time>2015-09-19T08:18:40Z</time>
      </trkpt>
      <trkpt lat="42.69839" lon="1.4968">
        <ele>1601</ele>
        <time>2015-09-19T08:18:54Z</time>
      </trkpt>
      <trkpt lat="42.69835" lon="1.49676">
        <ele>1602</ele>
        <time>2015-09-19T08:19:09Z</time>
      </trkpt>
      <trkpt lat="42.69835" lon="1.49671">
        <ele>1603</ele>
        <time>2015-09-19T08:19:22Z</time>
      </trkpt>
      <trkpt lat="42.69828" lon="1.49667">
        <ele>1606</ele>
        <time>2015-09-19T08:19:35Z</time>
      </trkpt>
      <trkpt lat="42.69821" lon="1.49666">
        <ele>1607</ele>
        <time>2015-09-19T08:19:49Z</time>
      </trkpt>
      <trkpt lat="42.69816" lon="1.49659">
        <ele>1609</ele>
        <time>2015-09-19T08:20:05Z</time>
      </trkpt>
      <trkpt lat="42.69804" lon="1.49655">
        <ele>1609</ele>
        <time>2015-09-19T08:20:19Z</time>
      </trkpt>
      <trkpt lat="42.69796" lon="1.49655">
        <ele>1611</ele>
        <time>2015-09-19T08:20:32Z</time>
      </trkpt>
      <trkpt lat="42.69788" lon="1.49657">
        <ele>1612</ele>
        <time>2015-09-19T08:20:45Z</time>
      </trkpt>
      <trkpt lat="42.69777" lon="1.49657">
        <ele>1614</ele>
        <time>2015-09-19T08:21:01Z</time>
      </trkpt>
      <trkpt lat="42.6977" lon="1.49659">
        <ele>1615</ele>
        <time>2015-09-19T08:21:16Z</time>
      </trkpt>
      <trkpt lat="42.69762" lon="1.49661">
        <ele>1616</ele>
        <time>2015-09-19T08:21:33Z</time>
      </trkpt>
      <trkpt lat="42.69755" lon="1.49666">
        <ele>1618</ele>
        <time>2015-09-19T08:21:49Z</time>
      </trkpt>
      <trkpt lat="42.69751" lon="1.49669">
        <ele>1618</ele>
        <time>2015-09-19T08:22:02Z</time>
      </trkpt>
      <trkpt lat="42.69749" lon="1.4967">
        <ele>1619</ele>
        <time>2015-09-19T08:22:15Z</time>
      </trkpt>
      <trkpt lat="42.69738" lon="1.49677">
        <ele>1620</ele>
        <time>2015-09-19T08:22:30Z</time>
      </trkpt>
      <trkpt lat="42.69726" lon="1.49688">
        <ele>1622</ele>
        <time>2015-09-19T08:22:46Z</time>
      </trkpt>
      <trkpt lat="42.69717" lon="1.49699">
        <ele>1623</ele>
        <time>2015-09-19T08:23:00Z</time>
      </trkpt>
      <trkpt lat="42.69707" lon="1.49704">
        <ele>1623</ele>
        <time>2015-09-19T08:23:14Z</time>
      </trkpt>
      <trkpt lat="42.69698" lon="1.49709">
        <ele>1624</ele>
        <time>2015-09-19T08:23:28Z</time>
      </trkpt>
      <trkpt lat="42.69689" lon="1.49715">
        <ele>1626</ele>
        <time>2015-09-19T08:23:46Z</time>
      </trkpt>
      <trkpt lat="42.69679" lon="1.49719">
        <ele>1627</ele>
        <time>2015-09-19T08:24:02Z</time>
      </trkpt>
      <trkpt lat="42.69678" lon="1.49719">
        <ele>1627</ele>
        <time>2015-09-19T08:24:03Z</time>
      </trkpt>
      <trkpt lat="42.69666" lon="1.49726">
        <ele>1629</ele>
        <time>2015-09-19T08:24:20Z</time>
      </trkpt>
      <trkpt lat="42.69658" lon="1.49729">
        <ele>1628</ele>
        <time>2015-09-19T08:24:33Z</time>
      </trkpt>
      <trkpt lat="42.6965" lon="1.49737">
        <ele>1629</ele>
        <time>2015-09-19T08:24:46Z</time>
      </trkpt>
      <trkpt lat="42.69641" lon="1.49745">
        <ele>1630</ele>
        <time>2015-09-19T08:25:00Z</time>
      </trkpt>
      <trkpt lat="42.69634" lon="1.49748">
        <ele>1631</ele>
        <time>2015-09-19T08:25:11Z</time>
      </trkpt>
      <trkpt lat="42.69626" lon="1.49755">
        <ele>1631</ele>
        <time>2015-09-19T08:25:25Z</time>
      </trkpt>
      <trkpt lat="42.69617" lon="1.49759">
        <ele>1633</ele>
        <time>2015-09-19T08:25:40Z</time>
      </trkpt>
      <trkpt lat="42.69609" lon="1.49763">
        <ele>1634</ele>
        <time>2015-09-19T08:25:52Z</time>
      </trkpt>
      <trkpt lat="42.69602" lon="1.49767">
        <ele>1635</ele>
        <time>2015-09-19T08:26:04Z</time>
      </trkpt>
      <trkpt lat="42.69593" lon="1.4977">
        <ele>1636</ele>
        <time>2015-09-19T08:26:19Z</time>
      </trkpt>
      <trkpt lat="42.69585" lon="1.49774">
        <ele>1638</ele>
        <time>2015-09-19T08:26:34Z</time>
      </trkpt>
      <trkpt lat="42.69576" lon="1.49778">
        <ele>1638</ele>
        <time>2015-09-19T08:26:46Z</time>
      </trkpt>
      <trkpt lat="42.6957" lon="1.49782">
        <ele>1638</ele>
        <time>2015-09-19T08:26:57Z</time>
      </trkpt>
      <trkpt lat="42.69563" lon="1.49787">
        <ele>1639</ele>
        <time>2015-09-19T08:27:10Z</time>
      </trkpt>
      <trkpt lat="42.69559" lon="1.49795">
        <ele>1641</ele>
        <time>2015-09-19T08:27:23Z</time>
      </trkpt>
      <trkpt lat="42.69546" lon="1.49801">
        <ele>1642</ele>
        <time>2015-09-19T08:27:39Z</time>
      </trkpt>
      <trkpt lat="42.69534" lon="1.498">
        <ele>1643</ele>
        <time>2015-09-19T08:27:52Z</time>
      </trkpt>
      <trkpt lat="42.69529" lon="1.49803">
        <ele>1644</ele>
        <time>2015-09-19T08:28:05Z</time>
      </trkpt>
      <trkpt lat="42.69522" lon="1.49805">
        <ele>1645</ele>
        <time>2015-09-19T08:28:16Z</time>
      </trkpt>
      <trkpt lat="42.69514" lon="1.49805">
        <ele>1645</ele>
        <time>2015-09-19T08:28:28Z</time>
      </trkpt>
      <trkpt lat="42.69507" lon="1.49803">
        <ele>1645</ele>
        <time>2015-09-19T08:28:39Z</time>
      </trkpt>
      <trkpt lat="42.69501" lon="1.49803">
        <ele>1646</ele>
        <time>2015-09-19T08:28:56Z</time>
      </trkpt>
      <trkpt lat="42.69497" lon="1.49805">
        <ele>1648</ele>
        <time>2015-09-19T08:29:09Z</time>
      </trkpt>
      <trkpt lat="42.69493" lon="1.49809">
        <ele>1651</ele>
        <time>2015-09-19T08:29:26Z</time>
      </trkpt>
      <trkpt lat="42.69486" lon="1.49811">
        <ele>1653</ele>
        <time>2015-09-19T08:29:37Z</time>
      </trkpt>
      <trkpt lat="42.69479" lon="1.49812">
        <ele>1654</ele>
        <time>2015-09-19T08:29:49Z</time>
      </trkpt>
      <trkpt lat="42.69478" lon="1.49814">
        <ele>1654</ele>
        <time>2015-09-19T08:29:55Z</time>
      </trkpt>
      <trkpt lat="42.69471" lon="1.49817">
        <ele>1656</ele>
        <time>2015-09-19T08:30:09Z</time>
      </trkpt>
      <trkpt lat="42.69467" lon="1.49819">
        <ele>1657</ele>
        <time>2015-09-19T08:30:17Z</time>
      </trkpt>
      <trkpt lat="42.69457" lon="1.4982">
        <ele>1658</ele>
        <time>2015-09-19T08:30:31Z</time>
      </trkpt>
      <trkpt lat="42.6945" lon="1.49821">
        <ele>1660</ele>
        <time>2015-09-19T08:30:43Z</time>
      </trkpt>
      <trkpt lat="42.69444" lon="1.49823">
        <ele>1662</ele>
        <time>2015-09-19T08:30:55Z</time>
      </trkpt>
      <trkpt lat="42.6944" lon="1.49826">
        <ele>1664</ele>
        <time>2015-09-19T08:31:07Z</time>
      </trkpt>
      <trkpt lat="42.69439" lon="1.49825">
        <ele>1664</ele>
        <time>2015-09-19T08:31:21Z</time>
      </trkpt>
      <trkpt lat="42.69438" lon="1.49825">
        <ele>1664</ele>
        <time>2015-09-19T08:31:37Z</time>
      </trkpt>
      <trkpt lat="42.69436" lon="1.49826">
        <ele>1663</ele>
        <time>2015-09-19T08:31:53Z</time>
      </trkpt>
      <trkpt lat="42.69436" lon="1.49832">
        <ele>1664</ele>
        <time>2015-09-19T08:32:13Z</time>
      </trkpt>
      <trkpt lat="42.69437" lon="1.49827">
        <ele>1664</ele>
        <time>2015-09-19T08:32:38Z</time>
      </trkpt>
      <trkpt lat="42.69439" lon="1.4983">
        <ele>1664</ele>
        <time>2015-09-19T08:32:57Z</time>
      </trkpt>
      <trkpt lat="42.69432" lon="1.4983">
        <ele>1664</ele>
        <time>2015-09-19T08:33:21Z</time>
      </trkpt>
      <trkpt lat="42.69435" lon="1.4983">
        <ele>1664</ele>
        <time>2015-09-19T08:33:39Z</time>
      </trkpt>
      <trkpt lat="42.69433" lon="1.4983">
        <ele>1665</ele>
        <time>2015-09-19T08:33:54Z</time>
      </trkpt>
      <trkpt lat="42.69436" lon="1.49826">
        <ele>1664</ele>
        <time>2015-09-19T08:34:17Z</time>
      </trkpt>
      <trkpt lat="42.69434" lon="1.49829">
        <ele>1664</ele>
        <time>2015-09-19T08:34:41Z</time>
      </trkpt>
      <trkpt lat="42.69436" lon="1.49833">
        <ele>1665</ele>
        <time>2015-09-19T08:34:58Z</time>
      </trkpt>
      <trkpt lat="42.69435" lon="1.49834">
        <ele>1665</ele>
        <time>2015-09-19T08:35:21Z</time>
      </trkpt>
      <trkpt lat="42.69433" lon="1.49838">
        <ele>1664</ele>
        <time>2015-09-19T08:35:38Z</time>
      </trkpt>
      <trkpt lat="42.69432" lon="1.4984">
        <ele>1665</ele>
        <time>2015-09-19T08:35:59Z</time>
      </trkpt>
      <trkpt lat="42.69432" lon="1.49845">
        <ele>1665</ele>
        <time>2015-09-19T08:36:24Z</time>
      </trkpt>
      <trkpt lat="42.69431" lon="1.49849">
        <ele>1665</ele>
        <time>2015-09-19T08:36:53Z</time>
      </trkpt>
      <trkpt lat="42.69429" lon="1.49852">
        <ele>1665</ele>
        <time>2015-09-19T08:37:18Z</time>
      </trkpt>
      <trkpt lat="42.69429" lon="1.49848">
        <ele>1666</ele>
        <time>2015-09-19T08:37:38Z</time>
      </trkpt>
      <trkpt lat="42.69429" lon="1.4985">
        <ele>1665</ele>
        <time>2015-09-19T08:37:49Z</time>
      </trkpt>
      <trkpt lat="42.69433" lon="1.49837">
        <ele>1665</ele>
        <time>2015-09-19T08:38:11Z</time>
      </trkpt>
      <trkpt lat="42.69429" lon="1.4984">
        <ele>1665</ele>
        <time>2015-09-19T08:38:34Z</time>
      </trkpt>
      <trkpt lat="42.6943" lon="1.49838">
        <ele>1665</ele>
        <time>2015-09-19T08:39:00Z</time>
      </trkpt>
      <trkpt lat="42.69429" lon="1.49837">
        <ele>1665</ele>
        <time>2015-09-19T08:39:24Z</time>
      </trkpt>
      <trkpt lat="42.69425" lon="1.49841">
        <ele>1664</ele>
        <time>2015-09-19T08:39:36Z</time>
      </trkpt>
      <trkpt lat="42.69416" lon="1.4984">
        <ele>1663</ele>
        <time>2015-09-19T08:39:49Z</time>
      </trkpt>
      <trkpt lat="42.69417" lon="1.49838">
        <ele>1663</ele>
        <time>2015-09-19T08:40:10Z</time>
      </trkpt>
      <trkpt lat="42.69412" lon="1.49843">
        <ele>1663</ele>
        <time>2015-09-19T08:40:36Z</time>
      </trkpt>
      <trkpt lat="42.69411" lon="1.49847">
        <ele>1663</ele>
        <time>2015-09-19T08:40:55Z</time>
      </trkpt>
      <trkpt lat="42.6941" lon="1.4985">
        <ele>1663</ele>
        <time>2015-09-19T08:41:09Z</time>
      </trkpt>
      <trkpt lat="42.69408" lon="1.49847">
        <ele>1663</ele>
        <time>2015-09-19T08:41:27Z</time>
      </trkpt>
      <trkpt lat="42.69408" lon="1.49836">
        <ele>1663</ele>
        <time>2015-09-19T08:41:41Z</time>
      </trkpt>
      <trkpt lat="42.69398" lon="1.49836">
        <ele>1661</ele>
        <time>2015-09-19T08:42:00Z</time>
      </trkpt>
      <trkpt lat="42.6939" lon="1.49838">
        <ele>1661</ele>
        <time>2015-09-19T08:42:11Z</time>
      </trkpt>
      <trkpt lat="42.6938" lon="1.49842">
        <ele>1661</ele>
        <time>2015-09-19T08:42:22Z</time>
      </trkpt>
      <trkpt lat="42.69365" lon="1.49847">
        <ele>1663</ele>
        <time>2015-09-19T08:42:36Z</time>
      </trkpt>
      <trkpt lat="42.69355" lon="1.49852">
        <ele>1663</ele>
        <time>2015-09-19T08:42:49Z</time>
      </trkpt>
      <trkpt lat="42.69343" lon="1.49855">
        <ele>1665</ele>
        <time>2015-09-19T08:43:02Z</time>
      </trkpt>
      <trkpt lat="42.69334" lon="1.49861">
        <ele>1667</ele>
        <time>2015-09-19T08:43:15Z</time>
      </trkpt>
      <trkpt lat="42.69323" lon="1.49869">
        <ele>1669</ele>
        <time>2015-09-19T08:43:29Z</time>
      </trkpt>
      <trkpt lat="42.69323" lon="1.49879">
        <ele>1673</ele>
        <time>2015-09-19T08:43:40Z</time>
      </trkpt>
      <trkpt lat="42.69318" lon="1.49879">
        <ele>1674</ele>
        <time>2015-09-19T08:43:52Z</time>
      </trkpt>
      <trkpt lat="42.69312" lon="1.49884">
        <ele>1674</ele>
        <time>2015-09-19T08:44:06Z</time>
      </trkpt>
      <trkpt lat="42.69311" lon="1.49878">
        <ele>1674</ele>
        <time>2015-09-19T08:44:27Z</time>
      </trkpt>
      <trkpt lat="42.69312" lon="1.49877">
        <ele>1674</ele>
        <time>2015-09-19T08:44:40Z</time>
      </trkpt>
      <trkpt lat="42.69308" lon="1.49886">
        <ele>1676</ele>
        <time>2015-09-19T08:44:52Z</time>
      </trkpt>
      <trkpt lat="42.69296" lon="1.49887">
        <ele>1678</ele>
        <time>2015-09-19T08:45:07Z</time>
      </trkpt>
      <trkpt lat="42.69286" lon="1.49887">
        <ele>1678</ele>
        <time>2015-09-19T08:45:20Z</time>
      </trkpt>
      <trkpt lat="42.69276" lon="1.49889">
        <ele>1678</ele>
        <time>2015-09-19T08:45:33Z</time>
      </trkpt>
      <trkpt lat="42.69271" lon="1.49891">
        <ele>1678</ele>
        <time>2015-09-19T08:45:41Z</time>
      </trkpt>
      <trkpt lat="42.69268" lon="1.49888">
        <ele>1676</ele>
        <time>2015-09-19T08:45:44Z</time>
      </trkpt>
      <trkpt lat="42.69262" lon="1.49895">
        <ele>1676</ele>
        <time>2015-09-19T08:45:53Z</time>
      </trkpt>
      <trkpt lat="42.69261" lon="1.49897">
        <ele>1677</ele>
        <time>2015-09-19T08:45:55Z</time>
      </trkpt>
      <trkpt lat="42.6926" lon="1.49921">
        <ele>1677</ele>
        <time>2015-09-19T08:46:12Z</time>
      </trkpt>
      <trkpt lat="42.69259" lon="1.49936">
        <ele>1678</ele>
        <time>2015-09-19T08:46:25Z</time>
      </trkpt>
      <trkpt lat="42.69257" lon="1.49954">
        <ele>1679</ele>
        <time>2015-09-19T08:46:39Z</time>
      </trkpt>
      <trkpt lat="42.69252" lon="1.49966">
        <ele>1678</ele>
        <time>2015-09-19T08:46:51Z</time>
      </trkpt>
      <trkpt lat="42.69247" lon="1.49978">
        <ele>1678</ele>
        <time>2015-09-19T08:47:04Z</time>
      </trkpt>
      <trkpt lat="42.69244" lon="1.49986">
        <ele>1677</ele>
        <time>2015-09-19T08:47:18Z</time>
      </trkpt>
      <trkpt lat="42.69244" lon="1.49987">
        <ele>1678</ele>
        <time>2015-09-19T08:47:21Z</time>
      </trkpt>
      <trkpt lat="42.69243" lon="1.49988">
        <ele>1676</ele>
        <time>2015-09-19T08:47:22Z</time>
      </trkpt>
      <trkpt lat="42.69243" lon="1.49988">
        <ele>1677</ele>
        <time>2015-09-19T08:47:23Z</time>
      </trkpt>
      <trkpt lat="42.69239" lon="1.49993">
        <ele>1677</ele>
        <time>2015-09-19T08:47:35Z</time>
      </trkpt>
      <trkpt lat="42.69233" lon="1.49999">
        <ele>1678</ele>
        <time>2015-09-19T08:47:48Z</time>
      </trkpt>
      <trkpt lat="42.69225" lon="1.50003">
        <ele>1680</ele>
        <time>2015-09-19T08:48:01Z</time>
      </trkpt>
      <trkpt lat="42.69218" lon="1.50006">
        <ele>1681</ele>
        <time>2015-09-19T08:48:16Z</time>
      </trkpt>
      <trkpt lat="42.69212" lon="1.5001">
        <ele>1682</ele>
        <time>2015-09-19T08:48:29Z</time>
      </trkpt>
      <trkpt lat="42.69205" lon="1.50015">
        <ele>1686</ele>
        <time>2015-09-19T08:48:46Z</time>
      </trkpt>
      <trkpt lat="42.69201" lon="1.50018">
        <ele>1687</ele>
        <time>2015-09-19T08:48:54Z</time>
      </trkpt>
      <trkpt lat="42.69193" lon="1.50024">
        <ele>1690</ele>
        <time>2015-09-19T08:49:10Z</time>
      </trkpt>
      <trkpt lat="42.69191" lon="1.50025">
        <ele>1689</ele>
        <time>2015-09-19T08:49:31Z</time>
      </trkpt>
      <trkpt lat="42.69183" lon="1.5003">
        <ele>1691</ele>
        <time>2015-09-19T08:49:47Z</time>
      </trkpt>
      <trkpt lat="42.69171" lon="1.50033">
        <ele>1692</ele>
        <time>2015-09-19T08:50:04Z</time>
      </trkpt>
      <trkpt lat="42.69158" lon="1.50039">
        <ele>1693</ele>
        <time>2015-09-19T08:50:20Z</time>
      </trkpt>
      <trkpt lat="42.69151" lon="1.5004">
        <ele>1694</ele>
        <time>2015-09-19T08:50:31Z</time>
      </trkpt>
      <trkpt lat="42.69146" lon="1.50042">
        <ele>1696</ele>
        <time>2015-09-19T08:50:41Z</time>
      </trkpt>
      <trkpt lat="42.69145" lon="1.50041">
        <ele>1696</ele>
        <time>2015-09-19T08:50:42Z</time>
      </trkpt>
      <trkpt lat="42.69139" lon="1.50041">
        <ele>1698</ele>
        <time>2015-09-19T08:50:53Z</time>
      </trkpt>
      <trkpt lat="42.6913" lon="1.5005">
        <ele>1700</ele>
        <time>2015-09-19T08:51:10Z</time>
      </trkpt>
      <trkpt lat="42.69123" lon="1.50053">
        <ele>1701</ele>
        <time>2015-09-19T08:51:23Z</time>
      </trkpt>
      <trkpt lat="42.69122" lon="1.50053">
        <ele>1701</ele>
        <time>2015-09-19T08:51:26Z</time>
      </trkpt>
      <trkpt lat="42.69114" lon="1.50058">
        <ele>1704</ele>
        <time>2015-09-19T08:51:42Z</time>
      </trkpt>
      <trkpt lat="42.69104" lon="1.50063">
        <ele>1705</ele>
        <time>2015-09-19T08:51:56Z</time>
      </trkpt>
      <trkpt lat="42.69098" lon="1.50068">
        <ele>1707</ele>
        <time>2015-09-19T08:52:11Z</time>
      </trkpt>
      <trkpt lat="42.69092" lon="1.50071">
        <ele>1710</ele>
        <time>2015-09-19T08:52:28Z</time>
      </trkpt>
      <trkpt lat="42.69088" lon="1.50075">
        <ele>1712</ele>
        <time>2015-09-19T08:52:42Z</time>
      </trkpt>
      <trkpt lat="42.69084" lon="1.50072">
        <ele>1713</ele>
        <time>2015-09-19T08:52:48Z</time>
      </trkpt>
      <trkpt lat="42.69078" lon="1.50077">
        <ele>1715</ele>
        <time>2015-09-19T08:53:02Z</time>
      </trkpt>
      <trkpt lat="42.69072" lon="1.50083">
        <ele>1715</ele>
        <time>2015-09-19T08:53:15Z</time>
      </trkpt>
      <trkpt lat="42.69056" lon="1.50093">
        <ele>1716</ele>
        <time>2015-09-19T08:53:33Z</time>
      </trkpt>
      <trkpt lat="42.69054" lon="1.50094">
        <ele>1715</ele>
        <time>2015-09-19T08:53:38Z</time>
      </trkpt>
      <trkpt lat="42.69044" lon="1.50097">
        <ele>1716</ele>
        <time>2015-09-19T08:53:55Z</time>
      </trkpt>
      <trkpt lat="42.69035" lon="1.50101">
        <ele>1716</ele>
        <time>2015-09-19T08:54:10Z</time>
      </trkpt>
      <trkpt lat="42.69025" lon="1.5011">
        <ele>1716</ele>
        <time>2015-09-19T08:54:26Z</time>
      </trkpt>
      <trkpt lat="42.69019" lon="1.50117">
        <ele>1718</ele>
        <time>2015-09-19T08:54:41Z</time>
      </trkpt>
      <trkpt lat="42.69012" lon="1.50123">
        <ele>1720</ele>
        <time>2015-09-19T08:54:58Z</time>
      </trkpt>
      <trkpt lat="42.69008" lon="1.50126">
        <ele>1720</ele>
        <time>2015-09-19T08:55:04Z</time>
      </trkpt>
      <trkpt lat="42.68999" lon="1.50137">
        <ele>1721</ele>
        <time>2015-09-19T08:55:19Z</time>
      </trkpt>
      <trkpt lat="42.68992" lon="1.50148">
        <ele>1723</ele>
        <time>2015-09-19T08:55:35Z</time>
      </trkpt>
      <trkpt lat="42.68989" lon="1.50159">
        <ele>1725</ele>
        <time>2015-09-19T08:55:50Z</time>
      </trkpt>
      <trkpt lat="42.68987" lon="1.50169">
        <ele>1729</ele>
        <time>2015-09-19T08:56:06Z</time>
      </trkpt>
      <trkpt lat="42.68981" lon="1.50173">
        <ele>1730</ele>
        <time>2015-09-19T08:56:20Z</time>
      </trkpt>
      <trkpt lat="42.68973" lon="1.50178">
        <ele>1730</ele>
        <time>2015-09-19T08:56:34Z</time>
      </trkpt>
      <trkpt lat="42.68965" lon="1.50181">
        <ele>1730</ele>
        <time>2015-09-19T08:56:49Z</time>
      </trkpt>
      <trkpt lat="42.68958" lon="1.50189">
        <ele>1731</ele>
        <time>2015-09-19T08:57:04Z</time>
      </trkpt>
      <trkpt lat="42.6895" lon="1.50195">
        <ele>1731</ele>
        <time>2015-09-19T08:57:19Z</time>
      </trkpt>
      <trkpt lat="42.68949" lon="1.50202">
        <ele>1734</ele>
        <time>2015-09-19T08:57:32Z</time>
      </trkpt>
      <trkpt lat="42.68939" lon="1.50202">
        <ele>1733</ele>
        <time>2015-09-19T08:57:47Z</time>
      </trkpt>
      <trkpt lat="42.68931" lon="1.50204">
        <ele>1734</ele>
        <time>2015-09-19T08:58:02Z</time>
      </trkpt>
      <trkpt lat="42.68924" lon="1.50206">
        <ele>1735</ele>
        <time>2015-09-19T08:58:15Z</time>
      </trkpt>
      <trkpt lat="42.68918" lon="1.50207">
        <ele>1737</ele>
        <time>2015-09-19T08:58:28Z</time>
      </trkpt>
      <trkpt lat="42.6891" lon="1.5021">
        <ele>1740</ele>
        <time>2015-09-19T08:58:44Z</time>
      </trkpt>
      <trkpt lat="42.68911" lon="1.50214">
        <ele>1743</ele>
        <time>2015-09-19T08:58:59Z</time>
      </trkpt>
      <trkpt lat="42.68907" lon="1.50221">
        <ele>1745</ele>
        <time>2015-09-19T08:59:17Z</time>
      </trkpt>
      <trkpt lat="42.68904" lon="1.50224">
        <ele>1748</ele>
        <time>2015-09-19T08:59:31Z</time>
      </trkpt>
      <trkpt lat="42.689" lon="1.5023">
        <ele>1750</ele>
        <time>2015-09-19T08:59:45Z</time>
      </trkpt>
      <trkpt lat="42.68896" lon="1.50234">
        <ele>1752</ele>
        <time>2015-09-19T08:59:59Z</time>
      </trkpt>
      <trkpt lat="42.68897" lon="1.50238">
        <ele>1754</ele>
        <time>2015-09-19T09:00:13Z</time>
      </trkpt>
      <trkpt lat="42.68893" lon="1.50242">
        <ele>1755</ele>
        <time>2015-09-19T09:00:25Z</time>
      </trkpt>
      <trkpt lat="42.68892" lon="1.50243">
        <ele>1755</ele>
        <time>2015-09-19T09:00:28Z</time>
      </trkpt>
      <trkpt lat="42.68886" lon="1.50247">
        <ele>1755</ele>
        <time>2015-09-19T09:00:34Z</time>
      </trkpt>
      <trkpt lat="42.68879" lon="1.50255">
        <ele>1755</ele>
        <time>2015-09-19T09:00:49Z</time>
      </trkpt>
      <trkpt lat="42.68875" lon="1.50266">
        <ele>1755</ele>
        <time>2015-09-19T09:01:05Z</time>
      </trkpt>
      <trkpt lat="42.68866" lon="1.50269">
        <ele>1756</ele>
        <time>2015-09-19T09:01:19Z</time>
      </trkpt>
      <trkpt lat="42.68859" lon="1.50273">
        <ele>1757</ele>
        <time>2015-09-19T09:01:34Z</time>
      </trkpt>
      <trkpt lat="42.68855" lon="1.50278">
        <ele>1759</ele>
        <time>2015-09-19T09:01:50Z</time>
      </trkpt>
      <trkpt lat="42.6885" lon="1.50282">
        <ele>1759</ele>
        <time>2015-09-19T09:02:12Z</time>
      </trkpt>
      <trkpt lat="42.68841" lon="1.50287">
        <ele>1762</ele>
        <time>2015-09-19T09:02:29Z</time>
      </trkpt>
      <trkpt lat="42.68833" lon="1.50296">
        <ele>1764</ele>
        <time>2015-09-19T09:02:45Z</time>
      </trkpt>
      <trkpt lat="42.68825" lon="1.50303">
        <ele>1766</ele>
        <time>2015-09-19T09:02:59Z</time>
      </trkpt>
      <trkpt lat="42.68819" lon="1.50305">
        <ele>1768</ele>
        <time>2015-09-19T09:03:12Z</time>
      </trkpt>
      <trkpt lat="42.68812" lon="1.50311">
        <ele>1768</ele>
        <time>2015-09-19T09:03:26Z</time>
      </trkpt>
      <trkpt lat="42.68809" lon="1.50309">
        <ele>1768</ele>
        <time>2015-09-19T09:03:32Z</time>
      </trkpt>
      <trkpt lat="42.68805" lon="1.50307">
        <ele>1768</ele>
        <time>2015-09-19T09:03:36Z</time>
      </trkpt>
      <trkpt lat="42.68796" lon="1.50313">
        <ele>1768</ele>
        <time>2015-09-19T09:03:51Z</time>
      </trkpt>
      <trkpt lat="42.68789" lon="1.50313">
        <ele>1767</ele>
        <time>2015-09-19T09:04:01Z</time>
      </trkpt>
      <trkpt lat="42.68778" lon="1.50316">
        <ele>1768</ele>
        <time>2015-09-19T09:04:16Z</time>
      </trkpt>
      <trkpt lat="42.68766" lon="1.5032">
        <ele>1768</ele>
        <time>2015-09-19T09:04:31Z</time>
      </trkpt>
      <trkpt lat="42.68757" lon="1.50323">
        <ele>1770</ele>
        <time>2015-09-19T09:04:45Z</time>
      </trkpt>
      <trkpt lat="42.68749" lon="1.50329">
        <ele>1772</ele>
        <time>2015-09-19T09:05:01Z</time>
      </trkpt>
      <trkpt lat="42.68743" lon="1.5034">
        <ele>1774</ele>
        <time>2015-09-19T09:05:18Z</time>
      </trkpt>
      <trkpt lat="42.68732" lon="1.50345">
        <ele>1775</ele>
        <time>2015-09-19T09:05:32Z</time>
      </trkpt>
      <trkpt lat="42.68726" lon="1.50351">
        <ele>1775</ele>
        <time>2015-09-19T09:05:47Z</time>
      </trkpt>
      <trkpt lat="42.68716" lon="1.50355">
        <ele>1776</ele>
        <time>2015-09-19T09:06:02Z</time>
      </trkpt>
      <trkpt lat="42.68707" lon="1.50357">
        <ele>1778</ele>
        <time>2015-09-19T09:06:16Z</time>
      </trkpt>
      <trkpt lat="42.68697" lon="1.5036">
        <ele>1780</ele>
        <time>2015-09-19T09:06:30Z</time>
      </trkpt>
      <trkpt lat="42.68686" lon="1.50366">
        <ele>1781</ele>
        <time>2015-09-19T09:06:46Z</time>
      </trkpt>
      <trkpt lat="42.68676" lon="1.50372">
        <ele>1783</ele>
        <time>2015-09-19T09:07:00Z</time>
      </trkpt>
      <trkpt lat="42.68668" lon="1.50378">
        <ele>1784</ele>
        <time>2015-09-19T09:07:14Z</time>
      </trkpt>
      <trkpt lat="42.68657" lon="1.50381">
        <ele>1785</ele>
        <time>2015-09-19T09:07:28Z</time>
      </trkpt>
      <trkpt lat="42.68651" lon="1.50384">
        <ele>1788</ele>
        <time>2015-09-19T09:07:38Z</time>
      </trkpt>
      <trkpt lat="42.68643" lon="1.50395">
        <ele>1790</ele>
        <time>2015-09-19T09:07:53Z</time>
      </trkpt>
      <trkpt lat="42.68636" lon="1.50403">
        <ele>1791</ele>
        <time>2015-09-19T09:08:10Z</time>
      </trkpt>
      <trkpt lat="42.68632" lon="1.50404">
        <ele>1792</ele>
        <time>2015-09-19T09:08:35Z</time>
      </trkpt>
      <trkpt lat="42.68622" lon="1.50413">
        <ele>1794</ele>
        <time>2015-09-19T09:08:51Z</time>
      </trkpt>
      <trkpt lat="42.68618" lon="1.50416">
        <ele>1794</ele>
        <time>2015-09-19T09:08:56Z</time>
      </trkpt>
      <trkpt lat="42.68604" lon="1.50425">
        <ele>1795</ele>
        <time>2015-09-19T09:09:14Z</time>
      </trkpt>
      <trkpt lat="42.68593" lon="1.50433">
        <ele>1798</ele>
        <time>2015-09-19T09:09:30Z</time>
      </trkpt>
      <trkpt lat="42.68582" lon="1.5044">
        <ele>1798</ele>
        <time>2015-09-19T09:09:45Z</time>
      </trkpt>
      <trkpt lat="42.68571" lon="1.5045">
        <ele>1800</ele>
        <time>2015-09-19T09:10:03Z</time>
      </trkpt>
      <trkpt lat="42.68556" lon="1.50455">
        <ele>1800</ele>
        <time>2015-09-19T09:10:18Z</time>
      </trkpt>
      <trkpt lat="42.68552" lon="1.50458">
        <ele>1802</ele>
        <time>2015-09-19T09:10:26Z</time>
      </trkpt>
      <trkpt lat="42.68543" lon="1.50465">
        <ele>1803</ele>
        <time>2015-09-19T09:10:42Z</time>
      </trkpt>
      <trkpt lat="42.68537" lon="1.50466">
        <ele>1805</ele>
        <time>2015-09-19T09:10:56Z</time>
      </trkpt>
      <trkpt lat="42.68536" lon="1.50467">
        <ele>1805</ele>
        <time>2015-09-19T09:10:58Z</time>
      </trkpt>
      <trkpt lat="42.68522" lon="1.50468">
        <ele>1807</ele>
        <time>2015-09-19T09:11:15Z</time>
      </trkpt>
      <trkpt lat="42.68517" lon="1.50473">
        <ele>1807</ele>
        <time>2015-09-19T09:11:29Z</time>
      </trkpt>
      <trkpt lat="42.68511" lon="1.5048">
        <ele>1809</ele>
        <time>2015-09-19T09:11:43Z</time>
      </trkpt>
      <trkpt lat="42.68506" lon="1.50478">
        <ele>1807</ele>
        <time>2015-09-19T09:11:59Z</time>
      </trkpt>
      <trkpt lat="42.68503" lon="1.50475">
        <ele>1808</ele>
        <time>2015-09-19T09:12:11Z</time>
      </trkpt>
      <trkpt lat="42.68496" lon="1.50475">
        <ele>1810</ele>
        <time>2015-09-19T09:12:27Z</time>
      </trkpt>
      <trkpt lat="42.68488" lon="1.50481">
        <ele>1811</ele>
        <time>2015-09-19T09:12:44Z</time>
      </trkpt>
      <trkpt lat="42.68487" lon="1.50481">
        <ele>1811</ele>
        <time>2015-09-19T09:12:45Z</time>
      </trkpt>
      <trkpt lat="42.68483" lon="1.50486">
        <ele>1815</ele>
        <time>2015-09-19T09:13:01Z</time>
      </trkpt>
      <trkpt lat="42.68478" lon="1.50489">
        <ele>1816</ele>
        <time>2015-09-19T09:13:16Z</time>
      </trkpt>
      <trkpt lat="42.68473" lon="1.5049">
        <ele>1818</ele>
        <time>2015-09-19T09:13:33Z</time>
      </trkpt>
      <trkpt lat="42.68468" lon="1.50491">
        <ele>1822</ele>
        <time>2015-09-19T09:13:44Z</time>
      </trkpt>
      <trkpt lat="42.68461" lon="1.50491">
        <ele>1823</ele>
        <time>2015-09-19T09:13:58Z</time>
      </trkpt>
      <trkpt lat="42.68455" lon="1.50496">
        <ele>1821</ele>
        <time>2015-09-19T09:14:11Z</time>
      </trkpt>
      <trkpt lat="42.68445" lon="1.50499">
        <ele>1823</ele>
        <time>2015-09-19T09:14:25Z</time>
      </trkpt>
      <trkpt lat="42.68437" lon="1.50507">
        <ele>1825</ele>
        <time>2015-09-19T09:14:39Z</time>
      </trkpt>
      <trkpt lat="42.68428" lon="1.50506">
        <ele>1827</ele>
        <time>2015-09-19T09:14:52Z</time>
      </trkpt>
      <trkpt lat="42.6842" lon="1.50508">
        <ele>1829</ele>
        <time>2015-09-19T09:15:05Z</time>
      </trkpt>
      <trkpt lat="42.68409" lon="1.50514">
        <ele>1832</ele>
        <time>2015-09-19T09:15:20Z</time>
      </trkpt>
      <trkpt lat="42.68396" lon="1.5052">
        <ele>1834</ele>
        <time>2015-09-19T09:15:36Z</time>
      </trkpt>
      <trkpt lat="42.6839" lon="1.50528">
        <ele>1835</ele>
        <time>2015-09-19T09:15:49Z</time>
      </trkpt>
      <trkpt lat="42.68386" lon="1.50527">
        <ele>1836</ele>
        <time>2015-09-19T09:16:02Z</time>
      </trkpt>
      <trkpt lat="42.68378" lon="1.50525">
        <ele>1838</ele>
        <time>2015-09-19T09:16:17Z</time>
      </trkpt>
      <trkpt lat="42.68374" lon="1.50521">
        <ele>1838</ele>
        <time>2015-09-19T09:16:34Z</time>
      </trkpt>
      <trkpt lat="42.68365" lon="1.50527">
        <ele>1841</ele>
        <time>2015-09-19T09:16:49Z</time>
      </trkpt>
      <trkpt lat="42.68358" lon="1.50533">
        <ele>1844</ele>
        <time>2015-09-19T09:17:04Z</time>
      </trkpt>
      <trkpt lat="42.68349" lon="1.50532">
        <ele>1846</ele>
        <time>2015-09-19T09:17:17Z</time>
      </trkpt>
      <trkpt lat="42.68343" lon="1.50532">
        <ele>1848</ele>
        <time>2015-09-19T09:17:32Z</time>
      </trkpt>
      <trkpt lat="42.68334" lon="1.50529">
        <ele>1850</ele>
        <time>2015-09-19T09:17:46Z</time>
      </trkpt>
      <trkpt lat="42.68328" lon="1.50528">
        <ele>1853</ele>
        <time>2015-09-19T09:18:02Z</time>
      </trkpt>
      <trkpt lat="42.68326" lon="1.5053">
        <ele>1855</ele>
        <time>2015-09-19T09:18:17Z</time>
      </trkpt>
      <trkpt lat="42.68324" lon="1.50535">
        <ele>1858</ele>
        <time>2015-09-19T09:18:32Z</time>
      </trkpt>
      <trkpt lat="42.68317" lon="1.50536">
        <ele>1861</ele>
        <time>2015-09-19T09:18:46Z</time>
      </trkpt>
      <trkpt lat="42.68313" lon="1.50541">
        <ele>1864</ele>
        <time>2015-09-19T09:19:02Z</time>
      </trkpt>
      <trkpt lat="42.68311" lon="1.50547">
        <ele>1867</ele>
        <time>2015-09-19T09:19:20Z</time>
      </trkpt>
      <trkpt lat="42.68313" lon="1.50548">
        <ele>1868</ele>
        <time>2015-09-19T09:19:37Z</time>
      </trkpt>
      <trkpt lat="42.68313" lon="1.50554">
        <ele>1870</ele>
        <time>2015-09-19T09:19:51Z</time>
      </trkpt>
      <trkpt lat="42.68311" lon="1.50562">
        <ele>1873</ele>
        <time>2015-09-19T09:20:09Z</time>
      </trkpt>
      <trkpt lat="42.68311" lon="1.50562">
        <ele>1876</ele>
        <time>2015-09-19T09:20:24Z</time>
      </trkpt>
      <trkpt lat="42.68313" lon="1.50564">
        <ele>1876</ele>
        <time>2015-09-19T09:20:28Z</time>
      </trkpt>
      <trkpt lat="42.68316" lon="1.50573">
        <ele>1879</ele>
        <time>2015-09-19T09:20:43Z</time>
      </trkpt>
      <trkpt lat="42.68321" lon="1.50565">
        <ele>1880</ele>
        <time>2015-09-19T09:20:54Z</time>
      </trkpt>
      <trkpt lat="42.68323" lon="1.5058">
        <ele>1882</ele>
        <time>2015-09-19T09:21:07Z</time>
      </trkpt>
      <trkpt lat="42.68328" lon="1.50583">
        <ele>1884</ele>
        <time>2015-09-19T09:21:21Z</time>
      </trkpt>
      <trkpt lat="42.68329" lon="1.50584">
        <ele>1886</ele>
        <time>2015-09-19T09:21:35Z</time>
      </trkpt>
      <trkpt lat="42.68325" lon="1.50584">
        <ele>1887</ele>
        <time>2015-09-19T09:22:00Z</time>
      </trkpt>
      <trkpt lat="42.68332" lon="1.50577">
        <ele>1890</ele>
        <time>2015-09-19T09:22:15Z</time>
      </trkpt>
      <trkpt lat="42.68329" lon="1.50583">
        <ele>1892</ele>
        <time>2015-09-19T09:22:28Z</time>
      </trkpt>
      <trkpt lat="42.68323" lon="1.50589">
        <ele>1895</ele>
        <time>2015-09-19T09:22:42Z</time>
      </trkpt>
      <trkpt lat="42.68324" lon="1.50593">
        <ele>1898</ele>
        <time>2015-09-19T09:22:58Z</time>
      </trkpt>
      <trkpt lat="42.68318" lon="1.50606">
        <ele>1901</ele>
        <time>2015-09-19T09:23:15Z</time>
      </trkpt>
      <trkpt lat="42.68317" lon="1.50608">
        <ele>1904</ele>
        <time>2015-09-19T09:23:29Z</time>
      </trkpt>
      <trkpt lat="42.68314" lon="1.50615">
        <ele>1907</ele>
        <time>2015-09-19T09:23:45Z</time>
      </trkpt>
      <trkpt lat="42.68311" lon="1.5062">
        <ele>1910</ele>
        <time>2015-09-19T09:23:59Z</time>
      </trkpt>
      <trkpt lat="42.68311" lon="1.50625">
        <ele>1914</ele>
        <time>2015-09-19T09:24:15Z</time>
      </trkpt>
      <trkpt lat="42.68311" lon="1.5063">
        <ele>1915</ele>
        <time>2015-09-19T09:24:25Z</time>
      </trkpt>
      <trkpt lat="42.68311" lon="1.50633">
        <ele>1918</ele>
        <time>2015-09-19T09:24:39Z</time>
      </trkpt>
      <trkpt lat="42.68311" lon="1.5064">
        <ele>1921</ele>
        <time>2015-09-19T09:24:53Z</time>
      </trkpt>
      <trkpt lat="42.68313" lon="1.50639">
        <ele>1922</ele>
        <time>2015-09-19T09:25:09Z</time>
      </trkpt>
      <trkpt lat="42.68314" lon="1.50649">
        <ele>1925</ele>
        <time>2015-09-19T09:25:28Z</time>
      </trkpt>
      <trkpt lat="42.68311" lon="1.50655">
        <ele>1928</ele>
        <time>2015-09-19T09:25:42Z</time>
      </trkpt>
      <trkpt lat="42.6831" lon="1.50654">
        <ele>1929</ele>
        <time>2015-09-19T09:25:48Z</time>
      </trkpt>
      <trkpt lat="42.68308" lon="1.50656">
        <ele>1932</ele>
        <time>2015-09-19T09:26:03Z</time>
      </trkpt>
      <trkpt lat="42.68309" lon="1.50657">
        <ele>1932</ele>
        <time>2015-09-19T09:26:05Z</time>
      </trkpt>
      <trkpt lat="42.68312" lon="1.5066">
        <ele>1934</ele>
        <time>2015-09-19T09:26:17Z</time>
      </trkpt>
      <trkpt lat="42.68306" lon="1.50665">
        <ele>1937</ele>
        <time>2015-09-19T09:26:34Z</time>
      </trkpt>
      <trkpt lat="42.68304" lon="1.5067">
        <ele>1940</ele>
        <time>2015-09-19T09:26:50Z</time>
      </trkpt>
      <trkpt lat="42.68305" lon="1.50666">
        <ele>1941</ele>
        <time>2015-09-19T09:27:11Z</time>
      </trkpt>
      <trkpt lat="42.68302" lon="1.50677">
        <ele>1944</ele>
        <time>2015-09-19T09:27:28Z</time>
      </trkpt>
      <trkpt lat="42.68301" lon="1.50682">
        <ele>1946</ele>
        <time>2015-09-19T09:27:46Z</time>
      </trkpt>
      <trkpt lat="42.68302" lon="1.50687">
        <ele>1949</ele>
        <time>2015-09-19T09:28:01Z</time>
      </trkpt>
      <trkpt lat="42.68294" lon="1.50688">
        <ele>1952</ele>
        <time>2015-09-19T09:28:17Z</time>
      </trkpt>
      <trkpt lat="42.68292" lon="1.50679">
        <ele>1952</ele>
        <time>2015-09-19T09:28:36Z</time>
      </trkpt>
      <trkpt lat="42.6829" lon="1.50679">
        <ele>1953</ele>
        <time>2015-09-19T09:28:57Z</time>
      </trkpt>
      <trkpt lat="42.68292" lon="1.50679">
        <ele>1953</ele>
        <time>2015-09-19T09:29:19Z</time>
      </trkpt>
      <trkpt lat="42.68292" lon="1.5068">
        <ele>1953</ele>
        <time>2015-09-19T09:29:47Z</time>
      </trkpt>
      <trkpt lat="42.68291" lon="1.50681">
        <ele>1953</ele>
        <time>2015-09-19T09:30:13Z</time>
      </trkpt>
      <trkpt lat="42.68293" lon="1.50681">
        <ele>1954</ele>
        <time>2015-09-19T09:30:38Z</time>
      </trkpt>
      <trkpt lat="42.68295" lon="1.50677">
        <ele>1954</ele>
        <time>2015-09-19T09:31:07Z</time>
      </trkpt>
      <trkpt lat="42.68292" lon="1.50683">
        <ele>1954</ele>
        <time>2015-09-19T09:31:31Z</time>
      </trkpt>
      <trkpt lat="42.68288" lon="1.50686">
        <ele>1955</ele>
        <time>2015-09-19T09:31:49Z</time>
      </trkpt>
      <trkpt lat="42.68277" lon="1.50683">
        <ele>1955</ele>
        <time>2015-09-19T09:32:05Z</time>
      </trkpt>
      <trkpt lat="42.68269" lon="1.50681">
        <ele>1957</ele>
        <time>2015-09-19T09:32:23Z</time>
      </trkpt>
      <trkpt lat="42.68259" lon="1.50674">
        <ele>1959</ele>
        <time>2015-09-19T09:32:37Z</time>
      </trkpt>
      <trkpt lat="42.68248" lon="1.50669">
        <ele>1960</ele>
        <time>2015-09-19T09:32:54Z</time>
      </trkpt>
      <trkpt lat="42.6824" lon="1.50667">
        <ele>1962</ele>
        <time>2015-09-19T09:33:09Z</time>
      </trkpt>
      <trkpt lat="42.68234" lon="1.50665">
        <ele>1963</ele>
        <time>2015-09-19T09:33:25Z</time>
      </trkpt>
      <trkpt lat="42.68225" lon="1.50656">
        <ele>1963</ele>
        <time>2015-09-19T09:33:41Z</time>
      </trkpt>
      <trkpt lat="42.68214" lon="1.50651">
        <ele>1966</ele>
        <time>2015-09-19T09:33:58Z</time>
      </trkpt>
      <trkpt lat="42.68203" lon="1.50643">
        <ele>1967</ele>
        <time>2015-09-19T09:34:15Z</time>
      </trkpt>
      <trkpt lat="42.68196" lon="1.50639">
        <ele>1967</ele>
        <time>2015-09-19T09:34:23Z</time>
      </trkpt>
      <trkpt lat="42.68186" lon="1.50636">
        <ele>1968</ele>
        <time>2015-09-19T09:34:39Z</time>
      </trkpt>
      <trkpt lat="42.68178" lon="1.5063">
        <ele>1970</ele>
        <time>2015-09-19T09:34:55Z</time>
      </trkpt>
      <trkpt lat="42.68168" lon="1.50624">
        <ele>1971</ele>
        <time>2015-09-19T09:35:10Z</time>
      </trkpt>
      <trkpt lat="42.68159" lon="1.50619">
        <ele>1973</ele>
        <time>2015-09-19T09:35:26Z</time>
      </trkpt>
      <trkpt lat="42.68149" lon="1.50612">
        <ele>1976</ele>
        <time>2015-09-19T09:35:44Z</time>
      </trkpt>
      <trkpt lat="42.68148" lon="1.50603">
        <ele>1976</ele>
        <time>2015-09-19T09:36:00Z</time>
      </trkpt>
      <trkpt lat="42.68148" lon="1.50594">
        <ele>1977</ele>
        <time>2015-09-19T09:36:11Z</time>
      </trkpt>
      <trkpt lat="42.68146" lon="1.50591">
        <ele>1977</ele>
        <time>2015-09-19T09:36:26Z</time>
      </trkpt>
      <trkpt lat="42.68149" lon="1.50588">
        <ele>1979</ele>
        <time>2015-09-19T09:36:36Z</time>
      </trkpt>
      <trkpt lat="42.68144" lon="1.50578">
        <ele>1979</ele>
        <time>2015-09-19T09:36:50Z</time>
      </trkpt>
      <trkpt lat="42.68138" lon="1.50573">
        <ele>1982</ele>
        <time>2015-09-19T09:37:04Z</time>
      </trkpt>
      <trkpt lat="42.68133" lon="1.50567">
        <ele>1984</ele>
        <time>2015-09-19T09:37:17Z</time>
      </trkpt>
      <trkpt lat="42.68124" lon="1.50566">
        <ele>1987</ele>
        <time>2015-09-19T09:37:34Z</time>
      </trkpt>
      <trkpt lat="42.68117" lon="1.50566">
        <ele>1988</ele>
        <time>2015-09-19T09:37:49Z</time>
      </trkpt>
      <trkpt lat="42.68112" lon="1.50576">
        <ele>1991</ele>
        <time>2015-09-19T09:38:03Z</time>
      </trkpt>
      <trkpt lat="42.6811" lon="1.50595">
        <ele>1992</ele>
        <time>2015-09-19T09:38:18Z</time>
      </trkpt>
      <trkpt lat="42.68102" lon="1.506">
        <ele>1993</ele>
        <time>2015-09-19T09:38:34Z</time>
      </trkpt>
      <trkpt lat="42.68101" lon="1.506">
        <ele>1993</ele>
        <time>2015-09-19T09:38:36Z</time>
      </trkpt>
      <trkpt lat="42.68095" lon="1.50599">
        <ele>1992</ele>
        <time>2015-09-19T09:38:53Z</time>
      </trkpt>
      <trkpt lat="42.68091" lon="1.50597">
        <ele>1991</ele>
        <time>2015-09-19T09:39:10Z</time>
      </trkpt>
      <trkpt lat="42.68086" lon="1.50597">
        <ele>1992</ele>
        <time>2015-09-19T09:39:24Z</time>
      </trkpt>
      <trkpt lat="42.68084" lon="1.50599">
        <ele>1994</ele>
        <time>2015-09-19T09:39:38Z</time>
      </trkpt>
      <trkpt lat="42.68078" lon="1.50607">
        <ele>1997</ele>
        <time>2015-09-19T09:39:55Z</time>
      </trkpt>
      <trkpt lat="42.68071" lon="1.50609">
        <ele>1998</ele>
        <time>2015-09-19T09:40:09Z</time>
      </trkpt>
      <trkpt lat="42.68063" lon="1.5061">
        <ele>2001</ele>
        <time>2015-09-19T09:40:27Z</time>
      </trkpt>
      <trkpt lat="42.68059" lon="1.50613">
        <ele>2003</ele>
        <time>2015-09-19T09:40:42Z</time>
      </trkpt>
      <trkpt lat="42.68053" lon="1.50617">
        <ele>2005</ele>
        <time>2015-09-19T09:41:00Z</time>
      </trkpt>
      <trkpt lat="42.68051" lon="1.50619">
        <ele>2005</ele>
        <time>2015-09-19T09:41:06Z</time>
      </trkpt>
      <trkpt lat="42.68041" lon="1.50618">
        <ele>2006</ele>
        <time>2015-09-19T09:41:18Z</time>
      </trkpt>
      <trkpt lat="42.68032" lon="1.50619">
        <ele>2007</ele>
        <time>2015-09-19T09:41:30Z</time>
      </trkpt>
      <trkpt lat="42.68021" lon="1.50622">
        <ele>2009</ele>
        <time>2015-09-19T09:41:48Z</time>
      </trkpt>
      <trkpt lat="42.68011" lon="1.50622">
        <ele>2010</ele>
        <time>2015-09-19T09:42:03Z</time>
      </trkpt>
      <trkpt lat="42.68004" lon="1.50623">
        <ele>2010</ele>
        <time>2015-09-19T09:42:17Z</time>
      </trkpt>
      <trkpt lat="42.67995" lon="1.50624">
        <ele>2011</ele>
        <time>2015-09-19T09:42:30Z</time>
      </trkpt>
      <trkpt lat="42.67985" lon="1.50628">
        <ele>2012</ele>
        <time>2015-09-19T09:42:45Z</time>
      </trkpt>
      <trkpt lat="42.67976" lon="1.50627">
        <ele>2013</ele>
        <time>2015-09-19T09:43:01Z</time>
      </trkpt>
      <trkpt lat="42.67971" lon="1.50633">
        <ele>2014</ele>
        <time>2015-09-19T09:43:15Z</time>
      </trkpt>
      <trkpt lat="42.67962" lon="1.50634">
        <ele>2016</ele>
        <time>2015-09-19T09:43:32Z</time>
      </trkpt>
      <trkpt lat="42.67955" lon="1.50632">
        <ele>2019</ele>
        <time>2015-09-19T09:43:48Z</time>
      </trkpt>
      <trkpt lat="42.67951" lon="1.50636">
        <ele>2021</ele>
        <time>2015-09-19T09:44:03Z</time>
      </trkpt>
      <trkpt lat="42.67944" lon="1.50641">
        <ele>2024</ele>
        <time>2015-09-19T09:44:20Z</time>
      </trkpt>
      <trkpt lat="42.67937" lon="1.50648">
        <ele>2026</ele>
        <time>2015-09-19T09:44:34Z</time>
      </trkpt>
      <trkpt lat="42.67933" lon="1.50657">
        <ele>2028</ele>
        <time>2015-09-19T09:44:51Z</time>
      </trkpt>
      <trkpt lat="42.67931" lon="1.50656">
        <ele>2029</ele>
        <time>2015-09-19T09:44:54Z</time>
      </trkpt>
      <trkpt lat="42.67927" lon="1.50654">
        <ele>2031</ele>
        <time>2015-09-19T09:45:07Z</time>
      </trkpt>
      <trkpt lat="42.67921" lon="1.50651">
        <ele>2033</ele>
        <time>2015-09-19T09:45:27Z</time>
      </trkpt>
      <trkpt lat="42.67921" lon="1.50642">
        <ele>2035</ele>
        <time>2015-09-19T09:45:38Z</time>
      </trkpt>
      <trkpt lat="42.67927" lon="1.50637">
        <ele>2035</ele>
        <time>2015-09-19T09:45:51Z</time>
      </trkpt>
      <trkpt lat="42.67927" lon="1.5063">
        <ele>2038</ele>
        <time>2015-09-19T09:46:04Z</time>
      </trkpt>
      <trkpt lat="42.67922" lon="1.50625">
        <ele>2040</ele>
        <time>2015-09-19T09:46:21Z</time>
      </trkpt>
      <trkpt lat="42.6792" lon="1.50623">
        <ele>2040</ele>
        <time>2015-09-19T09:46:24Z</time>
      </trkpt>
      <trkpt lat="42.67919" lon="1.50627">
        <ele>2042</ele>
        <time>2015-09-19T09:46:40Z</time>
      </trkpt>
      <trkpt lat="42.67933" lon="1.50642">
        <ele>2043</ele>
        <time>2015-09-19T09:46:55Z</time>
      </trkpt>
      <trkpt lat="42.67935" lon="1.50646">
        <ele>2045</ele>
        <time>2015-09-19T09:47:11Z</time>
      </trkpt>
      <trkpt lat="42.67931" lon="1.50646">
        <ele>2048</ele>
        <time>2015-09-19T09:47:27Z</time>
      </trkpt>
      <trkpt lat="42.67922" lon="1.50645">
        <ele>2050</ele>
        <time>2015-09-19T09:47:43Z</time>
      </trkpt>
      <trkpt lat="42.67915" lon="1.50645">
        <ele>2052</ele>
        <time>2015-09-19T09:48:00Z</time>
      </trkpt>
      <trkpt lat="42.67891" lon="1.50633">
        <ele>2055</ele>
        <time>2015-09-19T09:48:16Z</time>
      </trkpt>
      <trkpt lat="42.67884" lon="1.50632">
        <ele>2057</ele>
        <time>2015-09-19T09:48:35Z</time>
      </trkpt>
      <trkpt lat="42.67883" lon="1.50628">
        <ele>2059</ele>
        <time>2015-09-19T09:48:49Z</time>
      </trkpt>
      <trkpt lat="42.67876" lon="1.50625">
        <ele>2062</ele>
        <time>2015-09-19T09:49:03Z</time>
      </trkpt>
      <trkpt lat="42.67868" lon="1.50625">
        <ele>2064</ele>
        <time>2015-09-19T09:49:18Z</time>
      </trkpt>
      <trkpt lat="42.67861" lon="1.50628">
        <ele>2066</ele>
        <time>2015-09-19T09:49:38Z</time>
      </trkpt>
      <trkpt lat="42.67852" lon="1.50629">
        <ele>2069</ele>
        <time>2015-09-19T09:49:53Z</time>
      </trkpt>
      <trkpt lat="42.67843" lon="1.50626">
        <ele>2071</ele>
        <time>2015-09-19T09:50:10Z</time>
      </trkpt>
      <trkpt lat="42.67832" lon="1.50628">
        <ele>2072</ele>
        <time>2015-09-19T09:50:28Z</time>
      </trkpt>
      <trkpt lat="42.67824" lon="1.50621">
        <ele>2075</ele>
        <time>2015-09-19T09:50:46Z</time>
      </trkpt>
      <trkpt lat="42.67814" lon="1.50613">
        <ele>2077</ele>
        <time>2015-09-19T09:51:03Z</time>
      </trkpt>
      <trkpt lat="42.67813" lon="1.50611">
        <ele>2080</ele>
        <time>2015-09-19T09:51:20Z</time>
      </trkpt>
      <trkpt lat="42.67809" lon="1.50601">
        <ele>2081</ele>
        <time>2015-09-19T09:51:36Z</time>
      </trkpt>
      <trkpt lat="42.67814" lon="1.50601">
        <ele>2084</ele>
        <time>2015-09-19T09:51:49Z</time>
      </trkpt>
      <trkpt lat="42.67817" lon="1.50603">
        <ele>2085</ele>
        <time>2015-09-19T09:52:04Z</time>
      </trkpt>
      <trkpt lat="42.67819" lon="1.506">
        <ele>2086</ele>
        <time>2015-09-19T09:52:14Z</time>
      </trkpt>
      <trkpt lat="42.67823" lon="1.50596">
        <ele>2089</ele>
        <time>2015-09-19T09:52:28Z</time>
      </trkpt>
      <trkpt lat="42.67827" lon="1.50593">
        <ele>2088</ele>
        <time>2015-09-19T09:52:36Z</time>
      </trkpt>
      <trkpt lat="42.67829" lon="1.50586">
        <ele>2089</ele>
        <time>2015-09-19T09:52:49Z</time>
      </trkpt>
      <trkpt lat="42.67828" lon="1.50581">
        <ele>2086</ele>
        <time>2015-09-19T09:53:01Z</time>
      </trkpt>
      <trkpt lat="42.67828" lon="1.50581">
        <ele>2091</ele>
        <time>2015-09-19T09:53:02Z</time>
      </trkpt>
      <trkpt lat="42.67831" lon="1.50581">
        <ele>2089</ele>
        <time>2015-09-19T09:53:05Z</time>
      </trkpt>
      <trkpt lat="42.67835" lon="1.50576">
        <ele>2091</ele>
        <time>2015-09-19T09:53:13Z</time>
      </trkpt>
      <trkpt lat="42.67841" lon="1.50563">
        <ele>2091</ele>
        <time>2015-09-19T09:53:26Z</time>
      </trkpt>
      <trkpt lat="42.67845" lon="1.50557">
        <ele>2091</ele>
        <time>2015-09-19T09:53:34Z</time>
      </trkpt>
      <trkpt lat="42.67851" lon="1.5055">
        <ele>2093</ele>
        <time>2015-09-19T09:53:47Z</time>
      </trkpt>
      <trkpt lat="42.67852" lon="1.50552">
        <ele>2094</ele>
        <time>2015-09-19T09:54:01Z</time>
      </trkpt>
      <trkpt lat="42.67854" lon="1.5055">
        <ele>2095</ele>
        <time>2015-09-19T09:54:17Z</time>
      </trkpt>
      <trkpt lat="42.67861" lon="1.50548">
        <ele>2096</ele>
        <time>2015-09-19T09:54:32Z</time>
      </trkpt>
      <trkpt lat="42.67864" lon="1.50547">
        <ele>2099</ele>
        <time>2015-09-19T09:54:43Z</time>
      </trkpt>
      <trkpt lat="42.67877" lon="1.50545">
        <ele>2101</ele>
        <time>2015-09-19T09:55:03Z</time>
      </trkpt>
      <trkpt lat="42.67888" lon="1.50548">
        <ele>2103</ele>
        <time>2015-09-19T09:55:19Z</time>
      </trkpt>
      <trkpt lat="42.67913" lon="1.50554">
        <ele>2103</ele>
        <time>2015-09-19T09:55:47Z</time>
      </trkpt>
      <trkpt lat="42.67866" lon="1.50557">
        <ele>2103</ele>
        <time>2015-09-19T09:56:21Z</time>
      </trkpt>
      <trkpt lat="42.67876" lon="1.50544">
        <ele>2102</ele>
        <time>2015-09-19T09:56:46Z</time>
      </trkpt>
      <trkpt lat="42.67874" lon="1.50544">
        <ele>2102</ele>
        <time>2015-09-19T09:57:19Z</time>
      </trkpt>
      <trkpt lat="42.67874" lon="1.50547">
        <ele>2103</ele>
        <time>2015-09-19T09:57:41Z</time>
      </trkpt>
      <trkpt lat="42.67881" lon="1.50537">
        <ele>2103</ele>
        <time>2015-09-19T09:58:01Z</time>
      </trkpt>
      <trkpt lat="42.67884" lon="1.50527">
        <ele>2105</ele>
        <time>2015-09-19T09:58:16Z</time>
      </trkpt>
      <trkpt lat="42.67878" lon="1.50516">
        <ele>2106</ele>
        <time>2015-09-19T09:58:30Z</time>
      </trkpt>
      <trkpt lat="42.67877" lon="1.50514">
        <ele>2106</ele>
        <time>2015-09-19T09:58:33Z</time>
      </trkpt>
      <trkpt lat="42.67871" lon="1.50507">
        <ele>2107</ele>
        <time>2015-09-19T09:58:47Z</time>
      </trkpt>
      <trkpt lat="42.67862" lon="1.50504">
        <ele>2108</ele>
        <time>2015-09-19T09:58:59Z</time>
      </trkpt>
      <trkpt lat="42.6786" lon="1.50504">
        <ele>2109</ele>
        <time>2015-09-19T09:59:03Z</time>
      </trkpt>
      <trkpt lat="42.6785" lon="1.50501">
        <ele>2110</ele>
        <time>2015-09-19T09:59:18Z</time>
      </trkpt>
      <trkpt lat="42.6784" lon="1.50494">
        <ele>2112</ele>
        <time>2015-09-19T09:59:33Z</time>
      </trkpt>
      <trkpt lat="42.6783" lon="1.50489">
        <ele>2115</ele>
        <time>2015-09-19T09:59:50Z</time>
      </trkpt>
      <trkpt lat="42.67827" lon="1.50481">
        <ele>2116</ele>
        <time>2015-09-19T10:00:04Z</time>
      </trkpt>
      <trkpt lat="42.67827" lon="1.50478">
        <ele>2119</ele>
        <time>2015-09-19T10:00:12Z</time>
      </trkpt>
      <trkpt lat="42.67823" lon="1.50471">
        <ele>2118</ele>
        <time>2015-09-19T10:00:26Z</time>
      </trkpt>
      <trkpt lat="42.67818" lon="1.50466">
        <ele>2119</ele>
        <time>2015-09-19T10:00:39Z</time>
      </trkpt>
      <trkpt lat="42.67811" lon="1.50462">
        <ele>2120</ele>
        <time>2015-09-19T10:00:55Z</time>
      </trkpt>
      <trkpt lat="42.67806" lon="1.50452">
        <ele>2122</ele>
        <time>2015-09-19T10:01:09Z</time>
      </trkpt>
      <trkpt lat="42.67802" lon="1.50451">
        <ele>2125</ele>
        <time>2015-09-19T10:01:23Z</time>
      </trkpt>
      <trkpt lat="42.67801" lon="1.50445">
        <ele>2125</ele>
        <time>2015-09-19T10:01:29Z</time>
      </trkpt>
      <trkpt lat="42.67794" lon="1.50442">
        <ele>2128</ele>
        <time>2015-09-19T10:01:42Z</time>
      </trkpt>
      <trkpt lat="42.67792" lon="1.50442">
        <ele>2128</ele>
        <time>2015-09-19T10:01:45Z</time>
      </trkpt>
      <trkpt lat="42.67777" lon="1.50434">
        <ele>2130</ele>
        <time>2015-09-19T10:02:01Z</time>
      </trkpt>
      <trkpt lat="42.67773" lon="1.50431">
        <ele>2131</ele>
        <time>2015-09-19T10:02:12Z</time>
      </trkpt>
      <trkpt lat="42.67768" lon="1.50432">
        <ele>2133</ele>
        <time>2015-09-19T10:02:27Z</time>
      </trkpt>
      <trkpt lat="42.67766" lon="1.50433">
        <ele>2133</ele>
        <time>2015-09-19T10:02:33Z</time>
      </trkpt>
      <trkpt lat="42.6776" lon="1.50428">
        <ele>2135</ele>
        <time>2015-09-19T10:02:49Z</time>
      </trkpt>
      <trkpt lat="42.67755" lon="1.50424">
        <ele>2138</ele>
        <time>2015-09-19T10:03:04Z</time>
      </trkpt>
      <trkpt lat="42.6775" lon="1.50422">
        <ele>2139</ele>
        <time>2015-09-19T10:03:12Z</time>
      </trkpt>
      <trkpt lat="42.67742" lon="1.50414">
        <ele>2141</ele>
        <time>2015-09-19T10:03:29Z</time>
      </trkpt>
      <trkpt lat="42.67735" lon="1.50411">
        <ele>2142</ele>
        <time>2015-09-19T10:03:42Z</time>
      </trkpt>
      <trkpt lat="42.6773" lon="1.50404">
        <ele>2144</ele>
        <time>2015-09-19T10:03:54Z</time>
      </trkpt>
      <trkpt lat="42.67727" lon="1.504">
        <ele>2147</ele>
        <time>2015-09-19T10:04:09Z</time>
      </trkpt>
      <trkpt lat="42.67723" lon="1.50396">
        <ele>2148</ele>
        <time>2015-09-19T10:04:25Z</time>
      </trkpt>
      <trkpt lat="42.67721" lon="1.50399">
        <ele>2149</ele>
        <time>2015-09-19T10:04:37Z</time>
      </trkpt>
      <trkpt lat="42.67717" lon="1.50397">
        <ele>2149</ele>
        <time>2015-09-19T10:04:43Z</time>
      </trkpt>
      <trkpt lat="42.67715" lon="1.50398">
        <ele>2150</ele>
        <time>2015-09-19T10:04:45Z</time>
      </trkpt>
      <trkpt lat="42.67713" lon="1.50398">
        <ele>2150</ele>
        <time>2015-09-19T10:04:48Z</time>
      </trkpt>
      <trkpt lat="42.67705" lon="1.50389">
        <ele>2151</ele>
        <time>2015-09-19T10:05:04Z</time>
      </trkpt>
      <trkpt lat="42.67701" lon="1.5039">
        <ele>2153</ele>
        <time>2015-09-19T10:05:17Z</time>
      </trkpt>
      <trkpt lat="42.67697" lon="1.50395">
        <ele>2153</ele>
        <time>2015-09-19T10:05:31Z</time>
      </trkpt>
      <trkpt lat="42.6769" lon="1.50396">
        <ele>2155</ele>
        <time>2015-09-19T10:05:47Z</time>
      </trkpt>
      <trkpt lat="42.67688" lon="1.50398">
        <ele>2157</ele>
        <time>2015-09-19T10:06:01Z</time>
      </trkpt>
      <trkpt lat="42.67682" lon="1.50398">
        <ele>2157</ele>
        <time>2015-09-19T10:06:13Z</time>
      </trkpt>
      <trkpt lat="42.67678" lon="1.50399">
        <ele>2159</ele>
        <time>2015-09-19T10:06:24Z</time>
      </trkpt>
      <trkpt lat="42.67675" lon="1.50402">
        <ele>2161</ele>
        <time>2015-09-19T10:06:38Z</time>
      </trkpt>
      <trkpt lat="42.67675" lon="1.50405">
        <ele>2160</ele>
        <time>2015-09-19T10:07:01Z</time>
      </trkpt>
      <trkpt lat="42.67672" lon="1.504">
        <ele>2160</ele>
        <time>2015-09-19T10:07:17Z</time>
      </trkpt>
      <trkpt lat="42.67673" lon="1.50406">
        <ele>2162</ele>
        <time>2015-09-19T10:07:30Z</time>
      </trkpt>
      <trkpt lat="42.67669" lon="1.50406">
        <ele>2163</ele>
        <time>2015-09-19T10:07:45Z</time>
      </trkpt>
      <trkpt lat="42.67664" lon="1.50407">
        <ele>2163</ele>
        <time>2015-09-19T10:07:59Z</time>
      </trkpt>
      <trkpt lat="42.67657" lon="1.50406">
        <ele>2165</ele>
        <time>2015-09-19T10:08:13Z</time>
      </trkpt>
      <trkpt lat="42.67652" lon="1.50407">
        <ele>2166</ele>
        <time>2015-09-19T10:08:23Z</time>
      </trkpt>
      <trkpt lat="42.67646" lon="1.50402">
        <ele>2168</ele>
        <time>2015-09-19T10:08:37Z</time>
      </trkpt>
      <trkpt lat="42.67641" lon="1.50401">
        <ele>2170</ele>
        <time>2015-09-19T10:08:50Z</time>
      </trkpt>
      <trkpt lat="42.67636" lon="1.50398">
        <ele>2173</ele>
        <time>2015-09-19T10:09:04Z</time>
      </trkpt>
      <trkpt lat="42.67631" lon="1.50397">
        <ele>2173</ele>
        <time>2015-09-19T10:09:14Z</time>
      </trkpt>
      <trkpt lat="42.67624" lon="1.5039">
        <ele>2175</ele>
        <time>2015-09-19T10:09:27Z</time>
      </trkpt>
      <trkpt lat="42.67622" lon="1.50389">
        <ele>2177</ele>
        <time>2015-09-19T10:09:38Z</time>
      </trkpt>
      <trkpt lat="42.67617" lon="1.50393">
        <ele>2178</ele>
        <time>2015-09-19T10:09:49Z</time>
      </trkpt>
      <trkpt lat="42.67615" lon="1.50395">
        <ele>2178</ele>
        <time>2015-09-19T10:09:52Z</time>
      </trkpt>
      <trkpt lat="42.67608" lon="1.50391">
        <ele>2180</ele>
        <time>2015-09-19T10:10:06Z</time>
      </trkpt>
      <trkpt lat="42.67606" lon="1.50392">
        <ele>2181</ele>
        <time>2015-09-19T10:10:15Z</time>
      </trkpt>
      <trkpt lat="42.67604" lon="1.50391">
        <ele>2182</ele>
        <time>2015-09-19T10:10:17Z</time>
      </trkpt>
      <trkpt lat="42.67598" lon="1.50381">
        <ele>2183</ele>
        <time>2015-09-19T10:10:31Z</time>
      </trkpt>
      <trkpt lat="42.67593" lon="1.50381">
        <ele>2184</ele>
        <time>2015-09-19T10:10:40Z</time>
      </trkpt>
      <trkpt lat="42.67584" lon="1.50378">
        <ele>2186</ele>
        <time>2015-09-19T10:10:54Z</time>
      </trkpt>
      <trkpt lat="42.67577" lon="1.50377">
        <ele>2188</ele>
        <time>2015-09-19T10:11:08Z</time>
      </trkpt>
      <trkpt lat="42.67575" lon="1.50369">
        <ele>2189</ele>
        <time>2015-09-19T10:11:21Z</time>
      </trkpt>
      <trkpt lat="42.67574" lon="1.50368">
        <ele>2191</ele>
        <time>2015-09-19T10:11:36Z</time>
      </trkpt>
      <trkpt lat="42.67567" lon="1.50368">
        <ele>2193</ele>
        <time>2015-09-19T10:11:51Z</time>
      </trkpt>
      <trkpt lat="42.67565" lon="1.50362">
        <ele>2196</ele>
        <time>2015-09-19T10:12:03Z</time>
      </trkpt>
      <trkpt lat="42.67562" lon="1.50363">
        <ele>2197</ele>
        <time>2015-09-19T10:12:18Z</time>
      </trkpt>
      <trkpt lat="42.67553" lon="1.50361">
        <ele>2200</ele>
        <time>2015-09-19T10:12:31Z</time>
      </trkpt>
      <trkpt lat="42.67551" lon="1.50358">
        <ele>2203</ele>
        <time>2015-09-19T10:12:45Z</time>
      </trkpt>
      <trkpt lat="42.67546" lon="1.50355">
        <ele>2205</ele>
        <time>2015-09-19T10:12:57Z</time>
      </trkpt>
      <trkpt lat="42.67541" lon="1.50359">
        <ele>2207</ele>
        <time>2015-09-19T10:13:10Z</time>
      </trkpt>
      <trkpt lat="42.67538" lon="1.50363">
        <ele>2209</ele>
        <time>2015-09-19T10:13:22Z</time>
      </trkpt>
      <trkpt lat="42.67534" lon="1.50365">
        <ele>2211</ele>
        <time>2015-09-19T10:13:35Z</time>
      </trkpt>
      <trkpt lat="42.67529" lon="1.50369">
        <ele>2214</ele>
        <time>2015-09-19T10:13:48Z</time>
      </trkpt>
      <trkpt lat="42.67524" lon="1.50369">
        <ele>2215</ele>
        <time>2015-09-19T10:14:02Z</time>
      </trkpt>
      <trkpt lat="42.67519" lon="1.50373">
        <ele>2219</ele>
        <time>2015-09-19T10:14:16Z</time>
      </trkpt>
      <trkpt lat="42.67516" lon="1.5038">
        <ele>2221</ele>
        <time>2015-09-19T10:14:30Z</time>
      </trkpt>
      <trkpt lat="42.67513" lon="1.50388">
        <ele>2223</ele>
        <time>2015-09-19T10:14:42Z</time>
      </trkpt>
      <trkpt lat="42.67507" lon="1.50393">
        <ele>2223</ele>
        <time>2015-09-19T10:14:54Z</time>
      </trkpt>
      <trkpt lat="42.67502" lon="1.50399">
        <ele>2226</ele>
        <time>2015-09-19T10:15:10Z</time>
      </trkpt>
      <trkpt lat="42.67494" lon="1.50406">
        <ele>2228</ele>
        <time>2015-09-19T10:15:26Z</time>
      </trkpt>
      <trkpt lat="42.6749" lon="1.50407">
        <ele>2230</ele>
        <time>2015-09-19T10:15:39Z</time>
      </trkpt>
      <trkpt lat="42.67487" lon="1.50411">
        <ele>2233</ele>
        <time>2015-09-19T10:15:52Z</time>
      </trkpt>
      <trkpt lat="42.67484" lon="1.50416">
        <ele>2234</ele>
        <time>2015-09-19T10:16:03Z</time>
      </trkpt>
      <trkpt lat="42.67481" lon="1.5042">
        <ele>2235</ele>
        <time>2015-09-19T10:16:11Z</time>
      </trkpt>
      <trkpt lat="42.67476" lon="1.50425">
        <ele>2237</ele>
        <time>2015-09-19T10:16:26Z</time>
      </trkpt>
      <trkpt lat="42.67475" lon="1.50428">
        <ele>2239</ele>
        <time>2015-09-19T10:16:41Z</time>
      </trkpt>
      <trkpt lat="42.67471" lon="1.50432">
        <ele>2240</ele>
        <time>2015-09-19T10:16:55Z</time>
      </trkpt>
      <trkpt lat="42.67468" lon="1.50437">
        <ele>2242</ele>
        <time>2015-09-19T10:17:12Z</time>
      </trkpt>
      <trkpt lat="42.67467" lon="1.50439">
        <ele>2243</ele>
        <time>2015-09-19T10:17:31Z</time>
      </trkpt>
      <trkpt lat="42.67462" lon="1.50446">
        <ele>2244</ele>
        <time>2015-09-19T10:17:46Z</time>
      </trkpt>
      <trkpt lat="42.67461" lon="1.50447">
        <ele>2245</ele>
        <time>2015-09-19T10:17:59Z</time>
      </trkpt>
      <trkpt lat="42.6746" lon="1.5045">
        <ele>2245</ele>
        <time>2015-09-19T10:18:11Z</time>
      </trkpt>
      <trkpt lat="42.67454" lon="1.5046">
        <ele>2246</ele>
        <time>2015-09-19T10:18:24Z</time>
      </trkpt>
      <trkpt lat="42.67449" lon="1.50469">
        <ele>2248</ele>
        <time>2015-09-19T10:18:36Z</time>
      </trkpt>
      <trkpt lat="42.67445" lon="1.5048">
        <ele>2250</ele>
        <time>2015-09-19T10:18:53Z</time>
      </trkpt>
      <trkpt lat="42.67444" lon="1.50491">
        <ele>2249</ele>
        <time>2015-09-19T10:19:06Z</time>
      </trkpt>
      <trkpt lat="42.67442" lon="1.50502">
        <ele>2251</ele>
        <time>2015-09-19T10:19:22Z</time>
      </trkpt>
      <trkpt lat="42.67437" lon="1.50506">
        <ele>2253</ele>
        <time>2015-09-19T10:19:37Z</time>
      </trkpt>
      <trkpt lat="42.67436" lon="1.50511">
        <ele>2256</ele>
        <time>2015-09-19T10:19:50Z</time>
      </trkpt>
      <trkpt lat="42.67432" lon="1.50517">
        <ele>2257</ele>
        <time>2015-09-19T10:20:03Z</time>
      </trkpt>
      <trkpt lat="42.6743" lon="1.50524">
        <ele>2259</ele>
        <time>2015-09-19T10:20:13Z</time>
      </trkpt>
      <trkpt lat="42.67425" lon="1.50528">
        <ele>2260</ele>
        <time>2015-09-19T10:20:25Z</time>
      </trkpt>
      <trkpt lat="42.67425" lon="1.50535">
        <ele>2261</ele>
        <time>2015-09-19T10:20:36Z</time>
      </trkpt>
      <trkpt lat="42.67425" lon="1.50543">
        <ele>2261</ele>
        <time>2015-09-19T10:20:50Z</time>
      </trkpt>
      <trkpt lat="42.67421" lon="1.50548">
        <ele>2264</ele>
        <time>2015-09-19T10:21:04Z</time>
      </trkpt>
      <trkpt lat="42.67418" lon="1.50557">
        <ele>2265</ele>
        <time>2015-09-19T10:21:15Z</time>
      </trkpt>
      <trkpt lat="42.67412" lon="1.50562">
        <ele>2267</ele>
        <time>2015-09-19T10:21:29Z</time>
      </trkpt>
      <trkpt lat="42.67405" lon="1.50566">
        <ele>2269</ele>
        <time>2015-09-19T10:21:41Z</time>
      </trkpt>
      <trkpt lat="42.67397" lon="1.50571">
        <ele>2270</ele>
        <time>2015-09-19T10:21:55Z</time>
      </trkpt>
      <trkpt lat="42.67392" lon="1.50575">
        <ele>2272</ele>
        <time>2015-09-19T10:22:08Z</time>
      </trkpt>
      <trkpt lat="42.67388" lon="1.50582">
        <ele>2274</ele>
        <time>2015-09-19T10:22:22Z</time>
      </trkpt>
      <trkpt lat="42.67382" lon="1.50589">
        <ele>2276</ele>
        <time>2015-09-19T10:22:36Z</time>
      </trkpt>
      <trkpt lat="42.67377" lon="1.50596">
        <ele>2278</ele>
        <time>2015-09-19T10:22:51Z</time>
      </trkpt>
      <trkpt lat="42.67369" lon="1.50601">
        <ele>2280</ele>
        <time>2015-09-19T10:23:08Z</time>
      </trkpt>
      <trkpt lat="42.67365" lon="1.50605">
        <ele>2281</ele>
        <time>2015-09-19T10:23:15Z</time>
      </trkpt>
      <trkpt lat="42.67355" lon="1.50612">
        <ele>2281</ele>
        <time>2015-09-19T10:23:29Z</time>
      </trkpt>
      <trkpt lat="42.67351" lon="1.50617">
        <ele>2281</ele>
        <time>2015-09-19T10:23:40Z</time>
      </trkpt>
      <trkpt lat="42.67348" lon="1.50619">
        <ele>2281</ele>
        <time>2015-09-19T10:23:44Z</time>
      </trkpt>
      <trkpt lat="42.67345" lon="1.50623">
        <ele>2280</ele>
        <time>2015-09-19T10:23:57Z</time>
      </trkpt>
      <trkpt lat="42.67345" lon="1.50624">
        <ele>2280</ele>
        <time>2015-09-19T10:23:58Z</time>
      </trkpt>
      <trkpt lat="42.67336" lon="1.50636">
        <ele>2281</ele>
        <time>2015-09-19T10:24:12Z</time>
      </trkpt>
      <trkpt lat="42.67328" lon="1.5064">
        <ele>2281</ele>
        <time>2015-09-19T10:24:24Z</time>
      </trkpt>
      <trkpt lat="42.67328" lon="1.5064">
        <ele>2281</ele>
        <time>2015-09-19T10:24:25Z</time>
      </trkpt>
      <trkpt lat="42.67323" lon="1.50643">
        <ele>2281</ele>
        <time>2015-09-19T10:24:32Z</time>
      </trkpt>
      <trkpt lat="42.67311" lon="1.50645">
        <ele>2281</ele>
        <time>2015-09-19T10:24:48Z</time>
      </trkpt>
      <trkpt lat="42.67302" lon="1.50653">
        <ele>2282</ele>
        <time>2015-09-19T10:25:03Z</time>
      </trkpt>
      <trkpt lat="42.67294" lon="1.50655">
        <ele>2284</ele>
        <time>2015-09-19T10:25:16Z</time>
      </trkpt>
      <trkpt lat="42.67284" lon="1.50659">
        <ele>2285</ele>
        <time>2015-09-19T10:25:29Z</time>
      </trkpt>
      <trkpt lat="42.67281" lon="1.50661">
        <ele>2286</ele>
        <time>2015-09-19T10:25:42Z</time>
      </trkpt>
      <trkpt lat="42.67274" lon="1.50655">
        <ele>2289</ele>
        <time>2015-09-19T10:25:58Z</time>
      </trkpt>
      <trkpt lat="42.67272" lon="1.50657">
        <ele>2288</ele>
        <time>2015-09-19T10:26:02Z</time>
      </trkpt>
      <trkpt lat="42.67266" lon="1.50666">
        <ele>2289</ele>
        <time>2015-09-19T10:26:14Z</time>
      </trkpt>
      <trkpt lat="42.67258" lon="1.50666">
        <ele>2291</ele>
        <time>2015-09-19T10:26:25Z</time>
      </trkpt>
      <trkpt lat="42.67257" lon="1.50667">
        <ele>2291</ele>
        <time>2015-09-19T10:26:26Z</time>
      </trkpt>
      <trkpt lat="42.67253" lon="1.50666">
        <ele>2291</ele>
        <time>2015-09-19T10:26:33Z</time>
      </trkpt>
      <trkpt lat="42.67251" lon="1.50666">
        <ele>2291</ele>
        <time>2015-09-19T10:26:35Z</time>
      </trkpt>
      <trkpt lat="42.67248" lon="1.50665">
        <ele>2291</ele>
        <time>2015-09-19T10:26:39Z</time>
      </trkpt>
      <trkpt lat="42.67239" lon="1.50658">
        <ele>2293</ele>
        <time>2015-09-19T10:26:54Z</time>
      </trkpt>
      <trkpt lat="42.67229" lon="1.50651">
        <ele>2294</ele>
        <time>2015-09-19T10:27:09Z</time>
      </trkpt>
      <trkpt lat="42.67221" lon="1.50651">
        <ele>2294</ele>
        <time>2015-09-19T10:27:24Z</time>
      </trkpt>
      <trkpt lat="42.67216" lon="1.50651">
        <ele>2295</ele>
        <time>2015-09-19T10:27:36Z</time>
      </trkpt>
      <trkpt lat="42.67215" lon="1.50651">
        <ele>2296</ele>
        <time>2015-09-19T10:27:40Z</time>
      </trkpt>
      <trkpt lat="42.6721" lon="1.50656">
        <ele>2297</ele>
        <time>2015-09-19T10:27:48Z</time>
      </trkpt>
      <trkpt lat="42.67207" lon="1.50651">
        <ele>2298</ele>
        <time>2015-09-19T10:28:00Z</time>
      </trkpt>
      <trkpt lat="42.67203" lon="1.50655">
        <ele>2299</ele>
        <time>2015-09-19T10:28:16Z</time>
      </trkpt>
      <trkpt lat="42.672" lon="1.5066">
        <ele>2298</ele>
        <time>2015-09-19T10:28:20Z</time>
      </trkpt>
      <trkpt lat="42.67197" lon="1.50662">
        <ele>2298</ele>
        <time>2015-09-19T10:28:23Z</time>
      </trkpt>
      <trkpt lat="42.67194" lon="1.5066">
        <ele>2298</ele>
        <time>2015-09-19T10:28:28Z</time>
      </trkpt>
      <trkpt lat="42.67186" lon="1.50657">
        <ele>2296</ele>
        <time>2015-09-19T10:28:40Z</time>
      </trkpt>
      <trkpt lat="42.67176" lon="1.50645">
        <ele>2296</ele>
        <time>2015-09-19T10:28:53Z</time>
      </trkpt>
      <trkpt lat="42.67165" lon="1.50637">
        <ele>2294</ele>
        <time>2015-09-19T10:29:07Z</time>
      </trkpt>
      <trkpt lat="42.67157" lon="1.50634">
        <ele>2294</ele>
        <time>2015-09-19T10:29:18Z</time>
      </trkpt>
      <trkpt lat="42.67148" lon="1.5063">
        <ele>2295</ele>
        <time>2015-09-19T10:29:31Z</time>
      </trkpt>
      <trkpt lat="42.67138" lon="1.50622">
        <ele>2296</ele>
        <time>2015-09-19T10:29:46Z</time>
      </trkpt>
      <trkpt lat="42.67129" lon="1.50613">
        <ele>2297</ele>
        <time>2015-09-19T10:29:59Z</time>
      </trkpt>
      <trkpt lat="42.6712" lon="1.50616">
        <ele>2296</ele>
        <time>2015-09-19T10:30:14Z</time>
      </trkpt>
      <trkpt lat="42.67111" lon="1.50623">
        <ele>2295</ele>
        <time>2015-09-19T10:30:27Z</time>
      </trkpt>
      <trkpt lat="42.6711" lon="1.50626">
        <ele>2295</ele>
        <time>2015-09-19T10:30:30Z</time>
      </trkpt>
      <trkpt lat="42.67103" lon="1.50626">
        <ele>2295</ele>
        <time>2015-09-19T10:30:42Z</time>
      </trkpt>
      <trkpt lat="42.671" lon="1.5063">
        <ele>2297</ele>
        <time>2015-09-19T10:30:53Z</time>
      </trkpt>
      <trkpt lat="42.67102" lon="1.50634">
        <ele>2297</ele>
        <time>2015-09-19T10:31:08Z</time>
      </trkpt>
      <trkpt lat="42.67102" lon="1.50635">
        <ele>2298</ele>
        <time>2015-09-19T10:31:24Z</time>
      </trkpt>
      <trkpt lat="42.67103" lon="1.50635">
        <ele>2298</ele>
        <time>2015-09-19T10:31:40Z</time>
      </trkpt>
      <trkpt lat="42.67103" lon="1.50632">
        <ele>2297</ele>
        <time>2015-09-19T10:31:58Z</time>
      </trkpt>
      <trkpt lat="42.67098" lon="1.50629">
        <ele>2297</ele>
        <time>2015-09-19T10:32:12Z</time>
      </trkpt>
      <trkpt lat="42.67098" lon="1.50626">
        <ele>2297</ele>
        <time>2015-09-19T10:32:35Z</time>
      </trkpt>
      <trkpt lat="42.67096" lon="1.50625">
        <ele>2297</ele>
        <time>2015-09-19T10:32:52Z</time>
      </trkpt>
      <trkpt lat="42.67093" lon="1.50614">
        <ele>2297</ele>
        <time>2015-09-19T10:33:25Z</time>
      </trkpt>
      <trkpt lat="42.67083" lon="1.50614">
        <ele>2297</ele>
        <time>2015-09-19T10:33:39Z</time>
      </trkpt>
      <trkpt lat="42.67095" lon="1.5063">
        <ele>2296</ele>
        <time>2015-09-19T10:33:55Z</time>
      </trkpt>
      <trkpt lat="42.67096" lon="1.50634">
        <ele>2295</ele>
        <time>2015-09-19T10:34:10Z</time>
      </trkpt>
      <trkpt lat="42.67092" lon="1.50627">
        <ele>2295</ele>
        <time>2015-09-19T10:34:28Z</time>
      </trkpt>
      <trkpt lat="42.67096" lon="1.50632">
        <ele>2294</ele>
        <time>2015-09-19T10:34:47Z</time>
      </trkpt>
      <trkpt lat="42.67092" lon="1.50635">
        <ele>2295</ele>
        <time>2015-09-19T10:35:01Z</time>
      </trkpt>
      <trkpt lat="42.67095" lon="1.50633">
        <ele>2293</ele>
        <time>2015-09-19T10:35:24Z</time>
      </trkpt>
      <trkpt lat="42.67098" lon="1.50631">
        <ele>2293</ele>
        <time>2015-09-19T10:35:54Z</time>
      </trkpt>
      <trkpt lat="42.67098" lon="1.50633">
        <ele>2294</ele>
        <time>2015-09-19T10:36:29Z</time>
      </trkpt>
      <trkpt lat="42.67097" lon="1.50632">
        <ele>2294</ele>
        <time>2015-09-19T10:37:14Z</time>
      </trkpt>
      <trkpt lat="42.67095" lon="1.50632">
        <ele>2294</ele>
        <time>2015-09-19T10:37:59Z</time>
      </trkpt>
      <trkpt lat="42.67096" lon="1.50633">
        <ele>2294</ele>
        <time>2015-09-19T10:38:43Z</time>
      </trkpt>
      <trkpt lat="42.67095" lon="1.50633">
        <ele>2294</ele>
        <time>2015-09-19T10:39:18Z</time>
      </trkpt>
      <trkpt lat="42.67095" lon="1.50634">
        <ele>2294</ele>
        <time>2015-09-19T10:40:04Z</time>
      </trkpt>
      <trkpt lat="42.67095" lon="1.50633">
        <ele>2294</ele>
        <time>2015-09-19T10:40:41Z</time>
      </trkpt>
      <trkpt lat="42.67095" lon="1.5063">
        <ele>2294</ele>
        <time>2015-09-19T10:41:15Z</time>
      </trkpt>
      <trkpt lat="42.67096" lon="1.50631">
        <ele>2295</ele>
        <time>2015-09-19T10:41:55Z</time>
      </trkpt>
      <trkpt lat="42.67095" lon="1.50632">
        <ele>2295</ele>
        <time>2015-09-19T10:42:38Z</time>
      </trkpt>
      <trkpt lat="42.67094" lon="1.50631">
        <ele>2295</ele>
        <time>2015-09-19T10:43:11Z</time>
      </trkpt>
      <trkpt lat="42.67096" lon="1.50632">
        <ele>2295</ele>
        <time>2015-09-19T10:43:51Z</time>
      </trkpt>
      <trkpt lat="42.67096" lon="1.50633">
        <ele>2295</ele>
        <time>2015-09-19T10:44:21Z</time>
      </trkpt>
      <trkpt lat="42.67096" lon="1.50635">
        <ele>2295</ele>
        <time>2015-09-19T10:44:51Z</time>
      </trkpt>
      <trkpt lat="42.67097" lon="1.50633">
        <ele>2295</ele>
        <time>2015-09-19T10:45:23Z</time>
      </trkpt>
      <trkpt lat="42.67096" lon="1.50633">
        <ele>2296</ele>
        <time>2015-09-19T10:46:00Z</time>
      </trkpt>
      <trkpt lat="42.67097" lon="1.50632">
        <ele>2296</ele>
        <time>2015-09-19T10:46:26Z</time>
      </trkpt>
      <trkpt lat="42.67103" lon="1.50631">
        <ele>2296</ele>
        <time>2015-09-19T10:46:53Z</time>
      </trkpt>
      <trkpt lat="42.67106" lon="1.5063">
        <ele>2296</ele>
        <time>2015-09-19T10:47:25Z</time>
      </trkpt>
      <trkpt lat="42.67099" lon="1.50631">
        <ele>2296</ele>
        <time>2015-09-19T10:47:58Z</time>
      </trkpt>
      <trkpt lat="42.67094" lon="1.50635">
        <ele>2296</ele>
        <time>2015-09-19T10:48:21Z</time>
      </trkpt>
      <trkpt lat="42.67098" lon="1.50633">
        <ele>2296</ele>
        <time>2015-09-19T10:48:54Z</time>
      </trkpt>
      <trkpt lat="42.67104" lon="1.50632">
        <ele>2296</ele>
        <time>2015-09-19T10:49:27Z</time>
      </trkpt>
      <trkpt lat="42.67107" lon="1.5063">
        <ele>2296</ele>
        <time>2015-09-19T10:49:57Z</time>
      </trkpt>
      <trkpt lat="42.67109" lon="1.5063">
        <ele>2296</ele>
        <time>2015-09-19T10:50:35Z</time>
      </trkpt>
      <trkpt lat="42.67105" lon="1.50633">
        <ele>2296</ele>
        <time>2015-09-19T10:51:09Z</time>
      </trkpt>
      <trkpt lat="42.671" lon="1.5063">
        <ele>2296</ele>
        <time>2015-09-19T10:51:36Z</time>
      </trkpt>
      <trkpt lat="42.67095" lon="1.50639">
        <ele>2296</ele>
        <time>2015-09-19T10:52:05Z</time>
      </trkpt>
      <trkpt lat="42.67094" lon="1.50634">
        <ele>2296</ele>
        <time>2015-09-19T10:52:25Z</time>
      </trkpt>
      <trkpt lat="42.67091" lon="1.50631">
        <ele>2297</ele>
        <time>2015-09-19T10:52:54Z</time>
      </trkpt>
      <trkpt lat="42.67093" lon="1.50631">
        <ele>2297</ele>
        <time>2015-09-19T10:53:33Z</time>
      </trkpt>
      <trkpt lat="42.67095" lon="1.50631">
        <ele>2297</ele>
        <time>2015-09-19T10:53:56Z</time>
      </trkpt>
      <trkpt lat="42.67093" lon="1.50632">
        <ele>2297</ele>
        <time>2015-09-19T10:54:35Z</time>
      </trkpt>
      <trkpt lat="42.67093" lon="1.50632">
        <ele>2297</ele>
        <time>2015-09-19T10:55:12Z</time>
      </trkpt>
      <trkpt lat="42.67094" lon="1.50635">
        <ele>2298</ele>
        <time>2015-09-19T10:55:45Z</time>
      </trkpt>
      <trkpt lat="42.67094" lon="1.50633">
        <ele>2298</ele>
        <time>2015-09-19T10:56:18Z</time>
      </trkpt>
      <trkpt lat="42.67092" lon="1.50628">
        <ele>2298</ele>
        <time>2015-09-19T10:56:57Z</time>
      </trkpt>
      <trkpt lat="42.67094" lon="1.50633">
        <ele>2298</ele>
        <time>2015-09-19T10:57:29Z</time>
      </trkpt>
      <trkpt lat="42.67095" lon="1.50633">
        <ele>2298</ele>
        <time>2015-09-19T10:57:40Z</time>
      </trkpt>
      <trkpt lat="42.67093" lon="1.50632">
        <ele>2299</ele>
        <time>2015-09-19T10:57:51Z</time>
      </trkpt>
      <trkpt lat="42.67091" lon="1.5063">
        <ele>2299</ele>
        <time>2015-09-19T10:58:08Z</time>
      </trkpt>
      <trkpt lat="42.67092" lon="1.50627">
        <ele>2299</ele>
        <time>2015-09-19T10:58:31Z</time>
      </trkpt>
      <trkpt lat="42.67095" lon="1.5063">
        <ele>2299</ele>
        <time>2015-09-19T10:58:59Z</time>
      </trkpt>
      <trkpt lat="42.6709" lon="1.50626">
        <ele>2300</ele>
        <time>2015-09-19T10:59:25Z</time>
      </trkpt>
      <trkpt lat="42.67092" lon="1.50628">
        <ele>2299</ele>
        <time>2015-09-19T10:59:45Z</time>
      </trkpt>
      <trkpt lat="42.67101" lon="1.50626">
        <ele>2301</ele>
        <time>2015-09-19T11:00:04Z</time>
      </trkpt>
      <trkpt lat="42.67108" lon="1.50621">
        <ele>2299</ele>
        <time>2015-09-19T11:00:16Z</time>
      </trkpt>
      <trkpt lat="42.6712" lon="1.50613">
        <ele>2299</ele>
        <time>2015-09-19T11:00:30Z</time>
      </trkpt>
      <trkpt lat="42.67126" lon="1.50613">
        <ele>2300</ele>
        <time>2015-09-19T11:00:37Z</time>
      </trkpt>
      <trkpt lat="42.6713" lon="1.50615">
        <ele>2300</ele>
        <time>2015-09-19T11:00:41Z</time>
      </trkpt>
      <trkpt lat="42.67133" lon="1.50617">
        <ele>2300</ele>
        <time>2015-09-19T11:00:45Z</time>
      </trkpt>
      <trkpt lat="42.67139" lon="1.50618">
        <ele>2300</ele>
        <time>2015-09-19T11:00:53Z</time>
      </trkpt>
      <trkpt lat="42.67148" lon="1.50625">
        <ele>2299</ele>
        <time>2015-09-19T11:01:02Z</time>
      </trkpt>
      <trkpt lat="42.6715" lon="1.50628">
        <ele>2298</ele>
        <time>2015-09-19T11:01:06Z</time>
      </trkpt>
      <trkpt lat="42.67164" lon="1.50634">
        <ele>2298</ele>
        <time>2015-09-19T11:01:17Z</time>
      </trkpt>
      <trkpt lat="42.67172" lon="1.50639">
        <ele>2299</ele>
        <time>2015-09-19T11:01:25Z</time>
      </trkpt>
      <trkpt lat="42.67179" lon="1.50647">
        <ele>2301</ele>
        <time>2015-09-19T11:01:36Z</time>
      </trkpt>
      <trkpt lat="42.6718" lon="1.50646">
        <ele>2301</ele>
        <time>2015-09-19T11:01:37Z</time>
      </trkpt>
      <trkpt lat="42.67186" lon="1.5065">
        <ele>2299</ele>
        <time>2015-09-19T11:01:42Z</time>
      </trkpt>
      <trkpt lat="42.67188" lon="1.50654">
        <ele>2298</ele>
        <time>2015-09-19T11:01:45Z</time>
      </trkpt>
      <trkpt lat="42.67188" lon="1.50666">
        <ele>2295</ele>
        <time>2015-09-19T11:01:55Z</time>
      </trkpt>
      <trkpt lat="42.67186" lon="1.50667">
        <ele>2294</ele>
        <time>2015-09-19T11:02:00Z</time>
      </trkpt>
      <trkpt lat="42.67193" lon="1.50684">
        <ele>2292</ele>
        <time>2015-09-19T11:02:12Z</time>
      </trkpt>
      <trkpt lat="42.67191" lon="1.50693">
        <ele>2292</ele>
        <time>2015-09-19T11:02:23Z</time>
      </trkpt>
      <trkpt lat="42.67191" lon="1.50695">
        <ele>2293</ele>
        <time>2015-09-19T11:02:25Z</time>
      </trkpt>
      <trkpt lat="42.67187" lon="1.50707">
        <ele>2293</ele>
        <time>2015-09-19T11:02:34Z</time>
      </trkpt>
      <trkpt lat="42.6719" lon="1.50723">
        <ele>2293</ele>
        <time>2015-09-19T11:02:47Z</time>
      </trkpt>
      <trkpt lat="42.67186" lon="1.50727">
        <ele>2295</ele>
        <time>2015-09-19T11:03:01Z</time>
      </trkpt>
      <trkpt lat="42.67179" lon="1.5073">
        <ele>2297</ele>
        <time>2015-09-19T11:03:14Z</time>
      </trkpt>
      <trkpt lat="42.67172" lon="1.50734">
        <ele>2298</ele>
        <time>2015-09-19T11:03:26Z</time>
      </trkpt>
      <trkpt lat="42.6717" lon="1.50735">
        <ele>2298</ele>
        <time>2015-09-19T11:03:28Z</time>
      </trkpt>
      <trkpt lat="42.67163" lon="1.50736">
        <ele>2300</ele>
        <time>2015-09-19T11:03:42Z</time>
      </trkpt>
      <trkpt lat="42.67157" lon="1.50739">
        <ele>2302</ele>
        <time>2015-09-19T11:03:56Z</time>
      </trkpt>
      <trkpt lat="42.67153" lon="1.50747">
        <ele>2305</ele>
        <time>2015-09-19T11:04:09Z</time>
      </trkpt>
      <trkpt lat="42.6715" lon="1.50753">
        <ele>2307</ele>
        <time>2015-09-19T11:04:23Z</time>
      </trkpt>
      <trkpt lat="42.67149" lon="1.50753">
        <ele>2307</ele>
        <time>2015-09-19T11:04:24Z</time>
      </trkpt>
      <trkpt lat="42.67144" lon="1.50764">
        <ele>2309</ele>
        <time>2015-09-19T11:04:38Z</time>
      </trkpt>
      <trkpt lat="42.6714" lon="1.50763">
        <ele>2309</ele>
        <time>2015-09-19T11:04:51Z</time>
      </trkpt>
      <trkpt lat="42.67142" lon="1.50766">
        <ele>2310</ele>
        <time>2015-09-19T11:04:57Z</time>
      </trkpt>
      <trkpt lat="42.67145" lon="1.50773">
        <ele>2311</ele>
        <time>2015-09-19T11:05:04Z</time>
      </trkpt>
      <trkpt lat="42.67154" lon="1.5078">
        <ele>2312</ele>
        <time>2015-09-19T11:05:20Z</time>
      </trkpt>
      <trkpt lat="42.67162" lon="1.50783">
        <ele>2311</ele>
        <time>2015-09-19T11:05:34Z</time>
      </trkpt>
      <trkpt lat="42.67167" lon="1.50785">
        <ele>2311</ele>
        <time>2015-09-19T11:05:45Z</time>
      </trkpt>
      <trkpt lat="42.67167" lon="1.50777">
        <ele>2313</ele>
        <time>2015-09-19T11:05:59Z</time>
      </trkpt>
      <trkpt lat="42.67172" lon="1.50773">
        <ele>2315</ele>
        <time>2015-09-19T11:06:12Z</time>
      </trkpt>
      <trkpt lat="42.67183" lon="1.50781">
        <ele>2318</ele>
        <time>2015-09-19T11:06:27Z</time>
      </trkpt>
      <trkpt lat="42.67192" lon="1.50789">
        <ele>2320</ele>
        <time>2015-09-19T11:06:41Z</time>
      </trkpt>
      <trkpt lat="42.67192" lon="1.50795">
        <ele>2322</ele>
        <time>2015-09-19T11:06:52Z</time>
      </trkpt>
      <trkpt lat="42.67196" lon="1.50799">
        <ele>2323</ele>
        <time>2015-09-19T11:07:03Z</time>
      </trkpt>
      <trkpt lat="42.67196" lon="1.50801">
        <ele>2324</ele>
        <time>2015-09-19T11:07:07Z</time>
      </trkpt>
      <trkpt lat="42.67199" lon="1.50803">
        <ele>2327</ele>
        <time>2015-09-19T11:07:20Z</time>
      </trkpt>
      <trkpt lat="42.67204" lon="1.50808">
        <ele>2328</ele>
        <time>2015-09-19T11:07:33Z</time>
      </trkpt>
      <trkpt lat="42.67212" lon="1.50813">
        <ele>2330</ele>
        <time>2015-09-19T11:07:47Z</time>
      </trkpt>
      <trkpt lat="42.67217" lon="1.50815">
        <ele>2333</ele>
        <time>2015-09-19T11:07:59Z</time>
      </trkpt>
      <trkpt lat="42.67224" lon="1.5082">
        <ele>2334</ele>
        <time>2015-09-19T11:08:13Z</time>
      </trkpt>
      <trkpt lat="42.67226" lon="1.50826">
        <ele>2338</ele>
        <time>2015-09-19T11:08:24Z</time>
      </trkpt>
      <trkpt lat="42.67226" lon="1.50826">
        <ele>2338</ele>
        <time>2015-09-19T11:08:25Z</time>
      </trkpt>
      <trkpt lat="42.67233" lon="1.5083">
        <ele>2340</ele>
        <time>2015-09-19T11:08:41Z</time>
      </trkpt>
      <trkpt lat="42.67237" lon="1.50833">
        <ele>2341</ele>
        <time>2015-09-19T11:08:58Z</time>
      </trkpt>
      <trkpt lat="42.67241" lon="1.50837">
        <ele>2343</ele>
        <time>2015-09-19T11:09:11Z</time>
      </trkpt>
      <trkpt lat="42.67247" lon="1.50841">
        <ele>2343</ele>
        <time>2015-09-19T11:09:24Z</time>
      </trkpt>
      <trkpt lat="42.67258" lon="1.50839">
        <ele>2342</ele>
        <time>2015-09-19T11:09:39Z</time>
      </trkpt>
      <trkpt lat="42.67261" lon="1.50839">
        <ele>2341</ele>
        <time>2015-09-19T11:09:49Z</time>
      </trkpt>
      <trkpt lat="42.67265" lon="1.50844">
        <ele>2342</ele>
        <time>2015-09-19T11:10:00Z</time>
      </trkpt>
      <trkpt lat="42.6727" lon="1.50846">
        <ele>2342</ele>
        <time>2015-09-19T11:10:15Z</time>
      </trkpt>
      <trkpt lat="42.67276" lon="1.50854">
        <ele>2345</ele>
        <time>2015-09-19T11:10:31Z</time>
      </trkpt>
      <trkpt lat="42.6728" lon="1.50857">
        <ele>2346</ele>
        <time>2015-09-19T11:10:43Z</time>
      </trkpt>
      <trkpt lat="42.67282" lon="1.50862">
        <ele>2348</ele>
        <time>2015-09-19T11:10:55Z</time>
      </trkpt>
      <trkpt lat="42.67287" lon="1.50862">
        <ele>2351</ele>
        <time>2015-09-19T11:11:12Z</time>
      </trkpt>
      <trkpt lat="42.67293" lon="1.50865">
        <ele>2353</ele>
        <time>2015-09-19T11:11:26Z</time>
      </trkpt>
      <trkpt lat="42.673" lon="1.50869">
        <ele>2355</ele>
        <time>2015-09-19T11:11:43Z</time>
      </trkpt>
      <trkpt lat="42.67306" lon="1.50872">
        <ele>2358</ele>
        <time>2015-09-19T11:11:57Z</time>
      </trkpt>
      <trkpt lat="42.67302" lon="1.50876">
        <ele>2360</ele>
        <time>2015-09-19T11:12:11Z</time>
      </trkpt>
      <trkpt lat="42.67303" lon="1.5088">
        <ele>2362</ele>
        <time>2015-09-19T11:12:25Z</time>
      </trkpt>
      <trkpt lat="42.67305" lon="1.50884">
        <ele>2364</ele>
        <time>2015-09-19T11:12:38Z</time>
      </trkpt>
      <trkpt lat="42.67307" lon="1.50893">
        <ele>2368</ele>
        <time>2015-09-19T11:12:53Z</time>
      </trkpt>
      <trkpt lat="42.67307" lon="1.50904">
        <ele>2367</ele>
        <time>2015-09-19T11:13:07Z</time>
      </trkpt>
      <trkpt lat="42.67307" lon="1.50912">
        <ele>2367</ele>
        <time>2015-09-19T11:13:18Z</time>
      </trkpt>
      <trkpt lat="42.67305" lon="1.50915">
        <ele>2368</ele>
        <time>2015-09-19T11:13:24Z</time>
      </trkpt>
      <trkpt lat="42.67305" lon="1.50922">
        <ele>2370</ele>
        <time>2015-09-19T11:13:37Z</time>
      </trkpt>
      <trkpt lat="42.67304" lon="1.50929">
        <ele>2372</ele>
        <time>2015-09-19T11:13:50Z</time>
      </trkpt>
      <trkpt lat="42.67304" lon="1.50934">
        <ele>2375</ele>
        <time>2015-09-19T11:14:04Z</time>
      </trkpt>
      <trkpt lat="42.673" lon="1.5094">
        <ele>2377</ele>
        <time>2015-09-19T11:14:19Z</time>
      </trkpt>
      <trkpt lat="42.673" lon="1.50945">
        <ele>2379</ele>
        <time>2015-09-19T11:14:34Z</time>
      </trkpt>
      <trkpt lat="42.673" lon="1.50955">
        <ele>2381</ele>
        <time>2015-09-19T11:14:50Z</time>
      </trkpt>
      <trkpt lat="42.67296" lon="1.50964">
        <ele>2383</ele>
        <time>2015-09-19T11:15:06Z</time>
      </trkpt>
      <trkpt lat="42.67293" lon="1.50974">
        <ele>2384</ele>
        <time>2015-09-19T11:15:20Z</time>
      </trkpt>
      <trkpt lat="42.67292" lon="1.50985">
        <ele>2387</ele>
        <time>2015-09-19T11:15:35Z</time>
      </trkpt>
      <trkpt lat="42.67288" lon="1.50995">
        <ele>2388</ele>
        <time>2015-09-19T11:15:50Z</time>
      </trkpt>
      <trkpt lat="42.67283" lon="1.51005">
        <ele>2389</ele>
        <time>2015-09-19T11:16:04Z</time>
      </trkpt>
      <trkpt lat="42.67279" lon="1.51017">
        <ele>2392</ele>
        <time>2015-09-19T11:16:16Z</time>
      </trkpt>
      <trkpt lat="42.67273" lon="1.51023">
        <ele>2394</ele>
        <time>2015-09-19T11:16:30Z</time>
      </trkpt>
      <trkpt lat="42.67267" lon="1.5102">
        <ele>2395</ele>
        <time>2015-09-19T11:16:45Z</time>
      </trkpt>
      <trkpt lat="42.67264" lon="1.51024">
        <ele>2396</ele>
        <time>2015-09-19T11:16:59Z</time>
      </trkpt>
      <trkpt lat="42.67265" lon="1.51029">
        <ele>2398</ele>
        <time>2015-09-19T11:17:11Z</time>
      </trkpt>
      <trkpt lat="42.67269" lon="1.51033">
        <ele>2399</ele>
        <time>2015-09-19T11:17:19Z</time>
      </trkpt>
      <trkpt lat="42.67271" lon="1.51041">
        <ele>2401</ele>
        <time>2015-09-19T11:17:33Z</time>
      </trkpt>
      <trkpt lat="42.67271" lon="1.51046">
        <ele>2404</ele>
        <time>2015-09-19T11:17:48Z</time>
      </trkpt>
      <trkpt lat="42.67272" lon="1.5105">
        <ele>2405</ele>
        <time>2015-09-19T11:17:59Z</time>
      </trkpt>
      <trkpt lat="42.67273" lon="1.51054">
        <ele>2406</ele>
        <time>2015-09-19T11:18:15Z</time>
      </trkpt>
      <trkpt lat="42.67277" lon="1.5106">
        <ele>2406</ele>
        <time>2015-09-19T11:18:26Z</time>
      </trkpt>
      <trkpt lat="42.67276" lon="1.51065">
        <ele>2407</ele>
        <time>2015-09-19T11:18:39Z</time>
      </trkpt>
      <trkpt lat="42.67277" lon="1.51067">
        <ele>2408</ele>
        <time>2015-09-19T11:18:56Z</time>
      </trkpt>
      <trkpt lat="42.67276" lon="1.51062">
        <ele>2408</ele>
        <time>2015-09-19T11:19:11Z</time>
      </trkpt>
      <trkpt lat="42.67273" lon="1.51053">
        <ele>2408</ele>
        <time>2015-09-19T11:19:27Z</time>
      </trkpt>
      <trkpt lat="42.6727" lon="1.5105">
        <ele>2408</ele>
        <time>2015-09-19T11:19:43Z</time>
      </trkpt>
      <trkpt lat="42.67266" lon="1.51051">
        <ele>2410</ele>
        <time>2015-09-19T11:20:01Z</time>
      </trkpt>
      <trkpt lat="42.67261" lon="1.51051">
        <ele>2413</ele>
        <time>2015-09-19T11:20:18Z</time>
      </trkpt>
      <trkpt lat="42.67259" lon="1.51051">
        <ele>2414</ele>
        <time>2015-09-19T11:20:22Z</time>
      </trkpt>
      <trkpt lat="42.6725" lon="1.5105">
        <ele>2415</ele>
        <time>2015-09-19T11:20:38Z</time>
      </trkpt>
      <trkpt lat="42.67248" lon="1.51055">
        <ele>2418</ele>
        <time>2015-09-19T11:20:52Z</time>
      </trkpt>
      <trkpt lat="42.67249" lon="1.51056">
        <ele>2418</ele>
        <time>2015-09-19T11:20:53Z</time>
      </trkpt>
      <trkpt lat="42.6725" lon="1.51062">
        <ele>2422</ele>
        <time>2015-09-19T11:21:06Z</time>
      </trkpt>
      <trkpt lat="42.67252" lon="1.51065">
        <ele>2424</ele>
        <time>2015-09-19T11:21:20Z</time>
      </trkpt>
      <trkpt lat="42.67257" lon="1.51072">
        <ele>2426</ele>
        <time>2015-09-19T11:21:32Z</time>
      </trkpt>
      <trkpt lat="42.67257" lon="1.51073">
        <ele>2427</ele>
        <time>2015-09-19T11:21:49Z</time>
      </trkpt>
      <trkpt lat="42.67256" lon="1.51072">
        <ele>2427</ele>
        <time>2015-09-19T11:22:12Z</time>
      </trkpt>
      <trkpt lat="42.67257" lon="1.51072">
        <ele>2427</ele>
        <time>2015-09-19T11:22:38Z</time>
      </trkpt>
      <trkpt lat="42.67255" lon="1.51073">
        <ele>2427</ele>
        <time>2015-09-19T11:23:06Z</time>
      </trkpt>
      <trkpt lat="42.6726" lon="1.51081">
        <ele>2429</ele>
        <time>2015-09-19T11:23:25Z</time>
      </trkpt>
      <trkpt lat="42.67253" lon="1.51086">
        <ele>2432</ele>
        <time>2015-09-19T11:23:39Z</time>
      </trkpt>
      <trkpt lat="42.67253" lon="1.51091">
        <ele>2434</ele>
        <time>2015-09-19T11:23:53Z</time>
      </trkpt>
      <trkpt lat="42.67252" lon="1.51098">
        <ele>2436</ele>
        <time>2015-09-19T11:24:07Z</time>
      </trkpt>
      <trkpt lat="42.67248" lon="1.51101">
        <ele>2439</ele>
        <time>2015-09-19T11:24:22Z</time>
      </trkpt>
      <trkpt lat="42.67247" lon="1.51105">
        <ele>2443</ele>
        <time>2015-09-19T11:24:35Z</time>
      </trkpt>
      <trkpt lat="42.67247" lon="1.51112">
        <ele>2445</ele>
        <time>2015-09-19T11:24:49Z</time>
      </trkpt>
      <trkpt lat="42.67242" lon="1.5111">
        <ele>2447</ele>
        <time>2015-09-19T11:25:01Z</time>
      </trkpt>
      <trkpt lat="42.67244" lon="1.51115">
        <ele>2448</ele>
        <time>2015-09-19T11:25:13Z</time>
      </trkpt>
      <trkpt lat="42.67241" lon="1.51119">
        <ele>2450</ele>
        <time>2015-09-19T11:25:29Z</time>
      </trkpt>
      <trkpt lat="42.67237" lon="1.51121">
        <ele>2451</ele>
        <time>2015-09-19T11:25:45Z</time>
      </trkpt>
      <trkpt lat="42.67236" lon="1.51127">
        <ele>2454</ele>
        <time>2015-09-19T11:25:58Z</time>
      </trkpt>
      <trkpt lat="42.67233" lon="1.51133">
        <ele>2457</ele>
        <time>2015-09-19T11:26:12Z</time>
      </trkpt>
      <trkpt lat="42.67236" lon="1.51138">
        <ele>2459</ele>
        <time>2015-09-19T11:26:24Z</time>
      </trkpt>
      <trkpt lat="42.67239" lon="1.51141">
        <ele>2461</ele>
        <time>2015-09-19T11:26:39Z</time>
      </trkpt>
      <trkpt lat="42.67233" lon="1.51146">
        <ele>2464</ele>
        <time>2015-09-19T11:26:52Z</time>
      </trkpt>
      <trkpt lat="42.67231" lon="1.51151">
        <ele>2467</ele>
        <time>2015-09-19T11:27:07Z</time>
      </trkpt>
      <trkpt lat="42.67228" lon="1.51156">
        <ele>2470</ele>
        <time>2015-09-19T11:27:24Z</time>
      </trkpt>
      <trkpt lat="42.67229" lon="1.5116">
        <ele>2472</ele>
        <time>2015-09-19T11:27:39Z</time>
      </trkpt>
      <trkpt lat="42.67231" lon="1.51162">
        <ele>2473</ele>
        <time>2015-09-19T11:27:57Z</time>
      </trkpt>
      <trkpt lat="42.6723" lon="1.51169">
        <ele>2476</ele>
        <time>2015-09-19T11:28:10Z</time>
      </trkpt>
      <trkpt lat="42.67226" lon="1.51174">
        <ele>2478</ele>
        <time>2015-09-19T11:28:25Z</time>
      </trkpt>
      <trkpt lat="42.67226" lon="1.5118">
        <ele>2481</ele>
        <time>2015-09-19T11:28:43Z</time>
      </trkpt>
      <trkpt lat="42.6722" lon="1.51184">
        <ele>2484</ele>
        <time>2015-09-19T11:29:00Z</time>
      </trkpt>
      <trkpt lat="42.67219" lon="1.51189">
        <ele>2487</ele>
        <time>2015-09-19T11:29:17Z</time>
      </trkpt>
      <trkpt lat="42.67223" lon="1.51191">
        <ele>2489</ele>
        <time>2015-09-19T11:29:33Z</time>
      </trkpt>
      <trkpt lat="42.67223" lon="1.51193">
        <ele>2490</ele>
        <time>2015-09-19T11:29:55Z</time>
      </trkpt>
      <trkpt lat="42.67223" lon="1.51197">
        <ele>2491</ele>
        <time>2015-09-19T11:30:07Z</time>
      </trkpt>
      <trkpt lat="42.67221" lon="1.512">
        <ele>2495</ele>
        <time>2015-09-19T11:30:19Z</time>
      </trkpt>
      <trkpt lat="42.67221" lon="1.51204">
        <ele>2496</ele>
        <time>2015-09-19T11:30:33Z</time>
      </trkpt>
      <trkpt lat="42.67221" lon="1.51207">
        <ele>2498</ele>
        <time>2015-09-19T11:30:47Z</time>
      </trkpt>
      <trkpt lat="42.6722" lon="1.51211">
        <ele>2500</ele>
        <time>2015-09-19T11:30:58Z</time>
      </trkpt>
      <trkpt lat="42.67223" lon="1.51212">
        <ele>2501</ele>
        <time>2015-09-19T11:31:16Z</time>
      </trkpt>
      <trkpt lat="42.67226" lon="1.51214">
        <ele>2501</ele>
        <time>2015-09-19T11:31:31Z</time>
      </trkpt>
      <trkpt lat="42.67227" lon="1.51218">
        <ele>2503</ele>
        <time>2015-09-19T11:31:45Z</time>
      </trkpt>
      <trkpt lat="42.67229" lon="1.5122">
        <ele>2505</ele>
        <time>2015-09-19T11:31:57Z</time>
      </trkpt>
      <trkpt lat="42.67227" lon="1.51223">
        <ele>2508</ele>
        <time>2015-09-19T11:32:09Z</time>
      </trkpt>
      <trkpt lat="42.67226" lon="1.51227">
        <ele>2511</ele>
        <time>2015-09-19T11:32:24Z</time>
      </trkpt>
      <trkpt lat="42.67224" lon="1.5123">
        <ele>2513</ele>
        <time>2015-09-19T11:32:39Z</time>
      </trkpt>
      <trkpt lat="42.67226" lon="1.51232">
        <ele>2514</ele>
        <time>2015-09-19T11:32:53Z</time>
      </trkpt>
      <trkpt lat="42.67226" lon="1.51236">
        <ele>2515</ele>
        <time>2015-09-19T11:33:06Z</time>
      </trkpt>
      <trkpt lat="42.67228" lon="1.51236">
        <ele>2517</ele>
        <time>2015-09-19T11:33:22Z</time>
      </trkpt>
      <trkpt lat="42.67229" lon="1.5124">
        <ele>2520</ele>
        <time>2015-09-19T11:33:38Z</time>
      </trkpt>
      <trkpt lat="42.67231" lon="1.51245">
        <ele>2522</ele>
        <time>2015-09-19T11:33:51Z</time>
      </trkpt>
      <trkpt lat="42.67227" lon="1.5125">
        <ele>2524</ele>
        <time>2015-09-19T11:34:04Z</time>
      </trkpt>
      <trkpt lat="42.67224" lon="1.51255">
        <ele>2527</ele>
        <time>2015-09-19T11:34:17Z</time>
      </trkpt>
      <trkpt lat="42.6722" lon="1.51259">
        <ele>2528</ele>
        <time>2015-09-19T11:34:30Z</time>
      </trkpt>
      <trkpt lat="42.67217" lon="1.51263">
        <ele>2530</ele>
        <time>2015-09-19T11:34:44Z</time>
      </trkpt>
      <trkpt lat="42.67216" lon="1.51265">
        <ele>2531</ele>
        <time>2015-09-19T11:35:00Z</time>
      </trkpt>
      <trkpt lat="42.67215" lon="1.51267">
        <ele>2532</ele>
        <time>2015-09-19T11:35:18Z</time>
      </trkpt>
      <trkpt lat="42.67217" lon="1.51271">
        <ele>2534</ele>
        <time>2015-09-19T11:35:32Z</time>
      </trkpt>
      <trkpt lat="42.67219" lon="1.51274">
        <ele>2537</ele>
        <time>2015-09-19T11:35:45Z</time>
      </trkpt>
      <trkpt lat="42.6722" lon="1.51274">
        <ele>2538</ele>
        <time>2015-09-19T11:35:58Z</time>
      </trkpt>
      <trkpt lat="42.67223" lon="1.51276">
        <ele>2538</ele>
        <time>2015-09-19T11:36:17Z</time>
      </trkpt>
      <trkpt lat="42.67222" lon="1.51283">
        <ele>2540</ele>
        <time>2015-09-19T11:36:31Z</time>
      </trkpt>
      <trkpt lat="42.67219" lon="1.51289">
        <ele>2542</ele>
        <time>2015-09-19T11:36:44Z</time>
      </trkpt>
      <trkpt lat="42.67215" lon="1.51293">
        <ele>2545</ele>
        <time>2015-09-19T11:36:56Z</time>
      </trkpt>
      <trkpt lat="42.67211" lon="1.51299">
        <ele>2547</ele>
        <time>2015-09-19T11:37:11Z</time>
      </trkpt>
      <trkpt lat="42.67207" lon="1.51299">
        <ele>2548</ele>
        <time>2015-09-19T11:37:23Z</time>
      </trkpt>
      <trkpt lat="42.67207" lon="1.51302">
        <ele>2550</ele>
        <time>2015-09-19T11:37:39Z</time>
      </trkpt>
      <trkpt lat="42.67206" lon="1.51305">
        <ele>2552</ele>
        <time>2015-09-19T11:37:55Z</time>
      </trkpt>
      <trkpt lat="42.67203" lon="1.51308">
        <ele>2554</ele>
        <time>2015-09-19T11:38:10Z</time>
      </trkpt>
      <trkpt lat="42.67203" lon="1.51313">
        <ele>2557</ele>
        <time>2015-09-19T11:38:26Z</time>
      </trkpt>
      <trkpt lat="42.67206" lon="1.51315">
        <ele>2559</ele>
        <time>2015-09-19T11:38:40Z</time>
      </trkpt>
      <trkpt lat="42.67206" lon="1.5132">
        <ele>2562</ele>
        <time>2015-09-19T11:38:57Z</time>
      </trkpt>
      <trkpt lat="42.67206" lon="1.51322">
        <ele>2564</ele>
        <time>2015-09-19T11:39:11Z</time>
      </trkpt>
      <trkpt lat="42.67205" lon="1.51324">
        <ele>2564</ele>
        <time>2015-09-19T11:39:30Z</time>
      </trkpt>
      <trkpt lat="42.6721" lon="1.51326">
        <ele>2566</ele>
        <time>2015-09-19T11:39:45Z</time>
      </trkpt>
      <trkpt lat="42.67208" lon="1.51331">
        <ele>2569</ele>
        <time>2015-09-19T11:39:57Z</time>
      </trkpt>
      <trkpt lat="42.67207" lon="1.51333">
        <ele>2570</ele>
        <time>2015-09-19T11:40:14Z</time>
      </trkpt>
      <trkpt lat="42.67205" lon="1.51337">
        <ele>2573</ele>
        <time>2015-09-19T11:40:30Z</time>
      </trkpt>
      <trkpt lat="42.67203" lon="1.51338">
        <ele>2574</ele>
        <time>2015-09-19T11:40:49Z</time>
      </trkpt>
      <trkpt lat="42.67204" lon="1.51336">
        <ele>2574</ele>
        <time>2015-09-19T11:41:06Z</time>
      </trkpt>
      <trkpt lat="42.672" lon="1.51336">
        <ele>2574</ele>
        <time>2015-09-19T11:41:23Z</time>
      </trkpt>
      <trkpt lat="42.67201" lon="1.51336">
        <ele>2575</ele>
        <time>2015-09-19T11:41:50Z</time>
      </trkpt>
      <trkpt lat="42.672" lon="1.51334">
        <ele>2575</ele>
        <time>2015-09-19T11:42:16Z</time>
      </trkpt>
      <trkpt lat="42.672" lon="1.51334">
        <ele>2575</ele>
        <time>2015-09-19T11:42:48Z</time>
      </trkpt>
      <trkpt lat="42.67201" lon="1.51337">
        <ele>2575</ele>
        <time>2015-09-19T11:43:17Z</time>
      </trkpt>
      <trkpt lat="42.67199" lon="1.51336">
        <ele>2575</ele>
        <time>2015-09-19T11:43:46Z</time>
      </trkpt>
      <trkpt lat="42.67197" lon="1.51335">
        <ele>2575</ele>
        <time>2015-09-19T11:44:15Z</time>
      </trkpt>
      <trkpt lat="42.672" lon="1.51338">
        <ele>2575</ele>
        <time>2015-09-19T11:44:39Z</time>
      </trkpt>
      <trkpt lat="42.672" lon="1.51337">
        <ele>2575</ele>
        <time>2015-09-19T11:45:02Z</time>
      </trkpt>
      <trkpt lat="42.67198" lon="1.51337">
        <ele>2576</ele>
        <time>2015-09-19T11:45:32Z</time>
      </trkpt>
      <trkpt lat="42.67193" lon="1.51341">
        <ele>2576</ele>
        <time>2015-09-19T11:45:46Z</time>
      </trkpt>
      <trkpt lat="42.6719" lon="1.51345">
        <ele>2579</ele>
        <time>2015-09-19T11:46:00Z</time>
      </trkpt>
      <trkpt lat="42.67189" lon="1.51347">
        <ele>2581</ele>
        <time>2015-09-19T11:46:13Z</time>
      </trkpt>
      <trkpt lat="42.67185" lon="1.51351">
        <ele>2583</ele>
        <time>2015-09-19T11:46:30Z</time>
      </trkpt>
      <trkpt lat="42.67181" lon="1.51354">
        <ele>2585</ele>
        <time>2015-09-19T11:46:44Z</time>
      </trkpt>
      <trkpt lat="42.67183" lon="1.51356">
        <ele>2587</ele>
        <time>2015-09-19T11:46:55Z</time>
      </trkpt>
      <trkpt lat="42.67182" lon="1.51359">
        <ele>2589</ele>
        <time>2015-09-19T11:47:08Z</time>
      </trkpt>
      <trkpt lat="42.67179" lon="1.51361">
        <ele>2592</ele>
        <time>2015-09-19T11:47:24Z</time>
      </trkpt>
      <trkpt lat="42.67177" lon="1.51363">
        <ele>2594</ele>
        <time>2015-09-19T11:47:39Z</time>
      </trkpt>
      <trkpt lat="42.67174" lon="1.51366">
        <ele>2596</ele>
        <time>2015-09-19T11:47:53Z</time>
      </trkpt>
      <trkpt lat="42.6717" lon="1.51369">
        <ele>2597</ele>
        <time>2015-09-19T11:48:06Z</time>
      </trkpt>
      <trkpt lat="42.67165" lon="1.51375">
        <ele>2599</ele>
        <time>2015-09-19T11:48:20Z</time>
      </trkpt>
      <trkpt lat="42.67161" lon="1.51381">
        <ele>2602</ele>
        <time>2015-09-19T11:48:32Z</time>
      </trkpt>
      <trkpt lat="42.67161" lon="1.51384">
        <ele>2604</ele>
        <time>2015-09-19T11:48:47Z</time>
      </trkpt>
      <trkpt lat="42.67159" lon="1.5139">
        <ele>2607</ele>
        <time>2015-09-19T11:49:02Z</time>
      </trkpt>
      <trkpt lat="42.67158" lon="1.51394">
        <ele>2610</ele>
        <time>2015-09-19T11:49:17Z</time>
      </trkpt>
      <trkpt lat="42.67159" lon="1.51397">
        <ele>2611</ele>
        <time>2015-09-19T11:49:31Z</time>
      </trkpt>
      <trkpt lat="42.67155" lon="1.51399">
        <ele>2613</ele>
        <time>2015-09-19T11:49:47Z</time>
      </trkpt>
      <trkpt lat="42.67154" lon="1.51402">
        <ele>2614</ele>
        <time>2015-09-19T11:50:01Z</time>
      </trkpt>
      <trkpt lat="42.67155" lon="1.51403">
        <ele>2615</ele>
        <time>2015-09-19T11:50:13Z</time>
      </trkpt>
      <trkpt lat="42.67155" lon="1.51406">
        <ele>2618</ele>
        <time>2015-09-19T11:50:26Z</time>
      </trkpt>
      <trkpt lat="42.67151" lon="1.51412">
        <ele>2619</ele>
        <time>2015-09-19T11:50:40Z</time>
      </trkpt>
      <trkpt lat="42.67154" lon="1.51411">
        <ele>2621</ele>
        <time>2015-09-19T11:50:52Z</time>
      </trkpt>
      <trkpt lat="42.67155" lon="1.51415">
        <ele>2622</ele>
        <time>2015-09-19T11:51:06Z</time>
      </trkpt>
      <trkpt lat="42.67157" lon="1.51416">
        <ele>2624</ele>
        <time>2015-09-19T11:51:22Z</time>
      </trkpt>
      <trkpt lat="42.67158" lon="1.51419">
        <ele>2625</ele>
        <time>2015-09-19T11:51:35Z</time>
      </trkpt>
      <trkpt lat="42.67161" lon="1.51421">
        <ele>2626</ele>
        <time>2015-09-19T11:51:49Z</time>
      </trkpt>
      <trkpt lat="42.67161" lon="1.51426">
        <ele>2628</ele>
        <time>2015-09-19T11:52:03Z</time>
      </trkpt>
      <trkpt lat="42.67158" lon="1.51429">
        <ele>2628</ele>
        <time>2015-09-19T11:52:21Z</time>
      </trkpt>
      <trkpt lat="42.67158" lon="1.51428">
        <ele>2630</ele>
        <time>2015-09-19T11:52:35Z</time>
      </trkpt>
      <trkpt lat="42.67158" lon="1.51434">
        <ele>2632</ele>
        <time>2015-09-19T11:52:48Z</time>
      </trkpt>
      <trkpt lat="42.67156" lon="1.51437">
        <ele>2633</ele>
        <time>2015-09-19T11:53:05Z</time>
      </trkpt>
      <trkpt lat="42.67155" lon="1.51436">
        <ele>2634</ele>
        <time>2015-09-19T11:53:25Z</time>
      </trkpt>
      <trkpt lat="42.6715" lon="1.51438">
        <ele>2637</ele>
        <time>2015-09-19T11:53:40Z</time>
      </trkpt>
      <trkpt lat="42.67149" lon="1.51436">
        <ele>2638</ele>
        <time>2015-09-19T11:53:55Z</time>
      </trkpt>
      <trkpt lat="42.67146" lon="1.51439">
        <ele>2638</ele>
        <time>2015-09-19T11:54:15Z</time>
      </trkpt>
      <trkpt lat="42.67144" lon="1.5144">
        <ele>2640</ele>
        <time>2015-09-19T11:54:34Z</time>
      </trkpt>
      <trkpt lat="42.67146" lon="1.5144">
        <ele>2641</ele>
        <time>2015-09-19T11:54:49Z</time>
      </trkpt>
      <trkpt lat="42.6715" lon="1.51442">
        <ele>2644</ele>
        <time>2015-09-19T11:55:05Z</time>
      </trkpt>
      <trkpt lat="42.67146" lon="1.51449">
        <ele>2645</ele>
        <time>2015-09-19T11:55:20Z</time>
      </trkpt>
      <trkpt lat="42.67148" lon="1.51449">
        <ele>2647</ele>
        <time>2015-09-19T11:55:33Z</time>
      </trkpt>
      <trkpt lat="42.67149" lon="1.51451">
        <ele>2649</ele>
        <time>2015-09-19T11:55:48Z</time>
      </trkpt>
      <trkpt lat="42.67146" lon="1.51452">
        <ele>2650</ele>
        <time>2015-09-19T11:55:59Z</time>
      </trkpt>
      <trkpt lat="42.67145" lon="1.51455">
        <ele>2650</ele>
        <time>2015-09-19T11:56:15Z</time>
      </trkpt>
      <trkpt lat="42.67148" lon="1.51453">
        <ele>2653</ele>
        <time>2015-09-19T11:56:30Z</time>
      </trkpt>
      <trkpt lat="42.67145" lon="1.51457">
        <ele>2655</ele>
        <time>2015-09-19T11:56:45Z</time>
      </trkpt>
      <trkpt lat="42.67143" lon="1.51461">
        <ele>2656</ele>
        <time>2015-09-19T11:56:57Z</time>
      </trkpt>
      <trkpt lat="42.67145" lon="1.51463">
        <ele>2659</ele>
        <time>2015-09-19T11:57:10Z</time>
      </trkpt>
      <trkpt lat="42.67149" lon="1.51465">
        <ele>2661</ele>
        <time>2015-09-19T11:57:23Z</time>
      </trkpt>
      <trkpt lat="42.67144" lon="1.51469">
        <ele>2662</ele>
        <time>2015-09-19T11:57:37Z</time>
      </trkpt>
      <trkpt lat="42.67138" lon="1.51472">
        <ele>2666</ele>
        <time>2015-09-19T11:57:52Z</time>
      </trkpt>
      <trkpt lat="42.67139" lon="1.51471">
        <ele>2665</ele>
        <time>2015-09-19T11:58:08Z</time>
      </trkpt>
      <trkpt lat="42.67134" lon="1.51475">
        <ele>2666</ele>
        <time>2015-09-19T11:58:25Z</time>
      </trkpt>
      <trkpt lat="42.67132" lon="1.51476">
        <ele>2667</ele>
        <time>2015-09-19T11:58:39Z</time>
      </trkpt>
      <trkpt lat="42.67132" lon="1.51482">
        <ele>2670</ele>
        <time>2015-09-19T11:58:51Z</time>
      </trkpt>
      <trkpt lat="42.67131" lon="1.51487">
        <ele>2672</ele>
        <time>2015-09-19T11:59:04Z</time>
      </trkpt>
      <trkpt lat="42.67131" lon="1.51488">
        <ele>2673</ele>
        <time>2015-09-19T11:59:06Z</time>
      </trkpt>
      <trkpt lat="42.67131" lon="1.51491">
        <ele>2675</ele>
        <time>2015-09-19T11:59:11Z</time>
      </trkpt>
      <trkpt lat="42.67127" lon="1.51496">
        <ele>2676</ele>
        <time>2015-09-19T11:59:26Z</time>
      </trkpt>
      <trkpt lat="42.67121" lon="1.515">
        <ele>2678</ele>
        <time>2015-09-19T11:59:42Z</time>
      </trkpt>
      <trkpt lat="42.67117" lon="1.51503">
        <ele>2680</ele>
        <time>2015-09-19T11:59:55Z</time>
      </trkpt>
      <trkpt lat="42.67116" lon="1.51507">
        <ele>2682</ele>
        <time>2015-09-19T12:00:05Z</time>
      </trkpt>
      <trkpt lat="42.67114" lon="1.51507">
        <ele>2682</ele>
        <time>2015-09-19T12:00:20Z</time>
      </trkpt>
      <trkpt lat="42.67111" lon="1.51508">
        <ele>2683</ele>
        <time>2015-09-19T12:00:32Z</time>
      </trkpt>
      <trkpt lat="42.67108" lon="1.5151">
        <ele>2685</ele>
        <time>2015-09-19T12:00:46Z</time>
      </trkpt>
      <trkpt lat="42.67105" lon="1.51511">
        <ele>2686</ele>
        <time>2015-09-19T12:01:00Z</time>
      </trkpt>
      <trkpt lat="42.67101" lon="1.51511">
        <ele>2686</ele>
        <time>2015-09-19T12:01:18Z</time>
      </trkpt>
      <trkpt lat="42.67103" lon="1.5151">
        <ele>2686</ele>
        <time>2015-09-19T12:01:36Z</time>
      </trkpt>
      <trkpt lat="42.67105" lon="1.51512">
        <ele>2687</ele>
        <time>2015-09-19T12:02:01Z</time>
      </trkpt>
      <trkpt lat="42.67108" lon="1.51512">
        <ele>2687</ele>
        <time>2015-09-19T12:02:23Z</time>
      </trkpt>
      <trkpt lat="42.6711" lon="1.51513">
        <ele>2688</ele>
        <time>2015-09-19T12:02:39Z</time>
      </trkpt>
      <trkpt lat="42.67108" lon="1.51519">
        <ele>2690</ele>
        <time>2015-09-19T12:02:51Z</time>
      </trkpt>
      <trkpt lat="42.67106" lon="1.51521">
        <ele>2691</ele>
        <time>2015-09-19T12:03:07Z</time>
      </trkpt>
      <trkpt lat="42.67106" lon="1.51524">
        <ele>2692</ele>
        <time>2015-09-19T12:03:23Z</time>
      </trkpt>
      <trkpt lat="42.67107" lon="1.51524">
        <ele>2694</ele>
        <time>2015-09-19T12:03:43Z</time>
      </trkpt>
      <trkpt lat="42.67106" lon="1.51525">
        <ele>2694</ele>
        <time>2015-09-19T12:03:44Z</time>
      </trkpt>
      <trkpt lat="42.67105" lon="1.51525">
        <ele>2693</ele>
        <time>2015-09-19T12:04:02Z</time>
      </trkpt>
      <trkpt lat="42.67107" lon="1.51522">
        <ele>2692</ele>
        <time>2015-09-19T12:04:18Z</time>
      </trkpt>
      <trkpt lat="42.67107" lon="1.51518">
        <ele>2691</ele>
        <time>2015-09-19T12:04:33Z</time>
      </trkpt>
      <trkpt lat="42.67105" lon="1.51518">
        <ele>2689</ele>
        <time>2015-09-19T12:04:48Z</time>
      </trkpt>
      <trkpt lat="42.67101" lon="1.51521">
        <ele>2688</ele>
        <time>2015-09-19T12:05:02Z</time>
      </trkpt>
      <trkpt lat="42.67094" lon="1.51523">
        <ele>2686</ele>
        <time>2015-09-19T12:05:18Z</time>
      </trkpt>
      <trkpt lat="42.67091" lon="1.51524">
        <ele>2685</ele>
        <time>2015-09-19T12:05:35Z</time>
      </trkpt>
      <trkpt lat="42.67089" lon="1.51524">
        <ele>2685</ele>
        <time>2015-09-19T12:05:51Z</time>
      </trkpt>
      <trkpt lat="42.67085" lon="1.51525">
        <ele>2686</ele>
        <time>2015-09-19T12:06:03Z</time>
      </trkpt>
      <trkpt lat="42.6708" lon="1.51523">
        <ele>2686</ele>
        <time>2015-09-19T12:06:20Z</time>
      </trkpt>
      <trkpt lat="42.67078" lon="1.51523">
        <ele>2686</ele>
        <time>2015-09-19T12:06:40Z</time>
      </trkpt>
      <trkpt lat="42.67077" lon="1.51523">
        <ele>2685</ele>
        <time>2015-09-19T12:07:03Z</time>
      </trkpt>
      <trkpt lat="42.67076" lon="1.51522">
        <ele>2686</ele>
        <time>2015-09-19T12:07:26Z</time>
      </trkpt>
      <trkpt lat="42.67075" lon="1.5152">
        <ele>2686</ele>
        <time>2015-09-19T12:07:51Z</time>
      </trkpt>
      <trkpt lat="42.67077" lon="1.5152">
        <ele>2684</ele>
        <time>2015-09-19T12:08:11Z</time>
      </trkpt>
      <trkpt lat="42.67076" lon="1.51518">
        <ele>2683</ele>
        <time>2015-09-19T12:08:26Z</time>
      </trkpt>
      <trkpt lat="42.67073" lon="1.51522">
        <ele>2682</ele>
        <time>2015-09-19T12:08:42Z</time>
      </trkpt>
      <trkpt lat="42.67073" lon="1.51519">
        <ele>2681</ele>
        <time>2015-09-19T12:09:00Z</time>
      </trkpt>
      <trkpt lat="42.67068" lon="1.51517">
        <ele>2679</ele>
        <time>2015-09-19T12:09:21Z</time>
      </trkpt>
      <trkpt lat="42.67066" lon="1.51512">
        <ele>2678</ele>
        <time>2015-09-19T12:09:41Z</time>
      </trkpt>
      <trkpt lat="42.67066" lon="1.5151">
        <ele>2676</ele>
        <time>2015-09-19T12:09:56Z</time>
      </trkpt>
      <trkpt lat="42.67068" lon="1.51511">
        <ele>2677</ele>
        <time>2015-09-19T12:10:22Z</time>
      </trkpt>
      <trkpt lat="42.67068" lon="1.51513">
        <ele>2677</ele>
        <time>2015-09-19T12:10:46Z</time>
      </trkpt>
      <trkpt lat="42.6707" lon="1.5151">
        <ele>2677</ele>
        <time>2015-09-19T12:11:06Z</time>
      </trkpt>
      <trkpt lat="42.67073" lon="1.51514">
        <ele>2679</ele>
        <time>2015-09-19T12:11:26Z</time>
      </trkpt>
      <trkpt lat="42.67076" lon="1.51519">
        <ele>2683</ele>
        <time>2015-09-19T12:11:37Z</time>
      </trkpt>
      <trkpt lat="42.67076" lon="1.51519">
        <ele>2683</ele>
        <time>2015-09-19T12:11:38Z</time>
      </trkpt>
      <trkpt lat="42.6708" lon="1.51519">
        <ele>2682</ele>
        <time>2015-09-19T12:11:55Z</time>
      </trkpt>
      <trkpt lat="42.67081" lon="1.51518">
        <ele>2682</ele>
        <time>2015-09-19T12:12:05Z</time>
      </trkpt>
      <trkpt lat="42.67086" lon="1.51518">
        <ele>2682</ele>
        <time>2015-09-19T12:12:22Z</time>
      </trkpt>
      <trkpt lat="42.67091" lon="1.51516">
        <ele>2683</ele>
        <time>2015-09-19T12:12:33Z</time>
      </trkpt>
      <trkpt lat="42.67096" lon="1.51513">
        <ele>2682</ele>
        <time>2015-09-19T12:12:48Z</time>
      </trkpt>
      <trkpt lat="42.67099" lon="1.51511">
        <ele>2683</ele>
        <time>2015-09-19T12:13:00Z</time>
      </trkpt>
      <trkpt lat="42.67103" lon="1.51505">
        <ele>2682</ele>
        <time>2015-09-19T12:13:12Z</time>
      </trkpt>
      <trkpt lat="42.67109" lon="1.51505">
        <ele>2682</ele>
        <time>2015-09-19T12:13:25Z</time>
      </trkpt>
      <trkpt lat="42.67115" lon="1.5151">
        <ele>2684</ele>
        <time>2015-09-19T12:13:38Z</time>
      </trkpt>
      <trkpt lat="42.67121" lon="1.51511">
        <ele>2686</ele>
        <time>2015-09-19T12:13:51Z</time>
      </trkpt>
      <trkpt lat="42.67125" lon="1.51512">
        <ele>2687</ele>
        <time>2015-09-19T12:14:04Z</time>
      </trkpt>
      <trkpt lat="42.67132" lon="1.51514">
        <ele>2688</ele>
        <time>2015-09-19T12:14:17Z</time>
      </trkpt>
      <trkpt lat="42.67138" lon="1.51517">
        <ele>2690</ele>
        <time>2015-09-19T12:14:31Z</time>
      </trkpt>
      <trkpt lat="42.67142" lon="1.51522">
        <ele>2692</ele>
        <time>2015-09-19T12:14:46Z</time>
      </trkpt>
      <trkpt lat="42.67142" lon="1.51525">
        <ele>2693</ele>
        <time>2015-09-19T12:15:05Z</time>
      </trkpt>
      <trkpt lat="42.67144" lon="1.51528">
        <ele>2693</ele>
        <time>2015-09-19T12:15:19Z</time>
      </trkpt>
      <trkpt lat="42.67147" lon="1.51532">
        <ele>2692</ele>
        <time>2015-09-19T12:15:37Z</time>
      </trkpt>
      <trkpt lat="42.67148" lon="1.51539">
        <ele>2692</ele>
        <time>2015-09-19T12:15:53Z</time>
      </trkpt>
      <trkpt lat="42.67149" lon="1.51543">
        <ele>2693</ele>
        <time>2015-09-19T12:16:11Z</time>
      </trkpt>
      <trkpt lat="42.67152" lon="1.51544">
        <ele>2694</ele>
        <time>2015-09-19T12:16:27Z</time>
      </trkpt>
      <trkpt lat="42.67155" lon="1.51545">
        <ele>2694</ele>
        <time>2015-09-19T12:16:43Z</time>
      </trkpt>
      <trkpt lat="42.67153" lon="1.5155">
        <ele>2696</ele>
        <time>2015-09-19T12:16:58Z</time>
      </trkpt>
      <trkpt lat="42.67152" lon="1.51554">
        <ele>2698</ele>
        <time>2015-09-19T12:17:13Z</time>
      </trkpt>
      <trkpt lat="42.6715" lon="1.51556">
        <ele>2699</ele>
        <time>2015-09-19T12:17:25Z</time>
      </trkpt>
      <trkpt lat="42.67152" lon="1.5156">
        <ele>2700</ele>
        <time>2015-09-19T12:17:40Z</time>
      </trkpt>
      <trkpt lat="42.67151" lon="1.51563">
        <ele>2702</ele>
        <time>2015-09-19T12:18:03Z</time>
      </trkpt>
      <trkpt lat="42.6715" lon="1.51567">
        <ele>2704</ele>
        <time>2015-09-19T12:18:17Z</time>
      </trkpt>
      <trkpt lat="42.67149" lon="1.5157">
        <ele>2705</ele>
        <time>2015-09-19T12:18:32Z</time>
      </trkpt>
      <trkpt lat="42.67151" lon="1.51572">
        <ele>2708</ele>
        <time>2015-09-19T12:18:47Z</time>
      </trkpt>
      <trkpt lat="42.6715" lon="1.51576">
        <ele>2710</ele>
        <time>2015-09-19T12:19:02Z</time>
      </trkpt>
      <trkpt lat="42.67151" lon="1.51577">
        <ele>2712</ele>
        <time>2015-09-19T12:19:18Z</time>
      </trkpt>
      <trkpt lat="42.67149" lon="1.51578">
        <ele>2712</ele>
        <time>2015-09-19T12:19:32Z</time>
      </trkpt>
      <trkpt lat="42.67151" lon="1.51579">
        <ele>2713</ele>
        <time>2015-09-19T12:19:47Z</time>
      </trkpt>
      <trkpt lat="42.67152" lon="1.51582">
        <ele>2716</ele>
        <time>2015-09-19T12:20:02Z</time>
      </trkpt>
      <trkpt lat="42.67153" lon="1.51585">
        <ele>2718</ele>
        <time>2015-09-19T12:20:16Z</time>
      </trkpt>
      <trkpt lat="42.67155" lon="1.51586">
        <ele>2719</ele>
        <time>2015-09-19T12:20:36Z</time>
      </trkpt>
      <trkpt lat="42.67154" lon="1.51589">
        <ele>2720</ele>
        <time>2015-09-19T12:20:53Z</time>
      </trkpt>
      <trkpt lat="42.67157" lon="1.51588">
        <ele>2721</ele>
        <time>2015-09-19T12:21:12Z</time>
      </trkpt>
      <trkpt lat="42.67159" lon="1.51593">
        <ele>2724</ele>
        <time>2015-09-19T12:21:24Z</time>
      </trkpt>
      <trkpt lat="42.67159" lon="1.51593">
        <ele>2724</ele>
        <time>2015-09-19T12:21:25Z</time>
      </trkpt>
      <trkpt lat="42.67157" lon="1.51597">
        <ele>2727</ele>
        <time>2015-09-19T12:21:41Z</time>
      </trkpt>
      <trkpt lat="42.67156" lon="1.51599">
        <ele>2728</ele>
        <time>2015-09-19T12:21:58Z</time>
      </trkpt>
      <trkpt lat="42.67157" lon="1.51601">
        <ele>2729</ele>
        <time>2015-09-19T12:22:18Z</time>
      </trkpt>
      <trkpt lat="42.67155" lon="1.51603">
        <ele>2730</ele>
        <time>2015-09-19T12:22:34Z</time>
      </trkpt>
      <trkpt lat="42.67154" lon="1.51602">
        <ele>2731</ele>
        <time>2015-09-19T12:22:54Z</time>
      </trkpt>
      <trkpt lat="42.67154" lon="1.51601">
        <ele>2732</ele>
        <time>2015-09-19T12:23:16Z</time>
      </trkpt>
      <trkpt lat="42.67151" lon="1.51604">
        <ele>2733</ele>
        <time>2015-09-19T12:23:35Z</time>
      </trkpt>
      <trkpt lat="42.6715" lon="1.51604">
        <ele>2735</ele>
        <time>2015-09-19T12:23:50Z</time>
      </trkpt>
      <trkpt lat="42.67146" lon="1.51601">
        <ele>2737</ele>
        <time>2015-09-19T12:24:06Z</time>
      </trkpt>
      <trkpt lat="42.67144" lon="1.516">
        <ele>2738</ele>
        <time>2015-09-19T12:24:24Z</time>
      </trkpt>
      <trkpt lat="42.67141" lon="1.51601">
        <ele>2738</ele>
        <time>2015-09-19T12:24:41Z</time>
      </trkpt>
      <trkpt lat="42.67138" lon="1.51598">
        <ele>2740</ele>
        <time>2015-09-19T12:24:55Z</time>
      </trkpt>
      <trkpt lat="42.67138" lon="1.51597">
        <ele>2739</ele>
        <time>2015-09-19T12:25:06Z</time>
      </trkpt>
      <trkpt lat="42.67138" lon="1.51595">
        <ele>2740</ele>
        <time>2015-09-19T12:25:31Z</time>
      </trkpt>
      <trkpt lat="42.67135" lon="1.51595">
        <ele>2739</ele>
        <time>2015-09-19T12:25:52Z</time>
      </trkpt>
      <trkpt lat="42.67135" lon="1.51595">
        <ele>2740</ele>
        <time>2015-09-19T12:26:03Z</time>
      </trkpt>
      <trkpt lat="42.67133" lon="1.51594">
        <ele>2740</ele>
        <time>2015-09-19T12:26:26Z</time>
      </trkpt>
      <trkpt lat="42.67124" lon="1.51589">
        <ele>2737</ele>
        <time>2015-09-19T12:26:40Z</time>
      </trkpt>
      <trkpt lat="42.67116" lon="1.51583">
        <ele>2737</ele>
        <time>2015-09-19T12:26:53Z</time>
      </trkpt>
      <trkpt lat="42.6711" lon="1.51581">
        <ele>2737</ele>
        <time>2015-09-19T12:27:05Z</time>
      </trkpt>
      <trkpt lat="42.67109" lon="1.51583">
        <ele>2736</ele>
        <time>2015-09-19T12:27:19Z</time>
      </trkpt>
      <trkpt lat="42.67108" lon="1.51583">
        <ele>2736</ele>
        <time>2015-09-19T12:27:33Z</time>
      </trkpt>
      <trkpt lat="42.67103" lon="1.51582">
        <ele>2735</ele>
        <time>2015-09-19T12:27:55Z</time>
      </trkpt>
      <trkpt lat="42.671" lon="1.51575">
        <ele>2734</ele>
        <time>2015-09-19T12:28:10Z</time>
      </trkpt>
      <trkpt lat="42.671" lon="1.51572">
        <ele>2733</ele>
        <time>2015-09-19T12:28:26Z</time>
      </trkpt>
      <trkpt lat="42.67099" lon="1.5157">
        <ele>2731</ele>
        <time>2015-09-19T12:28:43Z</time>
      </trkpt>
      <trkpt lat="42.67099" lon="1.5157">
        <ele>2730</ele>
        <time>2015-09-19T12:28:46Z</time>
      </trkpt>
      <trkpt lat="42.67099" lon="1.5157">
        <ele>2730</ele>
        <time>2015-09-19T12:29:08Z</time>
      </trkpt>
      <trkpt lat="42.67097" lon="1.5157">
        <ele>2728</ele>
        <time>2015-09-19T12:29:19Z</time>
      </trkpt>
      <trkpt lat="42.6709" lon="1.51567">
        <ele>2726</ele>
        <time>2015-09-19T12:29:35Z</time>
      </trkpt>
      <trkpt lat="42.67084" lon="1.51569">
        <ele>2724</ele>
        <time>2015-09-19T12:29:46Z</time>
      </trkpt>
      <trkpt lat="42.67077" lon="1.51567">
        <ele>2722</ele>
        <time>2015-09-19T12:30:00Z</time>
      </trkpt>
      <trkpt lat="42.67074" lon="1.51566">
        <ele>2721</ele>
        <time>2015-09-19T12:30:03Z</time>
      </trkpt>
      <trkpt lat="42.67065" lon="1.5156">
        <ele>2722</ele>
        <time>2015-09-19T12:30:15Z</time>
      </trkpt>
      <trkpt lat="42.67055" lon="1.51552">
        <ele>2724</ele>
        <time>2015-09-19T12:30:27Z</time>
      </trkpt>
      <trkpt lat="42.67041" lon="1.51549">
        <ele>2725</ele>
        <time>2015-09-19T12:30:41Z</time>
      </trkpt>
      <trkpt lat="42.67038" lon="1.51552">
        <ele>2726</ele>
        <time>2015-09-19T12:30:59Z</time>
      </trkpt>
      <trkpt lat="42.67033" lon="1.51553">
        <ele>2725</ele>
        <time>2015-09-19T12:31:14Z</time>
      </trkpt>
      <trkpt lat="42.67029" lon="1.51551">
        <ele>2726</ele>
        <time>2015-09-19T12:31:32Z</time>
      </trkpt>
      <trkpt lat="42.67024" lon="1.51548">
        <ele>2725</ele>
        <time>2015-09-19T12:31:44Z</time>
      </trkpt>
      <trkpt lat="42.67018" lon="1.51548">
        <ele>2726</ele>
        <time>2015-09-19T12:31:59Z</time>
      </trkpt>
      <trkpt lat="42.67011" lon="1.51542">
        <ele>2725</ele>
        <time>2015-09-19T12:32:13Z</time>
      </trkpt>
      <trkpt lat="42.67005" lon="1.51544">
        <ele>2726</ele>
        <time>2015-09-19T12:32:26Z</time>
      </trkpt>
      <trkpt lat="42.67003" lon="1.51547">
        <ele>2730</ele>
        <time>2015-09-19T12:32:37Z</time>
      </trkpt>
      <trkpt lat="42.67003" lon="1.5155">
        <ele>2732</ele>
        <time>2015-09-19T12:32:49Z</time>
      </trkpt>
      <trkpt lat="42.66995" lon="1.51551">
        <ele>2735</ele>
        <time>2015-09-19T12:33:04Z</time>
      </trkpt>
      <trkpt lat="42.66993" lon="1.51551">
        <ele>2737</ele>
        <time>2015-09-19T12:33:17Z</time>
      </trkpt>
      <trkpt lat="42.66991" lon="1.51551">
        <ele>2738</ele>
        <time>2015-09-19T12:33:30Z</time>
      </trkpt>
      <trkpt lat="42.66989" lon="1.51553">
        <ele>2741</ele>
        <time>2015-09-19T12:33:47Z</time>
      </trkpt>
      <trkpt lat="42.66989" lon="1.51553">
        <ele>2743</ele>
        <time>2015-09-19T12:33:55Z</time>
      </trkpt>
      <trkpt lat="42.66986" lon="1.51553">
        <ele>2743</ele>
        <time>2015-09-19T12:34:09Z</time>
      </trkpt>
      <trkpt lat="42.66985" lon="1.51552">
        <ele>2742</ele>
        <time>2015-09-19T12:34:24Z</time>
      </trkpt>
      <trkpt lat="42.66981" lon="1.51553">
        <ele>2744</ele>
        <time>2015-09-19T12:34:44Z</time>
      </trkpt>
      <trkpt lat="42.66979" lon="1.51551">
        <ele>2745</ele>
        <time>2015-09-19T12:35:01Z</time>
      </trkpt>
      <trkpt lat="42.66975" lon="1.51553">
        <ele>2746</ele>
        <time>2015-09-19T12:35:13Z</time>
      </trkpt>
      <trkpt lat="42.66974" lon="1.51552">
        <ele>2746</ele>
        <time>2015-09-19T12:35:27Z</time>
      </trkpt>
      <trkpt lat="42.66971" lon="1.51553">
        <ele>2747</ele>
        <time>2015-09-19T12:35:42Z</time>
      </trkpt>
      <trkpt lat="42.66964" lon="1.51553">
        <ele>2748</ele>
        <time>2015-09-19T12:35:55Z</time>
      </trkpt>
      <trkpt lat="42.66957" lon="1.51553">
        <ele>2747</ele>
        <time>2015-09-19T12:36:09Z</time>
      </trkpt>
      <trkpt lat="42.66946" lon="1.51558">
        <ele>2750</ele>
        <time>2015-09-19T12:36:25Z</time>
      </trkpt>
      <trkpt lat="42.66945" lon="1.51558">
        <ele>2750</ele>
        <time>2015-09-19T12:36:26Z</time>
      </trkpt>
      <trkpt lat="42.66943" lon="1.51558">
        <ele>2751</ele>
        <time>2015-09-19T12:36:28Z</time>
      </trkpt>
      <trkpt lat="42.66929" lon="1.51561">
        <ele>2753</ele>
        <time>2015-09-19T12:36:41Z</time>
      </trkpt>
      <trkpt lat="42.66928" lon="1.51562">
        <ele>2753</ele>
        <time>2015-09-19T12:36:42Z</time>
      </trkpt>
      <trkpt lat="42.66924" lon="1.51562">
        <ele>2754</ele>
        <time>2015-09-19T12:36:45Z</time>
      </trkpt>
      <trkpt lat="42.66922" lon="1.51563">
        <ele>2755</ele>
        <time>2015-09-19T12:36:47Z</time>
      </trkpt>
      <trkpt lat="42.66918" lon="1.51562">
        <ele>2755</ele>
        <time>2015-09-19T12:36:50Z</time>
      </trkpt>
      <trkpt lat="42.66913" lon="1.51561">
        <ele>2754</ele>
        <time>2015-09-19T12:37:05Z</time>
      </trkpt>
      <trkpt lat="42.66908" lon="1.51556">
        <ele>2752</ele>
        <time>2015-09-19T12:37:21Z</time>
      </trkpt>
      <trkpt lat="42.66901" lon="1.51556">
        <ele>2752</ele>
        <time>2015-09-19T12:37:29Z</time>
      </trkpt>
      <trkpt lat="42.66891" lon="1.51554">
        <ele>2753</ele>
        <time>2015-09-19T12:37:42Z</time>
      </trkpt>
      <trkpt lat="42.6689" lon="1.51555">
        <ele>2753</ele>
        <time>2015-09-19T12:37:43Z</time>
      </trkpt>
      <trkpt lat="42.66873" lon="1.51554">
        <ele>2754</ele>
        <time>2015-09-19T12:37:56Z</time>
      </trkpt>
      <trkpt lat="42.66869" lon="1.51554">
        <ele>2756</ele>
        <time>2015-09-19T12:38:02Z</time>
      </trkpt>
      <trkpt lat="42.66859" lon="1.51549">
        <ele>2757</ele>
        <time>2015-09-19T12:38:14Z</time>
      </trkpt>
      <trkpt lat="42.66851" lon="1.51547">
        <ele>2760</ele>
        <time>2015-09-19T12:38:25Z</time>
      </trkpt>
      <trkpt lat="42.66847" lon="1.51547">
        <ele>2762</ele>
        <time>2015-09-19T12:38:32Z</time>
      </trkpt>
      <trkpt lat="42.66845" lon="1.51547">
        <ele>2762</ele>
        <time>2015-09-19T12:38:47Z</time>
      </trkpt>
      <trkpt lat="42.66844" lon="1.51545">
        <ele>2762</ele>
        <time>2015-09-19T12:39:03Z</time>
      </trkpt>
      <trkpt lat="42.66844" lon="1.51545">
        <ele>2762</ele>
        <time>2015-09-19T12:39:19Z</time>
      </trkpt>
      <trkpt lat="42.66844" lon="1.51547">
        <ele>2762</ele>
        <time>2015-09-19T12:39:34Z</time>
      </trkpt>
      <trkpt lat="42.66843" lon="1.51546">
        <ele>2762</ele>
        <time>2015-09-19T12:39:47Z</time>
      </trkpt>
      <trkpt lat="42.6683" lon="1.51543">
        <ele>2761</ele>
        <time>2015-09-19T12:40:01Z</time>
      </trkpt>
      <trkpt lat="42.66826" lon="1.5154">
        <ele>2761</ele>
        <time>2015-09-19T12:40:13Z</time>
      </trkpt>
      <trkpt lat="42.66826" lon="1.51539">
        <ele>2761</ele>
        <time>2015-09-19T12:40:49Z</time>
      </trkpt>
      <trkpt lat="42.66826" lon="1.51538">
        <ele>2761</ele>
        <time>2015-09-19T12:41:10Z</time>
      </trkpt>
      <trkpt lat="42.66832" lon="1.51539">
        <ele>2762</ele>
        <time>2015-09-19T12:41:16Z</time>
      </trkpt>
      <trkpt lat="42.66834" lon="1.51541">
        <ele>2762</ele>
        <time>2015-09-19T12:41:19Z</time>
      </trkpt>
      <trkpt lat="42.66839" lon="1.51543">
        <ele>2761</ele>
        <time>2015-09-19T12:41:23Z</time>
      </trkpt>
      <trkpt lat="42.66843" lon="1.51546">
        <ele>2761</ele>
        <time>2015-09-19T12:41:35Z</time>
      </trkpt>
      <trkpt lat="42.66843" lon="1.51545">
        <ele>2761</ele>
        <time>2015-09-19T12:41:59Z</time>
      </trkpt>
      <trkpt lat="42.66843" lon="1.51545">
        <ele>2761</ele>
        <time>2015-09-19T12:42:37Z</time>
      </trkpt>
      <trkpt lat="42.66842" lon="1.51547">
        <ele>2761</ele>
        <time>2015-09-19T12:43:20Z</time>
      </trkpt>
      <trkpt lat="42.66843" lon="1.51545">
        <ele>2762</ele>
        <time>2015-09-19T12:44:01Z</time>
      </trkpt>
      <trkpt lat="42.66842" lon="1.51546">
        <ele>2761</ele>
        <time>2015-09-19T12:44:36Z</time>
      </trkpt>
      <trkpt lat="42.66842" lon="1.51545">
        <ele>2761</ele>
        <time>2015-09-19T12:45:19Z</time>
      </trkpt>
      <trkpt lat="42.66843" lon="1.51545">
        <ele>2761</ele>
        <time>2015-09-19T12:46:10Z</time>
      </trkpt>
      <trkpt lat="42.66843" lon="1.51544">
        <ele>2762</ele>
        <time>2015-09-19T12:47:05Z</time>
      </trkpt>
      <trkpt lat="42.66842" lon="1.51545">
        <ele>2761</ele>
        <time>2015-09-19T12:47:57Z</time>
      </trkpt>
      <trkpt lat="42.66843" lon="1.51544">
        <ele>2761</ele>
        <time>2015-09-19T12:48:19Z</time>
      </trkpt>
      <trkpt lat="42.66842" lon="1.51546">
        <ele>2762</ele>
        <time>2015-09-19T12:48:30Z</time>
      </trkpt>
      <trkpt lat="42.66844" lon="1.51544">
        <ele>2762</ele>
        <time>2015-09-19T12:48:49Z</time>
      </trkpt>
      <trkpt lat="42.66846" lon="1.51547">
        <ele>2763</ele>
        <time>2015-09-19T12:48:59Z</time>
      </trkpt>
      <trkpt lat="42.66847" lon="1.51547">
        <ele>2762</ele>
        <time>2015-09-19T12:49:05Z</time>
      </trkpt>
      <trkpt lat="42.66852" lon="1.51551">
        <ele>2761</ele>
        <time>2015-09-19T12:49:17Z</time>
      </trkpt>
      <trkpt lat="42.66858" lon="1.51557">
        <ele>2760</ele>
        <time>2015-09-19T12:49:25Z</time>
      </trkpt>
      <trkpt lat="42.66868" lon="1.51556">
        <ele>2759</ele>
        <time>2015-09-19T12:49:34Z</time>
      </trkpt>
      <trkpt lat="42.6688" lon="1.5156">
        <ele>2757</ele>
        <time>2015-09-19T12:49:46Z</time>
      </trkpt>
      <trkpt lat="42.66884" lon="1.51561">
        <ele>2758</ele>
        <time>2015-09-19T12:49:51Z</time>
      </trkpt>
      <trkpt lat="42.66895" lon="1.51562">
        <ele>2758</ele>
        <time>2015-09-19T12:50:01Z</time>
      </trkpt>
      <trkpt lat="42.66902" lon="1.51563">
        <ele>2759</ele>
        <time>2015-09-19T12:50:07Z</time>
      </trkpt>
      <trkpt lat="42.6691" lon="1.51561">
        <ele>2758</ele>
        <time>2015-09-19T12:50:20Z</time>
      </trkpt>
      <trkpt lat="42.66915" lon="1.51559">
        <ele>2757</ele>
        <time>2015-09-19T12:50:30Z</time>
      </trkpt>
      <trkpt lat="42.6692" lon="1.51559">
        <ele>2756</ele>
        <time>2015-09-19T12:50:36Z</time>
      </trkpt>
      <trkpt lat="42.66929" lon="1.51557">
        <ele>2755</ele>
        <time>2015-09-19T12:50:48Z</time>
      </trkpt>
      <trkpt lat="42.66939" lon="1.51556">
        <ele>2752</ele>
        <time>2015-09-19T12:51:00Z</time>
      </trkpt>
      <trkpt lat="42.66944" lon="1.51555">
        <ele>2751</ele>
        <time>2015-09-19T12:51:12Z</time>
      </trkpt>
      <trkpt lat="42.66945" lon="1.51555">
        <ele>2751</ele>
        <time>2015-09-19T12:51:15Z</time>
      </trkpt>
      <trkpt lat="42.66951" lon="1.51554">
        <ele>2750</ele>
        <time>2015-09-19T12:51:23Z</time>
      </trkpt>
      <trkpt lat="42.66956" lon="1.51554">
        <ele>2750</ele>
        <time>2015-09-19T12:51:35Z</time>
      </trkpt>
      <trkpt lat="42.66959" lon="1.51552">
        <ele>2749</ele>
        <time>2015-09-19T12:51:48Z</time>
      </trkpt>
      <trkpt lat="42.66961" lon="1.51551">
        <ele>2749</ele>
        <time>2015-09-19T12:51:53Z</time>
      </trkpt>
      <trkpt lat="42.66966" lon="1.5155">
        <ele>2749</ele>
        <time>2015-09-19T12:52:03Z</time>
      </trkpt>
      <trkpt lat="42.66968" lon="1.51551">
        <ele>2748</ele>
        <time>2015-09-19T12:52:17Z</time>
      </trkpt>
      <trkpt lat="42.6697" lon="1.5155">
        <ele>2747</ele>
        <time>2015-09-19T12:52:34Z</time>
      </trkpt>
      <trkpt lat="42.66973" lon="1.51547">
        <ele>2746</ele>
        <time>2015-09-19T12:52:52Z</time>
      </trkpt>
      <trkpt lat="42.66976" lon="1.5155">
        <ele>2747</ele>
        <time>2015-09-19T12:53:08Z</time>
      </trkpt>
      <trkpt lat="42.66976" lon="1.5155">
        <ele>2746</ele>
        <time>2015-09-19T12:53:27Z</time>
      </trkpt>
      <trkpt lat="42.66979" lon="1.5155">
        <ele>2746</ele>
        <time>2015-09-19T12:53:43Z</time>
      </trkpt>
      <trkpt lat="42.6698" lon="1.51549">
        <ele>2745</ele>
        <time>2015-09-19T12:53:56Z</time>
      </trkpt>
      <trkpt lat="42.66982" lon="1.51552">
        <ele>2744</ele>
        <time>2015-09-19T12:54:12Z</time>
      </trkpt>
      <trkpt lat="42.66987" lon="1.51549">
        <ele>2744</ele>
        <time>2015-09-19T12:54:29Z</time>
      </trkpt>
      <trkpt lat="42.66992" lon="1.5155">
        <ele>2743</ele>
        <time>2015-09-19T12:54:42Z</time>
      </trkpt>
      <trkpt lat="42.66992" lon="1.51552">
        <ele>2743</ele>
        <time>2015-09-19T12:54:46Z</time>
      </trkpt>
      <trkpt lat="42.66997" lon="1.51552">
        <ele>2741</ele>
        <time>2015-09-19T12:54:59Z</time>
      </trkpt>
      <trkpt lat="42.66998" lon="1.51553">
        <ele>2739</ele>
        <time>2015-09-19T12:55:16Z</time>
      </trkpt>
      <trkpt lat="42.67" lon="1.51552">
        <ele>2738</ele>
        <time>2015-09-19T12:55:36Z</time>
      </trkpt>
      <trkpt lat="42.67" lon="1.51553">
        <ele>2738</ele>
        <time>2015-09-19T12:55:38Z</time>
      </trkpt>
      <trkpt lat="42.67" lon="1.51554">
        <ele>2740</ele>
        <time>2015-09-19T12:55:50Z</time>
      </trkpt>
      <trkpt lat="42.67004" lon="1.51554">
        <ele>2739</ele>
        <time>2015-09-19T12:56:06Z</time>
      </trkpt>
      <trkpt lat="42.67005" lon="1.51554">
        <ele>2737</ele>
        <time>2015-09-19T12:56:25Z</time>
      </trkpt>
      <trkpt lat="42.67009" lon="1.51556">
        <ele>2737</ele>
        <time>2015-09-19T12:56:45Z</time>
      </trkpt>
      <trkpt lat="42.67009" lon="1.51555">
        <ele>2736</ele>
        <time>2015-09-19T12:57:06Z</time>
      </trkpt>
      <trkpt lat="42.67012" lon="1.51555">
        <ele>2735</ele>
        <time>2015-09-19T12:57:28Z</time>
      </trkpt>
      <trkpt lat="42.67013" lon="1.5156">
        <ele>2735</ele>
        <time>2015-09-19T12:57:47Z</time>
      </trkpt>
      <trkpt lat="42.67012" lon="1.51557">
        <ele>2734</ele>
        <time>2015-09-19T12:58:06Z</time>
      </trkpt>
      <trkpt lat="42.67013" lon="1.51557">
        <ele>2733</ele>
        <time>2015-09-19T12:58:09Z</time>
      </trkpt>
      <trkpt lat="42.67023" lon="1.51564">
        <ele>2736</ele>
        <time>2015-09-19T12:58:22Z</time>
      </trkpt>
      <trkpt lat="42.67028" lon="1.51566">
        <ele>2736</ele>
        <time>2015-09-19T12:58:27Z</time>
      </trkpt>
      <trkpt lat="42.67031" lon="1.51569">
        <ele>2737</ele>
        <time>2015-09-19T12:58:33Z</time>
      </trkpt>
      <trkpt lat="42.67034" lon="1.51568">
        <ele>2737</ele>
        <time>2015-09-19T12:58:47Z</time>
      </trkpt>
      <trkpt lat="42.67035" lon="1.51561">
        <ele>2734</ele>
        <time>2015-09-19T12:59:00Z</time>
      </trkpt>
      <trkpt lat="42.6704" lon="1.51559">
        <ele>2732</ele>
        <time>2015-09-19T12:59:13Z</time>
      </trkpt>
      <trkpt lat="42.67047" lon="1.5156">
        <ele>2731</ele>
        <time>2015-09-19T12:59:24Z</time>
      </trkpt>
      <trkpt lat="42.67047" lon="1.5156">
        <ele>2731</ele>
        <time>2015-09-19T12:59:36Z</time>
      </trkpt>
      <trkpt lat="42.67044" lon="1.51553">
        <ele>2728</ele>
        <time>2015-09-19T12:59:48Z</time>
      </trkpt>
      <trkpt lat="42.67044" lon="1.51553">
        <ele>2727</ele>
        <time>2015-09-19T12:59:49Z</time>
      </trkpt>
      <trkpt lat="42.67045" lon="1.5155">
        <ele>2725</ele>
        <time>2015-09-19T12:59:57Z</time>
      </trkpt>
      <trkpt lat="42.67053" lon="1.51554">
        <ele>2726</ele>
        <time>2015-09-19T13:00:08Z</time>
      </trkpt>
      <trkpt lat="42.6706" lon="1.51555">
        <ele>2724</ele>
        <time>2015-09-19T13:00:19Z</time>
      </trkpt>
      <trkpt lat="42.67064" lon="1.51562">
        <ele>2723</ele>
        <time>2015-09-19T13:00:28Z</time>
      </trkpt>
      <trkpt lat="42.67067" lon="1.51565">
        <ele>2723</ele>
        <time>2015-09-19T13:00:32Z</time>
      </trkpt>
      <trkpt lat="42.67077" lon="1.51564">
        <ele>2722</ele>
        <time>2015-09-19T13:00:44Z</time>
      </trkpt>
      <trkpt lat="42.67081" lon="1.51562">
        <ele>2724</ele>
        <time>2015-09-19T13:00:51Z</time>
      </trkpt>
      <trkpt lat="42.67084" lon="1.51564">
        <ele>2724</ele>
        <time>2015-09-19T13:00:54Z</time>
      </trkpt>
      <trkpt lat="42.67093" lon="1.51569">
        <ele>2727</ele>
        <time>2015-09-19T13:01:07Z</time>
      </trkpt>
      <trkpt lat="42.67097" lon="1.5157">
        <ele>2729</ele>
        <time>2015-09-19T13:01:20Z</time>
      </trkpt>
      <trkpt lat="42.67098" lon="1.51574">
        <ele>2732</ele>
        <time>2015-09-19T13:01:28Z</time>
      </trkpt>
      <trkpt lat="42.67098" lon="1.51574">
        <ele>2732</ele>
        <time>2015-09-19T13:01:29Z</time>
      </trkpt>
      <trkpt lat="42.67102" lon="1.51579">
        <ele>2734</ele>
        <time>2015-09-19T13:01:42Z</time>
      </trkpt>
      <trkpt lat="42.67108" lon="1.51582">
        <ele>2737</ele>
        <time>2015-09-19T13:01:54Z</time>
      </trkpt>
      <trkpt lat="42.67115" lon="1.51585">
        <ele>2737</ele>
        <time>2015-09-19T13:02:06Z</time>
      </trkpt>
      <trkpt lat="42.67117" lon="1.51585">
        <ele>2737</ele>
        <time>2015-09-19T13:02:09Z</time>
      </trkpt>
      <trkpt lat="42.6712" lon="1.51586">
        <ele>2736</ele>
        <time>2015-09-19T13:02:12Z</time>
      </trkpt>
      <trkpt lat="42.67129" lon="1.51594">
        <ele>2738</ele>
        <time>2015-09-19T13:02:28Z</time>
      </trkpt>
      <trkpt lat="42.6713" lon="1.51595">
        <ele>2739</ele>
        <time>2015-09-19T13:02:32Z</time>
      </trkpt>
      <trkpt lat="42.67135" lon="1.51595">
        <ele>2741</ele>
        <time>2015-09-19T13:02:44Z</time>
      </trkpt>
      <trkpt lat="42.67136" lon="1.51594">
        <ele>2741</ele>
        <time>2015-09-19T13:02:58Z</time>
      </trkpt>
      <trkpt lat="42.67137" lon="1.51594">
        <ele>2741</ele>
        <time>2015-09-19T13:03:18Z</time>
      </trkpt>
      <trkpt lat="42.67138" lon="1.51593">
        <ele>2741</ele>
        <time>2015-09-19T13:03:41Z</time>
      </trkpt>
      <trkpt lat="42.67138" lon="1.51594">
        <ele>2741</ele>
        <time>2015-09-19T13:04:05Z</time>
      </trkpt>
      <trkpt lat="42.67139" lon="1.51598">
        <ele>2741</ele>
        <time>2015-09-19T13:04:24Z</time>
      </trkpt>
      <trkpt lat="42.67143" lon="1.51602">
        <ele>2740</ele>
        <time>2015-09-19T13:04:37Z</time>
      </trkpt>
      <trkpt lat="42.67146" lon="1.51599">
        <ele>2739</ele>
        <time>2015-09-19T13:04:50Z</time>
      </trkpt>
      <trkpt lat="42.67148" lon="1.516">
        <ele>2737</ele>
        <time>2015-09-19T13:05:04Z</time>
      </trkpt>
      <trkpt lat="42.6715" lon="1.51602">
        <ele>2737</ele>
        <time>2015-09-19T13:05:18Z</time>
      </trkpt>
      <trkpt lat="42.6715" lon="1.51603">
        <ele>2736</ele>
        <time>2015-09-19T13:05:43Z</time>
      </trkpt>
      <trkpt lat="42.6715" lon="1.51602">
        <ele>2734</ele>
        <time>2015-09-19T13:06:03Z</time>
      </trkpt>
      <trkpt lat="42.67151" lon="1.51602">
        <ele>2733</ele>
        <time>2015-09-19T13:06:25Z</time>
      </trkpt>
      <trkpt lat="42.67153" lon="1.51601">
        <ele>2731</ele>
        <time>2015-09-19T13:06:39Z</time>
      </trkpt>
      <trkpt lat="42.67156" lon="1.51601">
        <ele>2731</ele>
        <time>2015-09-19T13:06:57Z</time>
      </trkpt>
      <trkpt lat="42.67155" lon="1.516">
        <ele>2730</ele>
        <time>2015-09-19T13:07:14Z</time>
      </trkpt>
      <trkpt lat="42.67152" lon="1.51597">
        <ele>2728</ele>
        <time>2015-09-19T13:07:31Z</time>
      </trkpt>
      <trkpt lat="42.67146" lon="1.51593">
        <ele>2725</ele>
        <time>2015-09-19T13:07:46Z</time>
      </trkpt>
      <trkpt lat="42.67147" lon="1.51586">
        <ele>2723</ele>
        <time>2015-09-19T13:08:00Z</time>
      </trkpt>
      <trkpt lat="42.67148" lon="1.51582">
        <ele>2721</ele>
        <time>2015-09-19T13:08:16Z</time>
      </trkpt>
      <trkpt lat="42.67147" lon="1.51582">
        <ele>2719</ele>
        <time>2015-09-19T13:08:28Z</time>
      </trkpt>
      <trkpt lat="42.67144" lon="1.51581">
        <ele>2717</ele>
        <time>2015-09-19T13:08:49Z</time>
      </trkpt>
      <trkpt lat="42.67144" lon="1.51578">
        <ele>2715</ele>
        <time>2015-09-19T13:09:07Z</time>
      </trkpt>
      <trkpt lat="42.67144" lon="1.51579">
        <ele>2714</ele>
        <time>2015-09-19T13:09:24Z</time>
      </trkpt>
      <trkpt lat="42.67143" lon="1.51576">
        <ele>2713</ele>
        <time>2015-09-19T13:09:38Z</time>
      </trkpt>
      <trkpt lat="42.67144" lon="1.51575">
        <ele>2711</ele>
        <time>2015-09-19T13:09:53Z</time>
      </trkpt>
      <trkpt lat="42.67143" lon="1.51571">
        <ele>2710</ele>
        <time>2015-09-19T13:10:11Z</time>
      </trkpt>
      <trkpt lat="42.67142" lon="1.51568">
        <ele>2708</ele>
        <time>2015-09-19T13:10:26Z</time>
      </trkpt>
      <trkpt lat="42.67144" lon="1.51565">
        <ele>2707</ele>
        <time>2015-09-19T13:10:41Z</time>
      </trkpt>
      <trkpt lat="42.67147" lon="1.51566">
        <ele>2706</ele>
        <time>2015-09-19T13:10:56Z</time>
      </trkpt>
      <trkpt lat="42.67147" lon="1.51567">
        <ele>2704</ele>
        <time>2015-09-19T13:11:14Z</time>
      </trkpt>
      <trkpt lat="42.67146" lon="1.51566">
        <ele>2704</ele>
        <time>2015-09-19T13:11:30Z</time>
      </trkpt>
      <trkpt lat="42.67145" lon="1.51563">
        <ele>2703</ele>
        <time>2015-09-19T13:11:50Z</time>
      </trkpt>
      <trkpt lat="42.67144" lon="1.51562">
        <ele>2702</ele>
        <time>2015-09-19T13:12:10Z</time>
      </trkpt>
      <trkpt lat="42.67143" lon="1.51559">
        <ele>2701</ele>
        <time>2015-09-19T13:12:30Z</time>
      </trkpt>
      <trkpt lat="42.67142" lon="1.51555">
        <ele>2701</ele>
        <time>2015-09-19T13:12:47Z</time>
      </trkpt>
      <trkpt lat="42.67143" lon="1.51555">
        <ele>2700</ele>
        <time>2015-09-19T13:13:01Z</time>
      </trkpt>
      <trkpt lat="42.67144" lon="1.51552">
        <ele>2698</ele>
        <time>2015-09-19T13:13:18Z</time>
      </trkpt>
      <trkpt lat="42.67145" lon="1.51553">
        <ele>2697</ele>
        <time>2015-09-19T13:13:37Z</time>
      </trkpt>
      <trkpt lat="42.67146" lon="1.51549">
        <ele>2695</ele>
        <time>2015-09-19T13:13:53Z</time>
      </trkpt>
      <trkpt lat="42.67148" lon="1.51549">
        <ele>2693</ele>
        <time>2015-09-19T13:14:10Z</time>
      </trkpt>
      <trkpt lat="42.67151" lon="1.51549">
        <ele>2693</ele>
        <time>2015-09-19T13:14:29Z</time>
      </trkpt>
      <trkpt lat="42.67151" lon="1.51549">
        <ele>2693</ele>
        <time>2015-09-19T13:14:43Z</time>
      </trkpt>
      <trkpt lat="42.67153" lon="1.5155">
        <ele>2692</ele>
        <time>2015-09-19T13:15:02Z</time>
      </trkpt>
      <trkpt lat="42.67151" lon="1.51548">
        <ele>2691</ele>
        <time>2015-09-19T13:15:19Z</time>
      </trkpt>
      <trkpt lat="42.6715" lon="1.51547">
        <ele>2692</ele>
        <time>2015-09-19T13:15:34Z</time>
      </trkpt>
      <trkpt lat="42.67152" lon="1.51546">
        <ele>2691</ele>
        <time>2015-09-19T13:15:55Z</time>
      </trkpt>
      <trkpt lat="42.67146" lon="1.51541">
        <ele>2690</ele>
        <time>2015-09-19T13:16:14Z</time>
      </trkpt>
      <trkpt lat="42.67149" lon="1.51541">
        <ele>2689</ele>
        <time>2015-09-19T13:16:25Z</time>
      </trkpt>
      <trkpt lat="42.67151" lon="1.51538">
        <ele>2687</ele>
        <time>2015-09-19T13:16:41Z</time>
      </trkpt>
      <trkpt lat="42.6715" lon="1.51536">
        <ele>2686</ele>
        <time>2015-09-19T13:16:55Z</time>
      </trkpt>
      <trkpt lat="42.67151" lon="1.51531">
        <ele>2685</ele>
        <time>2015-09-19T13:17:10Z</time>
      </trkpt>
      <trkpt lat="42.67151" lon="1.51525">
        <ele>2684</ele>
        <time>2015-09-19T13:17:24Z</time>
      </trkpt>
      <trkpt lat="42.67147" lon="1.51513">
        <ele>2686</ele>
        <time>2015-09-19T13:17:38Z</time>
      </trkpt>
      <trkpt lat="42.67144" lon="1.51509">
        <ele>2687</ele>
        <time>2015-09-19T13:17:51Z</time>
      </trkpt>
      <trkpt lat="42.67144" lon="1.51511">
        <ele>2688</ele>
        <time>2015-09-19T13:18:13Z</time>
      </trkpt>
      <trkpt lat="42.67145" lon="1.51502">
        <ele>2687</ele>
        <time>2015-09-19T13:18:33Z</time>
      </trkpt>
      <trkpt lat="42.67145" lon="1.51499">
        <ele>2684</ele>
        <time>2015-09-19T13:18:45Z</time>
      </trkpt>
      <trkpt lat="42.67145" lon="1.51498">
        <ele>2684</ele>
        <time>2015-09-19T13:18:46Z</time>
      </trkpt>
      <trkpt lat="42.6715" lon="1.51496">
        <ele>2683</ele>
        <time>2015-09-19T13:18:51Z</time>
      </trkpt>
      <trkpt lat="42.67149" lon="1.51496">
        <ele>2683</ele>
        <time>2015-09-19T13:18:53Z</time>
      </trkpt>
      <trkpt lat="42.67147" lon="1.5149">
        <ele>2680</ele>
        <time>2015-09-19T13:19:05Z</time>
      </trkpt>
      <trkpt lat="42.67147" lon="1.51491">
        <ele>2680</ele>
        <time>2015-09-19T13:19:20Z</time>
      </trkpt>
      <trkpt lat="42.67146" lon="1.51483">
        <ele>2678</ele>
        <time>2015-09-19T13:19:32Z</time>
      </trkpt>
      <trkpt lat="42.67147" lon="1.51482">
        <ele>2676</ele>
        <time>2015-09-19T13:19:40Z</time>
      </trkpt>
      <trkpt lat="42.67146" lon="1.51478">
        <ele>2674</ele>
        <time>2015-09-19T13:19:51Z</time>
      </trkpt>
      <trkpt lat="42.67145" lon="1.51474">
        <ele>2672</ele>
        <time>2015-09-19T13:20:06Z</time>
      </trkpt>
      <trkpt lat="42.67144" lon="1.51472">
        <ele>2670</ele>
        <time>2015-09-19T13:20:18Z</time>
      </trkpt>
      <trkpt lat="42.67145" lon="1.5147">
        <ele>2668</ele>
        <time>2015-09-19T13:20:33Z</time>
      </trkpt>
      <trkpt lat="42.67144" lon="1.51466">
        <ele>2666</ele>
        <time>2015-09-19T13:20:47Z</time>
      </trkpt>
      <trkpt lat="42.67144" lon="1.51463">
        <ele>2664</ele>
        <time>2015-09-19T13:20:58Z</time>
      </trkpt>
      <trkpt lat="42.67142" lon="1.5146">
        <ele>2661</ele>
        <time>2015-09-19T13:21:13Z</time>
      </trkpt>
      <trkpt lat="42.67143" lon="1.51457">
        <ele>2660</ele>
        <time>2015-09-19T13:21:27Z</time>
      </trkpt>
      <trkpt lat="42.67145" lon="1.51455">
        <ele>2659</ele>
        <time>2015-09-19T13:21:42Z</time>
      </trkpt>
      <trkpt lat="42.67145" lon="1.51452">
        <ele>2658</ele>
        <time>2015-09-19T13:21:56Z</time>
      </trkpt>
      <trkpt lat="42.67141" lon="1.51453">
        <ele>2656</ele>
        <time>2015-09-19T13:22:11Z</time>
      </trkpt>
      <trkpt lat="42.67143" lon="1.51448">
        <ele>2654</ele>
        <time>2015-09-19T13:22:25Z</time>
      </trkpt>
      <trkpt lat="42.67144" lon="1.51446">
        <ele>2652</ele>
        <time>2015-09-19T13:22:40Z</time>
      </trkpt>
      <trkpt lat="42.67142" lon="1.51447">
        <ele>2650</ele>
        <time>2015-09-19T13:22:56Z</time>
      </trkpt>
      <trkpt lat="42.67144" lon="1.5144">
        <ele>2648</ele>
        <time>2015-09-19T13:23:12Z</time>
      </trkpt>
      <trkpt lat="42.67146" lon="1.51438">
        <ele>2647</ele>
        <time>2015-09-19T13:23:28Z</time>
      </trkpt>
      <trkpt lat="42.67145" lon="1.51441">
        <ele>2645</ele>
        <time>2015-09-19T13:23:41Z</time>
      </trkpt>
      <trkpt lat="42.67146" lon="1.51436">
        <ele>2644</ele>
        <time>2015-09-19T13:23:53Z</time>
      </trkpt>
      <trkpt lat="42.67149" lon="1.51437">
        <ele>2643</ele>
        <time>2015-09-19T13:24:06Z</time>
      </trkpt>
      <trkpt lat="42.67152" lon="1.51433">
        <ele>2640</ele>
        <time>2015-09-19T13:24:19Z</time>
      </trkpt>
      <trkpt lat="42.67152" lon="1.51432">
        <ele>2638</ele>
        <time>2015-09-19T13:24:32Z</time>
      </trkpt>
      <trkpt lat="42.67157" lon="1.51427">
        <ele>2637</ele>
        <time>2015-09-19T13:24:46Z</time>
      </trkpt>
      <trkpt lat="42.67164" lon="1.51419">
        <ele>2636</ele>
        <time>2015-09-19T13:24:59Z</time>
      </trkpt>
      <trkpt lat="42.67168" lon="1.51413">
        <ele>2633</ele>
        <time>2015-09-19T13:25:12Z</time>
      </trkpt>
      <trkpt lat="42.67171" lon="1.51407">
        <ele>2632</ele>
        <time>2015-09-19T13:25:25Z</time>
      </trkpt>
      <trkpt lat="42.67171" lon="1.51406">
        <ele>2630</ele>
        <time>2015-09-19T13:25:40Z</time>
      </trkpt>
      <trkpt lat="42.67173" lon="1.51403">
        <ele>2629</ele>
        <time>2015-09-19T13:25:57Z</time>
      </trkpt>
      <trkpt lat="42.67173" lon="1.51403">
        <ele>2628</ele>
        <time>2015-09-19T13:26:12Z</time>
      </trkpt>
      <trkpt lat="42.67172" lon="1.51406">
        <ele>2627</ele>
        <time>2015-09-19T13:26:29Z</time>
      </trkpt>
      <trkpt lat="42.67173" lon="1.51402">
        <ele>2626</ele>
        <time>2015-09-19T13:26:46Z</time>
      </trkpt>
      <trkpt lat="42.67174" lon="1.51399">
        <ele>2625</ele>
        <time>2015-09-19T13:27:01Z</time>
      </trkpt>
      <trkpt lat="42.6717" lon="1.51399">
        <ele>2624</ele>
        <time>2015-09-19T13:27:16Z</time>
      </trkpt>
      <trkpt lat="42.67172" lon="1.51393">
        <ele>2622</ele>
        <time>2015-09-19T13:27:27Z</time>
      </trkpt>
      <trkpt lat="42.67171" lon="1.51391">
        <ele>2619</ele>
        <time>2015-09-19T13:27:40Z</time>
      </trkpt>
      <trkpt lat="42.6717" lon="1.51391">
        <ele>2617</ele>
        <time>2015-09-19T13:27:53Z</time>
      </trkpt>
      <trkpt lat="42.67167" lon="1.51389">
        <ele>2614</ele>
        <time>2015-09-19T13:28:08Z</time>
      </trkpt>
      <trkpt lat="42.67163" lon="1.51388">
        <ele>2612</ele>
        <time>2015-09-19T13:28:17Z</time>
      </trkpt>
      <trkpt lat="42.6716" lon="1.51385">
        <ele>2610</ele>
        <time>2015-09-19T13:28:30Z</time>
      </trkpt>
      <trkpt lat="42.67166" lon="1.51378">
        <ele>2607</ele>
        <time>2015-09-19T13:28:42Z</time>
      </trkpt>
      <trkpt lat="42.67165" lon="1.51377">
        <ele>2606</ele>
        <time>2015-09-19T13:29:00Z</time>
      </trkpt>
      <trkpt lat="42.67162" lon="1.51377">
        <ele>2605</ele>
        <time>2015-09-19T13:29:13Z</time>
      </trkpt>
      <trkpt lat="42.67158" lon="1.51374">
        <ele>2601</ele>
        <time>2015-09-19T13:29:25Z</time>
      </trkpt>
      <trkpt lat="42.67155" lon="1.51374">
        <ele>2602</ele>
        <time>2015-09-19T13:29:39Z</time>
      </trkpt>
      <trkpt lat="42.67157" lon="1.51368">
        <ele>2600</ele>
        <time>2015-09-19T13:29:53Z</time>
      </trkpt>
      <trkpt lat="42.67152" lon="1.51365">
        <ele>2596</ele>
        <time>2015-09-19T13:30:05Z</time>
      </trkpt>
      <trkpt lat="42.6715" lon="1.51365">
        <ele>2594</ele>
        <time>2015-09-19T13:30:10Z</time>
      </trkpt>
      <trkpt lat="42.67148" lon="1.51363">
        <ele>2592</ele>
        <time>2015-09-19T13:30:24Z</time>
      </trkpt>
      <trkpt lat="42.67144" lon="1.5136">
        <ele>2592</ele>
        <time>2015-09-19T13:30:39Z</time>
      </trkpt>
      <trkpt lat="42.67148" lon="1.51354">
        <ele>2590</ele>
        <time>2015-09-19T13:30:54Z</time>
      </trkpt>
      <trkpt lat="42.67152" lon="1.51351">
        <ele>2588</ele>
        <time>2015-09-19T13:31:07Z</time>
      </trkpt>
      <trkpt lat="42.67153" lon="1.51348">
        <ele>2586</ele>
        <time>2015-09-19T13:31:21Z</time>
      </trkpt>
      <trkpt lat="42.67155" lon="1.51346">
        <ele>2584</ele>
        <time>2015-09-19T13:31:39Z</time>
      </trkpt>
      <trkpt lat="42.67157" lon="1.51343">
        <ele>2583</ele>
        <time>2015-09-19T13:31:55Z</time>
      </trkpt>
      <trkpt lat="42.67161" lon="1.51341">
        <ele>2583</ele>
        <time>2015-09-19T13:32:11Z</time>
      </trkpt>
      <trkpt lat="42.67165" lon="1.51336">
        <ele>2581</ele>
        <time>2015-09-19T13:32:23Z</time>
      </trkpt>
      <trkpt lat="42.67168" lon="1.51332">
        <ele>2579</ele>
        <time>2015-09-19T13:32:36Z</time>
      </trkpt>
      <trkpt lat="42.6717" lon="1.51326">
        <ele>2576</ele>
        <time>2015-09-19T13:32:46Z</time>
      </trkpt>
      <trkpt lat="42.6717" lon="1.51324">
        <ele>2574</ele>
        <time>2015-09-19T13:33:01Z</time>
      </trkpt>
      <trkpt lat="42.6717" lon="1.51322">
        <ele>2572</ele>
        <time>2015-09-19T13:33:15Z</time>
      </trkpt>
      <trkpt lat="42.67165" lon="1.51324">
        <ele>2570</ele>
        <time>2015-09-19T13:33:28Z</time>
      </trkpt>
      <trkpt lat="42.67165" lon="1.51319">
        <ele>2567</ele>
        <time>2015-09-19T13:33:41Z</time>
      </trkpt>
      <trkpt lat="42.67167" lon="1.51316">
        <ele>2563</ele>
        <time>2015-09-19T13:33:52Z</time>
      </trkpt>
      <trkpt lat="42.67167" lon="1.51316">
        <ele>2568</ele>
        <time>2015-09-19T13:33:53Z</time>
      </trkpt>
      <trkpt lat="42.67167" lon="1.51315">
        <ele>2564</ele>
        <time>2015-09-19T13:33:55Z</time>
      </trkpt>
      <trkpt lat="42.67164" lon="1.51312">
        <ele>2563</ele>
        <time>2015-09-19T13:34:13Z</time>
      </trkpt>
      <trkpt lat="42.67164" lon="1.51311">
        <ele>2563</ele>
        <time>2015-09-19T13:34:14Z</time>
      </trkpt>
      <trkpt lat="42.67162" lon="1.51306">
        <ele>2560</ele>
        <time>2015-09-19T13:34:27Z</time>
      </trkpt>
      <trkpt lat="42.67165" lon="1.51302">
        <ele>2558</ele>
        <time>2015-09-19T13:34:34Z</time>
      </trkpt>
      <trkpt lat="42.67168" lon="1.51296">
        <ele>2555</ele>
        <time>2015-09-19T13:34:48Z</time>
      </trkpt>
      <trkpt lat="42.6717" lon="1.51294">
        <ele>2553</ele>
        <time>2015-09-19T13:35:02Z</time>
      </trkpt>
      <trkpt lat="42.67171" lon="1.51295">
        <ele>2552</ele>
        <time>2015-09-19T13:35:20Z</time>
      </trkpt>
      <trkpt lat="42.6717" lon="1.51294">
        <ele>2552</ele>
        <time>2015-09-19T13:35:24Z</time>
      </trkpt>
      <trkpt lat="42.67171" lon="1.5129">
        <ele>2550</ele>
        <time>2015-09-19T13:35:30Z</time>
      </trkpt>
      <trkpt lat="42.67177" lon="1.51287">
        <ele>2549</ele>
        <time>2015-09-19T13:35:42Z</time>
      </trkpt>
      <trkpt lat="42.67184" lon="1.51283">
        <ele>2545</ele>
        <time>2015-09-19T13:35:55Z</time>
      </trkpt>
      <trkpt lat="42.67187" lon="1.51277">
        <ele>2542</ele>
        <time>2015-09-19T13:36:09Z</time>
      </trkpt>
      <trkpt lat="42.67188" lon="1.51276">
        <ele>2541</ele>
        <time>2015-09-19T13:36:11Z</time>
      </trkpt>
      <trkpt lat="42.67189" lon="1.5127">
        <ele>2539</ele>
        <time>2015-09-19T13:36:23Z</time>
      </trkpt>
      <trkpt lat="42.67194" lon="1.51265">
        <ele>2536</ele>
        <time>2015-09-19T13:36:31Z</time>
      </trkpt>
      <trkpt lat="42.67196" lon="1.51261">
        <ele>2534</ele>
        <time>2015-09-19T13:36:36Z</time>
      </trkpt>
      <trkpt lat="42.67201" lon="1.51256">
        <ele>2531</ele>
        <time>2015-09-19T13:36:48Z</time>
      </trkpt>
      <trkpt lat="42.67206" lon="1.5125">
        <ele>2528</ele>
        <time>2015-09-19T13:37:01Z</time>
      </trkpt>
      <trkpt lat="42.6721" lon="1.51246">
        <ele>2526</ele>
        <time>2015-09-19T13:37:14Z</time>
      </trkpt>
      <trkpt lat="42.67215" lon="1.5124">
        <ele>2524</ele>
        <time>2015-09-19T13:37:28Z</time>
      </trkpt>
      <trkpt lat="42.67216" lon="1.51235">
        <ele>2520</ele>
        <time>2015-09-19T13:37:39Z</time>
      </trkpt>
      <trkpt lat="42.67214" lon="1.51232">
        <ele>2519</ele>
        <time>2015-09-19T13:37:53Z</time>
      </trkpt>
      <trkpt lat="42.67217" lon="1.51229">
        <ele>2517</ele>
        <time>2015-09-19T13:38:18Z</time>
      </trkpt>
      <trkpt lat="42.6722" lon="1.51224">
        <ele>2515</ele>
        <time>2015-09-19T13:38:31Z</time>
      </trkpt>
      <trkpt lat="42.67219" lon="1.5122">
        <ele>2512</ele>
        <time>2015-09-19T13:38:44Z</time>
      </trkpt>
      <trkpt lat="42.67217" lon="1.51217">
        <ele>2510</ele>
        <time>2015-09-19T13:38:50Z</time>
      </trkpt>
      <trkpt lat="42.67222" lon="1.51211">
        <ele>2507</ele>
        <time>2015-09-19T13:39:01Z</time>
      </trkpt>
      <trkpt lat="42.67227" lon="1.51202">
        <ele>2503</ele>
        <time>2015-09-19T13:39:11Z</time>
      </trkpt>
      <trkpt lat="42.67224" lon="1.51199">
        <ele>2500</ele>
        <time>2015-09-19T13:39:19Z</time>
      </trkpt>
      <trkpt lat="42.67225" lon="1.51193">
        <ele>2497</ele>
        <time>2015-09-19T13:39:28Z</time>
      </trkpt>
      <trkpt lat="42.6722" lon="1.51188">
        <ele>2494</ele>
        <time>2015-09-19T13:39:42Z</time>
      </trkpt>
      <trkpt lat="42.6722" lon="1.51182">
        <ele>2491</ele>
        <time>2015-09-19T13:39:49Z</time>
      </trkpt>
      <trkpt lat="42.67224" lon="1.51178">
        <ele>2488</ele>
        <time>2015-09-19T13:39:59Z</time>
      </trkpt>
      <trkpt lat="42.67225" lon="1.51173">
        <ele>2486</ele>
        <time>2015-09-19T13:40:14Z</time>
      </trkpt>
      <trkpt lat="42.67231" lon="1.51165">
        <ele>2483</ele>
        <time>2015-09-19T13:40:28Z</time>
      </trkpt>
      <trkpt lat="42.67232" lon="1.51163">
        <ele>2482</ele>
        <time>2015-09-19T13:40:30Z</time>
      </trkpt>
      <trkpt lat="42.6723" lon="1.51159">
        <ele>2478</ele>
        <time>2015-09-19T13:40:43Z</time>
      </trkpt>
      <trkpt lat="42.67231" lon="1.51156">
        <ele>2477</ele>
        <time>2015-09-19T13:40:49Z</time>
      </trkpt>
      <trkpt lat="42.67234" lon="1.5115">
        <ele>2475</ele>
        <time>2015-09-19T13:41:01Z</time>
      </trkpt>
      <trkpt lat="42.67236" lon="1.51149">
        <ele>2473</ele>
        <time>2015-09-19T13:41:04Z</time>
      </trkpt>
      <trkpt lat="42.67238" lon="1.51142">
        <ele>2470</ele>
        <time>2015-09-19T13:41:16Z</time>
      </trkpt>
      <trkpt lat="42.67238" lon="1.5114">
        <ele>2468</ele>
        <time>2015-09-19T13:41:25Z</time>
      </trkpt>
      <trkpt lat="42.67238" lon="1.51133">
        <ele>2466</ele>
        <time>2015-09-19T13:41:38Z</time>
      </trkpt>
      <trkpt lat="42.6724" lon="1.51129">
        <ele>2464</ele>
        <time>2015-09-19T13:41:47Z</time>
      </trkpt>
      <trkpt lat="42.67239" lon="1.51124">
        <ele>2461</ele>
        <time>2015-09-19T13:42:01Z</time>
      </trkpt>
      <trkpt lat="42.67238" lon="1.51122">
        <ele>2460</ele>
        <time>2015-09-19T13:42:04Z</time>
      </trkpt>
      <trkpt lat="42.67245" lon="1.51118">
        <ele>2458</ele>
        <time>2015-09-19T13:42:14Z</time>
      </trkpt>
      <trkpt lat="42.67248" lon="1.51115">
        <ele>2455</ele>
        <time>2015-09-19T13:42:28Z</time>
      </trkpt>
      <trkpt lat="42.67247" lon="1.51107">
        <ele>2451</ele>
        <time>2015-09-19T13:42:39Z</time>
      </trkpt>
      <trkpt lat="42.67248" lon="1.51103">
        <ele>2450</ele>
        <time>2015-09-19T13:42:50Z</time>
      </trkpt>
      <trkpt lat="42.67251" lon="1.51098">
        <ele>2447</ele>
        <time>2015-09-19T13:43:03Z</time>
      </trkpt>
      <trkpt lat="42.67254" lon="1.51095">
        <ele>2444</ele>
        <time>2015-09-19T13:43:14Z</time>
      </trkpt>
      <trkpt lat="42.67252" lon="1.51092">
        <ele>2443</ele>
        <time>2015-09-19T13:43:17Z</time>
      </trkpt>
      <trkpt lat="42.67256" lon="1.51086">
        <ele>2440</ele>
        <time>2015-09-19T13:43:29Z</time>
      </trkpt>
      <trkpt lat="42.67252" lon="1.51081">
        <ele>2439</ele>
        <time>2015-09-19T13:43:41Z</time>
      </trkpt>
      <trkpt lat="42.67251" lon="1.51075">
        <ele>2436</ele>
        <time>2015-09-19T13:43:55Z</time>
      </trkpt>
      <trkpt lat="42.67251" lon="1.51075">
        <ele>2436</ele>
        <time>2015-09-19T13:43:56Z</time>
      </trkpt>
      <trkpt lat="42.67254" lon="1.51066">
        <ele>2433</ele>
        <time>2015-09-19T13:44:10Z</time>
      </trkpt>
      <trkpt lat="42.67249" lon="1.51062">
        <ele>2430</ele>
        <time>2015-09-19T13:44:23Z</time>
      </trkpt>
      <trkpt lat="42.6725" lon="1.51057">
        <ele>2428</ele>
        <time>2015-09-19T13:44:42Z</time>
      </trkpt>
      <trkpt lat="42.67248" lon="1.51054">
        <ele>2426</ele>
        <time>2015-09-19T13:44:56Z</time>
      </trkpt>
      <trkpt lat="42.67247" lon="1.51053">
        <ele>2425</ele>
        <time>2015-09-19T13:45:13Z</time>
      </trkpt>
      <trkpt lat="42.6725" lon="1.51048">
        <ele>2422</ele>
        <time>2015-09-19T13:45:28Z</time>
      </trkpt>
      <trkpt lat="42.67251" lon="1.51046">
        <ele>2420</ele>
        <time>2015-09-19T13:45:45Z</time>
      </trkpt>
      <trkpt lat="42.67248" lon="1.51042">
        <ele>2416</ele>
        <time>2015-09-19T13:45:57Z</time>
      </trkpt>
      <trkpt lat="42.67247" lon="1.5104">
        <ele>2416</ele>
        <time>2015-09-19T13:46:16Z</time>
      </trkpt>
      <trkpt lat="42.67245" lon="1.51036">
        <ele>2413</ele>
        <time>2015-09-19T13:46:27Z</time>
      </trkpt>
      <trkpt lat="42.67245" lon="1.51035">
        <ele>2413</ele>
        <time>2015-09-19T13:46:28Z</time>
      </trkpt>
      <trkpt lat="42.6724" lon="1.5103">
        <ele>2410</ele>
        <time>2015-09-19T13:46:40Z</time>
      </trkpt>
      <trkpt lat="42.67234" lon="1.51026">
        <ele>2407</ele>
        <time>2015-09-19T13:46:49Z</time>
      </trkpt>
      <trkpt lat="42.67236" lon="1.51022">
        <ele>2406</ele>
        <time>2015-09-19T13:46:53Z</time>
      </trkpt>
      <trkpt lat="42.67235" lon="1.51017">
        <ele>2403</ele>
        <time>2015-09-19T13:47:06Z</time>
      </trkpt>
      <trkpt lat="42.67236" lon="1.51014">
        <ele>2400</ele>
        <time>2015-09-19T13:47:22Z</time>
      </trkpt>
      <trkpt lat="42.67237" lon="1.5101">
        <ele>2398</ele>
        <time>2015-09-19T13:47:35Z</time>
      </trkpt>
      <trkpt lat="42.67243" lon="1.5101">
        <ele>2396</ele>
        <time>2015-09-19T13:47:49Z</time>
      </trkpt>
      <trkpt lat="42.67246" lon="1.51003">
        <ele>2392</ele>
        <time>2015-09-19T13:48:03Z</time>
      </trkpt>
      <trkpt lat="42.67244" lon="1.51001">
        <ele>2391</ele>
        <time>2015-09-19T13:48:16Z</time>
      </trkpt>
      <trkpt lat="42.67246" lon="1.50995">
        <ele>2389</ele>
        <time>2015-09-19T13:48:24Z</time>
      </trkpt>
      <trkpt lat="42.67247" lon="1.5099">
        <ele>2385</ele>
        <time>2015-09-19T13:48:36Z</time>
      </trkpt>
      <trkpt lat="42.6725" lon="1.50989">
        <ele>2385</ele>
        <time>2015-09-19T13:48:39Z</time>
      </trkpt>
      <trkpt lat="42.67257" lon="1.50982">
        <ele>2381</ele>
        <time>2015-09-19T13:48:52Z</time>
      </trkpt>
      <trkpt lat="42.67258" lon="1.50981">
        <ele>2381</ele>
        <time>2015-09-19T13:48:53Z</time>
      </trkpt>
      <trkpt lat="42.67263" lon="1.50974">
        <ele>2378</ele>
        <time>2015-09-19T13:49:07Z</time>
      </trkpt>
      <trkpt lat="42.67265" lon="1.50968">
        <ele>2376</ele>
        <time>2015-09-19T13:49:23Z</time>
      </trkpt>
      <trkpt lat="42.67269" lon="1.5096">
        <ele>2373</ele>
        <time>2015-09-19T13:49:36Z</time>
      </trkpt>
      <trkpt lat="42.67267" lon="1.5096">
        <ele>2371</ele>
        <time>2015-09-19T13:49:56Z</time>
      </trkpt>
      <trkpt lat="42.67266" lon="1.50956">
        <ele>2370</ele>
        <time>2015-09-19T13:50:15Z</time>
      </trkpt>
      <trkpt lat="42.67274" lon="1.50947">
        <ele>2369</ele>
        <time>2015-09-19T13:50:28Z</time>
      </trkpt>
      <trkpt lat="42.67279" lon="1.5094">
        <ele>2368</ele>
        <time>2015-09-19T13:50:36Z</time>
      </trkpt>
      <trkpt lat="42.67282" lon="1.50929">
        <ele>2368</ele>
        <time>2015-09-19T13:50:50Z</time>
      </trkpt>
      <trkpt lat="42.67282" lon="1.50925">
        <ele>2368</ele>
        <time>2015-09-19T13:50:54Z</time>
      </trkpt>
      <trkpt lat="42.67287" lon="1.50917">
        <ele>2368</ele>
        <time>2015-09-19T13:51:06Z</time>
      </trkpt>
      <trkpt lat="42.67289" lon="1.50909">
        <ele>2367</ele>
        <time>2015-09-19T13:51:14Z</time>
      </trkpt>
      <trkpt lat="42.67292" lon="1.50899">
        <ele>2366</ele>
        <time>2015-09-19T13:51:26Z</time>
      </trkpt>
      <trkpt lat="42.6729" lon="1.50893">
        <ele>2366</ele>
        <time>2015-09-19T13:51:32Z</time>
      </trkpt>
      <trkpt lat="42.67289" lon="1.50877">
        <ele>2364</ele>
        <time>2015-09-19T13:51:47Z</time>
      </trkpt>
      <trkpt lat="42.67288" lon="1.5087">
        <ele>2361</ele>
        <time>2015-09-19T13:51:58Z</time>
      </trkpt>
      <trkpt lat="42.67286" lon="1.50865">
        <ele>2358</ele>
        <time>2015-09-19T13:52:11Z</time>
      </trkpt>
      <trkpt lat="42.6728" lon="1.50866">
        <ele>2354</ele>
        <time>2015-09-19T13:52:23Z</time>
      </trkpt>
      <trkpt lat="42.6728" lon="1.50857">
        <ele>2352</ele>
        <time>2015-09-19T13:52:35Z</time>
      </trkpt>
      <trkpt lat="42.67279" lon="1.50852">
        <ele>2350</ele>
        <time>2015-09-19T13:52:46Z</time>
      </trkpt>
      <trkpt lat="42.67274" lon="1.5085">
        <ele>2348</ele>
        <time>2015-09-19T13:52:58Z</time>
      </trkpt>
      <trkpt lat="42.67277" lon="1.50839">
        <ele>2345</ele>
        <time>2015-09-19T13:53:12Z</time>
      </trkpt>
      <trkpt lat="42.67282" lon="1.50839">
        <ele>2344</ele>
        <time>2015-09-19T13:53:25Z</time>
      </trkpt>
      <trkpt lat="42.67278" lon="1.50839">
        <ele>2341</ele>
        <time>2015-09-19T13:53:45Z</time>
      </trkpt>
      <trkpt lat="42.67274" lon="1.50839">
        <ele>2340</ele>
        <time>2015-09-19T13:54:02Z</time>
      </trkpt>
      <trkpt lat="42.67268" lon="1.50833">
        <ele>2339</ele>
        <time>2015-09-19T13:54:16Z</time>
      </trkpt>
      <trkpt lat="42.67269" lon="1.5083">
        <ele>2337</ele>
        <time>2015-09-19T13:54:32Z</time>
      </trkpt>
      <trkpt lat="42.67266" lon="1.50824">
        <ele>2335</ele>
        <time>2015-09-19T13:54:46Z</time>
      </trkpt>
      <trkpt lat="42.67263" lon="1.50819">
        <ele>2332</ele>
        <time>2015-09-19T13:54:58Z</time>
      </trkpt>
      <trkpt lat="42.67258" lon="1.50816">
        <ele>2329</ele>
        <time>2015-09-19T13:55:12Z</time>
      </trkpt>
      <trkpt lat="42.67257" lon="1.50812">
        <ele>2327</ele>
        <time>2015-09-19T13:55:28Z</time>
      </trkpt>
      <trkpt lat="42.67253" lon="1.50806">
        <ele>2324</ele>
        <time>2015-09-19T13:55:39Z</time>
      </trkpt>
      <trkpt lat="42.67251" lon="1.50801">
        <ele>2321</ele>
        <time>2015-09-19T13:55:51Z</time>
      </trkpt>
      <trkpt lat="42.6725" lon="1.50798">
        <ele>2318</ele>
        <time>2015-09-19T13:56:05Z</time>
      </trkpt>
      <trkpt lat="42.67255" lon="1.50795">
        <ele>2318</ele>
        <time>2015-09-19T13:56:17Z</time>
      </trkpt>
      <trkpt lat="42.67251" lon="1.50795">
        <ele>2316</ele>
        <time>2015-09-19T13:56:34Z</time>
      </trkpt>
      <trkpt lat="42.67247" lon="1.50789">
        <ele>2314</ele>
        <time>2015-09-19T13:56:48Z</time>
      </trkpt>
      <trkpt lat="42.67244" lon="1.50784">
        <ele>2313</ele>
        <time>2015-09-19T13:57:02Z</time>
      </trkpt>
      <trkpt lat="42.67241" lon="1.5078">
        <ele>2311</ele>
        <time>2015-09-19T13:57:12Z</time>
      </trkpt>
      <trkpt lat="42.67239" lon="1.50774">
        <ele>2309</ele>
        <time>2015-09-19T13:57:21Z</time>
      </trkpt>
      <trkpt lat="42.67232" lon="1.50771">
        <ele>2305</ele>
        <time>2015-09-19T13:57:34Z</time>
      </trkpt>
      <trkpt lat="42.67232" lon="1.5077">
        <ele>2305</ele>
        <time>2015-09-19T13:57:35Z</time>
      </trkpt>
      <trkpt lat="42.67228" lon="1.50759">
        <ele>2303</ele>
        <time>2015-09-19T13:57:48Z</time>
      </trkpt>
      <trkpt lat="42.67224" lon="1.50751">
        <ele>2302</ele>
        <time>2015-09-19T13:58:00Z</time>
      </trkpt>
      <trkpt lat="42.67224" lon="1.50746">
        <ele>2301</ele>
        <time>2015-09-19T13:58:05Z</time>
      </trkpt>
      <trkpt lat="42.6722" lon="1.50738">
        <ele>2298</ele>
        <time>2015-09-19T13:58:14Z</time>
      </trkpt>
      <trkpt lat="42.67218" lon="1.50734">
        <ele>2297</ele>
        <time>2015-09-19T13:58:19Z</time>
      </trkpt>
      <trkpt lat="42.67213" lon="1.5072">
        <ele>2296</ele>
        <time>2015-09-19T13:58:33Z</time>
      </trkpt>
      <trkpt lat="42.67213" lon="1.50716">
        <ele>2296</ele>
        <time>2015-09-19T13:58:51Z</time>
      </trkpt>
      <trkpt lat="42.67214" lon="1.50716">
        <ele>2296</ele>
        <time>2015-09-19T13:59:04Z</time>
      </trkpt>
      <trkpt lat="42.67214" lon="1.50717">
        <ele>2295</ele>
        <time>2015-09-19T13:59:20Z</time>
      </trkpt>
      <trkpt lat="42.67214" lon="1.5071">
        <ele>2296</ele>
        <time>2015-09-19T13:59:25Z</time>
      </trkpt>
      <trkpt lat="42.67215" lon="1.50708">
        <ele>2296</ele>
        <time>2015-09-19T13:59:27Z</time>
      </trkpt>
      <trkpt lat="42.67215" lon="1.50699">
        <ele>2296</ele>
        <time>2015-09-19T13:59:33Z</time>
      </trkpt>
      <trkpt lat="42.67211" lon="1.50693">
        <ele>2296</ele>
        <time>2015-09-19T13:59:39Z</time>
      </trkpt>
      <trkpt lat="42.67208" lon="1.50682">
        <ele>2295</ele>
        <time>2015-09-19T13:59:52Z</time>
      </trkpt>
      <trkpt lat="42.67207" lon="1.50676">
        <ele>2295</ele>
        <time>2015-09-19T13:59:57Z</time>
      </trkpt>
      <trkpt lat="42.67204" lon="1.50671">
        <ele>2296</ele>
        <time>2015-09-19T14:00:03Z</time>
      </trkpt>
      <trkpt lat="42.67199" lon="1.50673">
        <ele>2296</ele>
        <time>2015-09-19T14:00:08Z</time>
      </trkpt>
      <trkpt lat="42.6719" lon="1.50661">
        <ele>2299</ele>
        <time>2015-09-19T14:00:23Z</time>
      </trkpt>
      <trkpt lat="42.67182" lon="1.5065">
        <ele>2302</ele>
        <time>2015-09-19T14:00:37Z</time>
      </trkpt>
      <trkpt lat="42.6718" lon="1.50649">
        <ele>2303</ele>
        <time>2015-09-19T14:00:40Z</time>
      </trkpt>
      <trkpt lat="42.67178" lon="1.50644">
        <ele>2303</ele>
        <time>2015-09-19T14:00:44Z</time>
      </trkpt>
      <trkpt lat="42.67173" lon="1.50638">
        <ele>2302</ele>
        <time>2015-09-19T14:00:49Z</time>
      </trkpt>
      <trkpt lat="42.67157" lon="1.50628">
        <ele>2301</ele>
        <time>2015-09-19T14:01:03Z</time>
      </trkpt>
      <trkpt lat="42.6714" lon="1.50618">
        <ele>2302</ele>
        <time>2015-09-19T14:01:17Z</time>
      </trkpt>
      <trkpt lat="42.67138" lon="1.50617">
        <ele>2302</ele>
        <time>2015-09-19T14:01:19Z</time>
      </trkpt>
      <trkpt lat="42.67135" lon="1.50617">
        <ele>2302</ele>
        <time>2015-09-19T14:01:23Z</time>
      </trkpt>
      <trkpt lat="42.67127" lon="1.50609">
        <ele>2304</ele>
        <time>2015-09-19T14:01:33Z</time>
      </trkpt>
      <trkpt lat="42.67121" lon="1.50608">
        <ele>2303</ele>
        <time>2015-09-19T14:01:39Z</time>
      </trkpt>
      <trkpt lat="42.67118" lon="1.50613">
        <ele>2302</ele>
        <time>2015-09-19T14:01:43Z</time>
      </trkpt>
      <trkpt lat="42.67108" lon="1.5062">
        <ele>2302</ele>
        <time>2015-09-19T14:01:57Z</time>
      </trkpt>
      <trkpt lat="42.67097" lon="1.50625">
        <ele>2302</ele>
        <time>2015-09-19T14:02:10Z</time>
      </trkpt>
      <trkpt lat="42.67094" lon="1.5063">
        <ele>2302</ele>
        <time>2015-09-19T14:02:24Z</time>
      </trkpt>
      <trkpt lat="42.67095" lon="1.5063">
        <ele>2301</ele>
        <time>2015-09-19T14:02:25Z</time>
      </trkpt>
      <trkpt lat="42.67092" lon="1.50633">
        <ele>2302</ele>
        <time>2015-09-19T14:02:41Z</time>
      </trkpt>
      <trkpt lat="42.6709" lon="1.5063">
        <ele>2302</ele>
        <time>2015-09-19T14:02:52Z</time>
      </trkpt>
      <trkpt lat="42.67086" lon="1.50627">
        <ele>2301</ele>
        <time>2015-09-19T14:03:11Z</time>
      </trkpt>
      <trkpt lat="42.67091" lon="1.50628">
        <ele>2301</ele>
        <time>2015-09-19T14:03:43Z</time>
      </trkpt>
      <trkpt lat="42.67087" lon="1.50625">
        <ele>2301</ele>
        <time>2015-09-19T14:04:06Z</time>
      </trkpt>
      <trkpt lat="42.6709" lon="1.50628">
        <ele>2301</ele>
        <time>2015-09-19T14:04:27Z</time>
      </trkpt>
      <trkpt lat="42.67093" lon="1.50631">
        <ele>2301</ele>
        <time>2015-09-19T14:04:52Z</time>
      </trkpt>
      <trkpt lat="42.67093" lon="1.50626">
        <ele>2301</ele>
        <time>2015-09-19T14:05:10Z</time>
      </trkpt>
      <trkpt lat="42.67086" lon="1.50627">
        <ele>2302</ele>
        <time>2015-09-19T14:05:19Z</time>
      </trkpt>
      <trkpt lat="42.67085" lon="1.50623">
        <ele>2302</ele>
        <time>2015-09-19T14:05:35Z</time>
      </trkpt>
      <trkpt lat="42.67085" lon="1.50625">
        <ele>2301</ele>
        <time>2015-09-19T14:05:57Z</time>
      </trkpt>
      <trkpt lat="42.67086" lon="1.50625">
        <ele>2301</ele>
        <time>2015-09-19T14:06:19Z</time>
      </trkpt>
      <trkpt lat="42.67086" lon="1.50619">
        <ele>2302</ele>
        <time>2015-09-19T14:06:42Z</time>
      </trkpt>
      <trkpt lat="42.67083" lon="1.50629">
        <ele>2301</ele>
        <time>2015-09-19T14:06:59Z</time>
      </trkpt>
      <trkpt lat="42.67086" lon="1.50629">
        <ele>2301</ele>
        <time>2015-09-19T14:07:24Z</time>
      </trkpt>
      <trkpt lat="42.67077" lon="1.50635">
        <ele>2300</ele>
        <time>2015-09-19T14:07:39Z</time>
      </trkpt>
      <trkpt lat="42.67069" lon="1.50639">
        <ele>2301</ele>
        <time>2015-09-19T14:07:51Z</time>
      </trkpt>
      <trkpt lat="42.67063" lon="1.50638">
        <ele>2303</ele>
        <time>2015-09-19T14:08:03Z</time>
      </trkpt>
      <trkpt lat="42.67057" lon="1.50637">
        <ele>2305</ele>
        <time>2015-09-19T14:08:14Z</time>
      </trkpt>
      <trkpt lat="42.67054" lon="1.50642">
        <ele>2308</ele>
        <time>2015-09-19T14:08:25Z</time>
      </trkpt>
      <trkpt lat="42.67046" lon="1.50646">
        <ele>2309</ele>
        <time>2015-09-19T14:08:38Z</time>
      </trkpt>
      <trkpt lat="42.67046" lon="1.50656">
        <ele>2309</ele>
        <time>2015-09-19T14:08:56Z</time>
      </trkpt>
      <trkpt lat="42.67038" lon="1.50655">
        <ele>2310</ele>
        <time>2015-09-19T14:09:15Z</time>
      </trkpt>
      <trkpt lat="42.67026" lon="1.50648">
        <ele>2312</ele>
        <time>2015-09-19T14:09:29Z</time>
      </trkpt>
      <trkpt lat="42.67024" lon="1.50647">
        <ele>2313</ele>
        <time>2015-09-19T14:09:42Z</time>
      </trkpt>
      <trkpt lat="42.6702" lon="1.50636">
        <ele>2311</ele>
        <time>2015-09-19T14:09:57Z</time>
      </trkpt>
      <trkpt lat="42.67012" lon="1.50624">
        <ele>2314</ele>
        <time>2015-09-19T14:10:10Z</time>
      </trkpt>
      <trkpt lat="42.67003" lon="1.50611">
        <ele>2314</ele>
        <time>2015-09-19T14:10:21Z</time>
      </trkpt>
      <trkpt lat="42.67002" lon="1.50603">
        <ele>2313</ele>
        <time>2015-09-19T14:10:28Z</time>
      </trkpt>
      <trkpt lat="42.67" lon="1.50597">
        <ele>2313</ele>
        <time>2015-09-19T14:10:32Z</time>
      </trkpt>
      <trkpt lat="42.66997" lon="1.50585">
        <ele>2313</ele>
        <time>2015-09-19T14:10:43Z</time>
      </trkpt>
      <trkpt lat="42.66993" lon="1.50571">
        <ele>2314</ele>
        <time>2015-09-19T14:10:55Z</time>
      </trkpt>
      <trkpt lat="42.66992" lon="1.50569">
        <ele>2314</ele>
        <time>2015-09-19T14:10:57Z</time>
      </trkpt>
      <trkpt lat="42.66986" lon="1.50558">
        <ele>2312</ele>
        <time>2015-09-19T14:11:12Z</time>
      </trkpt>
      <trkpt lat="42.6698" lon="1.50547">
        <ele>2312</ele>
        <time>2015-09-19T14:11:21Z</time>
      </trkpt>
      <trkpt lat="42.66979" lon="1.50545">
        <ele>2312</ele>
        <time>2015-09-19T14:11:23Z</time>
      </trkpt>
      <trkpt lat="42.66975" lon="1.50537">
        <ele>2311</ele>
        <time>2015-09-19T14:11:31Z</time>
      </trkpt>
      <trkpt lat="42.66964" lon="1.50536">
        <ele>2311</ele>
        <time>2015-09-19T14:11:41Z</time>
      </trkpt>
      <trkpt lat="42.66958" lon="1.50535">
        <ele>2311</ele>
        <time>2015-09-19T14:11:46Z</time>
      </trkpt>
      <trkpt lat="42.66949" lon="1.50521">
        <ele>2310</ele>
        <time>2015-09-19T14:11:57Z</time>
      </trkpt>
      <trkpt lat="42.66955" lon="1.50498">
        <ele>2310</ele>
        <time>2015-09-19T14:12:13Z</time>
      </trkpt>
      <trkpt lat="42.66951" lon="1.50503">
        <ele>2309</ele>
        <time>2015-09-19T14:12:27Z</time>
      </trkpt>
      <trkpt lat="42.66947" lon="1.50505">
        <ele>2309</ele>
        <time>2015-09-19T14:12:31Z</time>
      </trkpt>
      <trkpt lat="42.66937" lon="1.50497">
        <ele>2310</ele>
        <time>2015-09-19T14:12:45Z</time>
      </trkpt>
      <trkpt lat="42.66936" lon="1.50496">
        <ele>2310</ele>
        <time>2015-09-19T14:12:47Z</time>
      </trkpt>
      <trkpt lat="42.66927" lon="1.50484">
        <ele>2309</ele>
        <time>2015-09-19T14:13:02Z</time>
      </trkpt>
      <trkpt lat="42.66924" lon="1.50481">
        <ele>2310</ele>
        <time>2015-09-19T14:13:06Z</time>
      </trkpt>
      <trkpt lat="42.66918" lon="1.50467">
        <ele>2311</ele>
        <time>2015-09-19T14:13:20Z</time>
      </trkpt>
      <trkpt lat="42.66912" lon="1.50456">
        <ele>2312</ele>
        <time>2015-09-19T14:13:33Z</time>
      </trkpt>
      <trkpt lat="42.66909" lon="1.50449">
        <ele>2310</ele>
        <time>2015-09-19T14:13:46Z</time>
      </trkpt>
      <trkpt lat="42.66909" lon="1.50445">
        <ele>2311</ele>
        <time>2015-09-19T14:13:57Z</time>
      </trkpt>
      <trkpt lat="42.66904" lon="1.50439">
        <ele>2312</ele>
        <time>2015-09-19T14:14:10Z</time>
      </trkpt>
      <trkpt lat="42.669" lon="1.50437">
        <ele>2313</ele>
        <time>2015-09-19T14:14:16Z</time>
      </trkpt>
      <trkpt lat="42.66896" lon="1.50422">
        <ele>2314</ele>
        <time>2015-09-19T14:14:28Z</time>
      </trkpt>
      <trkpt lat="42.66888" lon="1.50415">
        <ele>2316</ele>
        <time>2015-09-19T14:14:42Z</time>
      </trkpt>
      <trkpt lat="42.66888" lon="1.50409">
        <ele>2317</ele>
        <time>2015-09-19T14:14:46Z</time>
      </trkpt>
      <trkpt lat="42.66885" lon="1.50402">
        <ele>2317</ele>
        <time>2015-09-19T14:14:52Z</time>
      </trkpt>
      <trkpt lat="42.66882" lon="1.50397">
        <ele>2318</ele>
        <time>2015-09-19T14:15:05Z</time>
      </trkpt>
      <trkpt lat="42.66881" lon="1.50387">
        <ele>2318</ele>
        <time>2015-09-19T14:15:23Z</time>
      </trkpt>
      <trkpt lat="42.66882" lon="1.50388">
        <ele>2318</ele>
        <time>2015-09-19T14:15:41Z</time>
      </trkpt>
      <trkpt lat="42.66875" lon="1.50389">
        <ele>2318</ele>
        <time>2015-09-19T14:15:51Z</time>
      </trkpt>
      <trkpt lat="42.66866" lon="1.50393">
        <ele>2321</ele>
        <time>2015-09-19T14:16:05Z</time>
      </trkpt>
      <trkpt lat="42.66859" lon="1.50395">
        <ele>2322</ele>
        <time>2015-09-19T14:16:19Z</time>
      </trkpt>
      <trkpt lat="42.66852" lon="1.50388">
        <ele>2322</ele>
        <time>2015-09-19T14:16:32Z</time>
      </trkpt>
      <trkpt lat="42.66848" lon="1.50381">
        <ele>2323</ele>
        <time>2015-09-19T14:16:42Z</time>
      </trkpt>
      <trkpt lat="42.66841" lon="1.50368">
        <ele>2324</ele>
        <time>2015-09-19T14:16:56Z</time>
      </trkpt>
      <trkpt lat="42.66836" lon="1.5036">
        <ele>2326</ele>
        <time>2015-09-19T14:17:10Z</time>
      </trkpt>
      <trkpt lat="42.66828" lon="1.50361">
        <ele>2328</ele>
        <time>2015-09-19T14:17:22Z</time>
      </trkpt>
      <trkpt lat="42.66823" lon="1.5036">
        <ele>2331</ele>
        <time>2015-09-19T14:17:35Z</time>
      </trkpt>
      <trkpt lat="42.66823" lon="1.5036">
        <ele>2331</ele>
        <time>2015-09-19T14:17:36Z</time>
      </trkpt>
      <trkpt lat="42.66823" lon="1.50349">
        <ele>2331</ele>
        <time>2015-09-19T14:17:48Z</time>
      </trkpt>
      <trkpt lat="42.66822" lon="1.50345">
        <ele>2331</ele>
        <time>2015-09-19T14:18:00Z</time>
      </trkpt>
      <trkpt lat="42.66821" lon="1.50335">
        <ele>2333</ele>
        <time>2015-09-19T14:18:13Z</time>
      </trkpt>
      <trkpt lat="42.66821" lon="1.50323">
        <ele>2335</ele>
        <time>2015-09-19T14:18:26Z</time>
      </trkpt>
      <trkpt lat="42.6682" lon="1.50313">
        <ele>2338</ele>
        <time>2015-09-19T14:18:39Z</time>
      </trkpt>
      <trkpt lat="42.66823" lon="1.50304">
        <ele>2339</ele>
        <time>2015-09-19T14:18:47Z</time>
      </trkpt>
      <trkpt lat="42.66822" lon="1.50296">
        <ele>2341</ele>
        <time>2015-09-19T14:19:00Z</time>
      </trkpt>
      <trkpt lat="42.66819" lon="1.50297">
        <ele>2342</ele>
        <time>2015-09-19T14:19:13Z</time>
      </trkpt>
      <trkpt lat="42.66816" lon="1.50287">
        <ele>2345</ele>
        <time>2015-09-19T14:19:27Z</time>
      </trkpt>
      <trkpt lat="42.6681" lon="1.50287">
        <ele>2347</ele>
        <time>2015-09-19T14:19:41Z</time>
      </trkpt>
      <trkpt lat="42.66806" lon="1.50293">
        <ele>2348</ele>
        <time>2015-09-19T14:19:49Z</time>
      </trkpt>
      <trkpt lat="42.66804" lon="1.50304">
        <ele>2348</ele>
        <time>2015-09-19T14:20:02Z</time>
      </trkpt>
      <trkpt lat="42.66803" lon="1.5031">
        <ele>2348</ele>
        <time>2015-09-19T14:20:09Z</time>
      </trkpt>
      <trkpt lat="42.66797" lon="1.50318">
        <ele>2349</ele>
        <time>2015-09-19T14:20:21Z</time>
      </trkpt>
      <trkpt lat="42.66794" lon="1.50322">
        <ele>2350</ele>
        <time>2015-09-19T14:20:33Z</time>
      </trkpt>
      <trkpt lat="42.6679" lon="1.50329">
        <ele>2351</ele>
        <time>2015-09-19T14:20:45Z</time>
      </trkpt>
      <trkpt lat="42.66786" lon="1.50328">
        <ele>2352</ele>
        <time>2015-09-19T14:21:01Z</time>
      </trkpt>
      <trkpt lat="42.66783" lon="1.50327">
        <ele>2354</ele>
        <time>2015-09-19T14:21:15Z</time>
      </trkpt>
      <trkpt lat="42.66781" lon="1.50327">
        <ele>2355</ele>
        <time>2015-09-19T14:21:38Z</time>
      </trkpt>
      <trkpt lat="42.66781" lon="1.50324">
        <ele>2356</ele>
        <time>2015-09-19T14:21:54Z</time>
      </trkpt>
      <trkpt lat="42.66782" lon="1.5032">
        <ele>2356</ele>
        <time>2015-09-19T14:22:35Z</time>
      </trkpt>
      <trkpt lat="42.6678" lon="1.50321">
        <ele>2356</ele>
        <time>2015-09-19T14:23:01Z</time>
      </trkpt>
      <trkpt lat="42.66779" lon="1.50321">
        <ele>2355</ele>
        <time>2015-09-19T14:23:29Z</time>
      </trkpt>
      <trkpt lat="42.6678" lon="1.50319">
        <ele>2356</ele>
        <time>2015-09-19T14:23:53Z</time>
      </trkpt>
      <trkpt lat="42.6678" lon="1.50317">
        <ele>2356</ele>
        <time>2015-09-19T14:24:19Z</time>
      </trkpt>
      <trkpt lat="42.66777" lon="1.50319">
        <ele>2356</ele>
        <time>2015-09-19T14:24:44Z</time>
      </trkpt>
      <trkpt lat="42.66772" lon="1.5031">
        <ele>2359</ele>
        <time>2015-09-19T14:24:58Z</time>
      </trkpt>
      <trkpt lat="42.6677" lon="1.50307">
        <ele>2359</ele>
        <time>2015-09-19T14:25:02Z</time>
      </trkpt>
      <trkpt lat="42.66769" lon="1.50303">
        <ele>2361</ele>
        <time>2015-09-19T14:25:05Z</time>
      </trkpt>
      <trkpt lat="42.66767" lon="1.50298">
        <ele>2361</ele>
        <time>2015-09-19T14:25:10Z</time>
      </trkpt>
      <trkpt lat="42.66761" lon="1.50295">
        <ele>2364</ele>
        <time>2015-09-19T14:25:24Z</time>
      </trkpt>
      <trkpt lat="42.6676" lon="1.50286">
        <ele>2366</ele>
        <time>2015-09-19T14:25:38Z</time>
      </trkpt>
      <trkpt lat="42.66756" lon="1.50289">
        <ele>2369</ele>
        <time>2015-09-19T14:25:52Z</time>
      </trkpt>
      <trkpt lat="42.66749" lon="1.50297">
        <ele>2372</ele>
        <time>2015-09-19T14:26:06Z</time>
      </trkpt>
      <trkpt lat="42.66745" lon="1.5031">
        <ele>2373</ele>
        <time>2015-09-19T14:26:20Z</time>
      </trkpt>
      <trkpt lat="42.66736" lon="1.50316">
        <ele>2372</ele>
        <time>2015-09-19T14:26:33Z</time>
      </trkpt>
      <trkpt lat="42.66726" lon="1.50314">
        <ele>2373</ele>
        <time>2015-09-19T14:26:44Z</time>
      </trkpt>
      <trkpt lat="42.66722" lon="1.50313">
        <ele>2375</ele>
        <time>2015-09-19T14:26:51Z</time>
      </trkpt>
      <trkpt lat="42.66715" lon="1.50314">
        <ele>2375</ele>
        <time>2015-09-19T14:27:02Z</time>
      </trkpt>
      <trkpt lat="42.66709" lon="1.50308">
        <ele>2376</ele>
        <time>2015-09-19T14:27:15Z</time>
      </trkpt>
      <trkpt lat="42.66703" lon="1.50304">
        <ele>2377</ele>
        <time>2015-09-19T14:27:28Z</time>
      </trkpt>
      <trkpt lat="42.66696" lon="1.50307">
        <ele>2378</ele>
        <time>2015-09-19T14:27:38Z</time>
      </trkpt>
      <trkpt lat="42.66692" lon="1.5031">
        <ele>2380</ele>
        <time>2015-09-19T14:27:50Z</time>
      </trkpt>
      <trkpt lat="42.66688" lon="1.50311">
        <ele>2384</ele>
        <time>2015-09-19T14:28:02Z</time>
      </trkpt>
      <trkpt lat="42.6668" lon="1.50308">
        <ele>2385</ele>
        <time>2015-09-19T14:28:13Z</time>
      </trkpt>
      <trkpt lat="42.66673" lon="1.50301">
        <ele>2385</ele>
        <time>2015-09-19T14:28:25Z</time>
      </trkpt>
      <trkpt lat="42.66671" lon="1.50295">
        <ele>2385</ele>
        <time>2015-09-19T14:28:30Z</time>
      </trkpt>
      <trkpt lat="42.66668" lon="1.50293">
        <ele>2385</ele>
        <time>2015-09-19T14:28:33Z</time>
      </trkpt>
      <trkpt lat="42.66658" lon="1.50291">
        <ele>2387</ele>
        <time>2015-09-19T14:28:45Z</time>
      </trkpt>
      <trkpt lat="42.66656" lon="1.5029">
        <ele>2388</ele>
        <time>2015-09-19T14:28:48Z</time>
      </trkpt>
      <trkpt lat="42.66642" lon="1.50281">
        <ele>2387</ele>
        <time>2015-09-19T14:29:02Z</time>
      </trkpt>
      <trkpt lat="42.66632" lon="1.50285">
        <ele>2387</ele>
        <time>2015-09-19T14:29:15Z</time>
      </trkpt>
      <trkpt lat="42.66629" lon="1.50284">
        <ele>2386</ele>
        <time>2015-09-19T14:29:29Z</time>
      </trkpt>
      <trkpt lat="42.66624" lon="1.50286">
        <ele>2384</ele>
        <time>2015-09-19T14:29:42Z</time>
      </trkpt>
      <trkpt lat="42.66623" lon="1.50286">
        <ele>2384</ele>
        <time>2015-09-19T14:29:44Z</time>
      </trkpt>
      <trkpt lat="42.66615" lon="1.50282">
        <ele>2384</ele>
        <time>2015-09-19T14:29:56Z</time>
      </trkpt>
      <trkpt lat="42.66609" lon="1.50275">
        <ele>2381</ele>
        <time>2015-09-19T14:30:10Z</time>
      </trkpt>
      <trkpt lat="42.66604" lon="1.50268">
        <ele>2378</ele>
        <time>2015-09-19T14:30:23Z</time>
      </trkpt>
      <trkpt lat="42.666" lon="1.50268">
        <ele>2378</ele>
        <time>2015-09-19T14:30:27Z</time>
      </trkpt>
      <trkpt lat="42.66596" lon="1.50256">
        <ele>2376</ele>
        <time>2015-09-19T14:30:41Z</time>
      </trkpt>
      <trkpt lat="42.66592" lon="1.50251">
        <ele>2375</ele>
        <time>2015-09-19T14:30:49Z</time>
      </trkpt>
      <trkpt lat="42.6659" lon="1.50247">
        <ele>2375</ele>
        <time>2015-09-19T14:30:54Z</time>
      </trkpt>
      <trkpt lat="42.66584" lon="1.50246">
        <ele>2375</ele>
        <time>2015-09-19T14:31:07Z</time>
      </trkpt>
      <trkpt lat="42.66576" lon="1.50247">
        <ele>2373</ele>
        <time>2015-09-19T14:31:21Z</time>
      </trkpt>
      <trkpt lat="42.66576" lon="1.50237">
        <ele>2372</ele>
        <time>2015-09-19T14:31:34Z</time>
      </trkpt>
      <trkpt lat="42.66576" lon="1.50234">
        <ele>2372</ele>
        <time>2015-09-19T14:31:56Z</time>
      </trkpt>
      <trkpt lat="42.66576" lon="1.50231">
        <ele>2372</ele>
        <time>2015-09-19T14:32:21Z</time>
      </trkpt>
      <trkpt lat="42.66573" lon="1.50224">
        <ele>2369</ele>
        <time>2015-09-19T14:32:34Z</time>
      </trkpt>
      <trkpt lat="42.66566" lon="1.5022">
        <ele>2366</ele>
        <time>2015-09-19T14:32:47Z</time>
      </trkpt>
      <trkpt lat="42.66557" lon="1.50213">
        <ele>2364</ele>
        <time>2015-09-19T14:33:00Z</time>
      </trkpt>
      <trkpt lat="42.66555" lon="1.50214">
        <ele>2363</ele>
        <time>2015-09-19T14:33:04Z</time>
      </trkpt>
      <trkpt lat="42.66547" lon="1.50215">
        <ele>2359</ele>
        <time>2015-09-19T14:33:15Z</time>
      </trkpt>
      <trkpt lat="42.66541" lon="1.50207">
        <ele>2357</ele>
        <time>2015-09-19T14:33:28Z</time>
      </trkpt>
      <trkpt lat="42.66532" lon="1.50205">
        <ele>2353</ele>
        <time>2015-09-19T14:33:43Z</time>
      </trkpt>
      <trkpt lat="42.66531" lon="1.50206">
        <ele>2353</ele>
        <time>2015-09-19T14:33:44Z</time>
      </trkpt>
      <trkpt lat="42.66527" lon="1.50201">
        <ele>2350</ele>
        <time>2015-09-19T14:33:53Z</time>
      </trkpt>
      <trkpt lat="42.66521" lon="1.50199">
        <ele>2351</ele>
        <time>2015-09-19T14:34:04Z</time>
      </trkpt>
      <trkpt lat="42.66516" lon="1.50204">
        <ele>2348</ele>
        <time>2015-09-19T14:34:19Z</time>
      </trkpt>
      <trkpt lat="42.66509" lon="1.50204">
        <ele>2345</ele>
        <time>2015-09-19T14:34:31Z</time>
      </trkpt>
      <trkpt lat="42.66502" lon="1.5021">
        <ele>2342</ele>
        <time>2015-09-19T14:34:48Z</time>
      </trkpt>
      <trkpt lat="42.66498" lon="1.50215">
        <ele>2340</ele>
        <time>2015-09-19T14:34:59Z</time>
      </trkpt>
      <trkpt lat="42.66494" lon="1.50206">
        <ele>2339</ele>
        <time>2015-09-19T14:35:08Z</time>
      </trkpt>
      <trkpt lat="42.66495" lon="1.50201">
        <ele>2338</ele>
        <time>2015-09-19T14:35:26Z</time>
      </trkpt>
      <trkpt lat="42.66498" lon="1.50193">
        <ele>2336</ele>
        <time>2015-09-19T14:35:39Z</time>
      </trkpt>
      <trkpt lat="42.66497" lon="1.50192">
        <ele>2335</ele>
        <time>2015-09-19T14:35:43Z</time>
      </trkpt>
      <trkpt lat="42.66492" lon="1.50191">
        <ele>2333</ele>
        <time>2015-09-19T14:35:54Z</time>
      </trkpt>
      <trkpt lat="42.66491" lon="1.50191">
        <ele>2333</ele>
        <time>2015-09-19T14:35:59Z</time>
      </trkpt>
      <trkpt lat="42.66486" lon="1.50194">
        <ele>2333</ele>
        <time>2015-09-19T14:36:11Z</time>
      </trkpt>
      <trkpt lat="42.6648" lon="1.50193">
        <ele>2331</ele>
        <time>2015-09-19T14:36:23Z</time>
      </trkpt>
      <trkpt lat="42.66479" lon="1.50194">
        <ele>2331</ele>
        <time>2015-09-19T14:36:26Z</time>
      </trkpt>
      <trkpt lat="42.66472" lon="1.50188">
        <ele>2329</ele>
        <time>2015-09-19T14:36:36Z</time>
      </trkpt>
      <trkpt lat="42.66466" lon="1.50186">
        <ele>2327</ele>
        <time>2015-09-19T14:36:42Z</time>
      </trkpt>
      <trkpt lat="42.66458" lon="1.50183">
        <ele>2327</ele>
        <time>2015-09-19T14:36:51Z</time>
      </trkpt>
      <trkpt lat="42.66447" lon="1.50181">
        <ele>2327</ele>
        <time>2015-09-19T14:37:01Z</time>
      </trkpt>
      <trkpt lat="42.66439" lon="1.50181">
        <ele>2329</ele>
        <time>2015-09-19T14:37:13Z</time>
      </trkpt>
      <trkpt lat="42.66432" lon="1.50177">
        <ele>2326</ele>
        <time>2015-09-19T14:37:23Z</time>
      </trkpt>
      <trkpt lat="42.66431" lon="1.50176">
        <ele>2330</ele>
        <time>2015-09-19T14:37:24Z</time>
      </trkpt>
      <trkpt lat="42.6643" lon="1.50175">
        <ele>2325</ele>
        <time>2015-09-19T14:37:28Z</time>
      </trkpt>
      <trkpt lat="42.6643" lon="1.50175">
        <ele>2329</ele>
        <time>2015-09-19T14:37:29Z</time>
      </trkpt>
      <trkpt lat="42.66431" lon="1.50175">
        <ele>2325</ele>
        <time>2015-09-19T14:37:32Z</time>
      </trkpt>
      <trkpt lat="42.6643" lon="1.50174">
        <ele>2330</ele>
        <time>2015-09-19T14:37:33Z</time>
      </trkpt>
      <trkpt lat="42.6643" lon="1.50173">
        <ele>2327</ele>
        <time>2015-09-19T14:37:42Z</time>
      </trkpt>
      <trkpt lat="42.66429" lon="1.50167">
        <ele>2327</ele>
        <time>2015-09-19T14:37:50Z</time>
      </trkpt>
      <trkpt lat="42.66426" lon="1.50164">
        <ele>2327</ele>
        <time>2015-09-19T14:37:58Z</time>
      </trkpt>
      <trkpt lat="42.66421" lon="1.50156">
        <ele>2326</ele>
        <time>2015-09-19T14:38:05Z</time>
      </trkpt>
      <trkpt lat="42.66413" lon="1.50156">
        <ele>2324</ele>
        <time>2015-09-19T14:38:19Z</time>
      </trkpt>
      <trkpt lat="42.66405" lon="1.5015">
        <ele>2322</ele>
        <time>2015-09-19T14:38:25Z</time>
      </trkpt>
      <trkpt lat="42.66396" lon="1.50145">
        <ele>2322</ele>
        <time>2015-09-19T14:38:32Z</time>
      </trkpt>
      <trkpt lat="42.66394" lon="1.50145">
        <ele>2321</ele>
        <time>2015-09-19T14:38:35Z</time>
      </trkpt>
      <trkpt lat="42.66387" lon="1.50137">
        <ele>2321</ele>
        <time>2015-09-19T14:38:49Z</time>
      </trkpt>
      <trkpt lat="42.6638" lon="1.50128">
        <ele>2318</ele>
        <time>2015-09-19T14:39:03Z</time>
      </trkpt>
      <trkpt lat="42.6638" lon="1.50122">
        <ele>2317</ele>
        <time>2015-09-19T14:39:11Z</time>
      </trkpt>
      <trkpt lat="42.6637" lon="1.50118">
        <ele>2314</ele>
        <time>2015-09-19T14:39:23Z</time>
      </trkpt>
      <trkpt lat="42.66364" lon="1.50111">
        <ele>2312</ele>
        <time>2015-09-19T14:39:31Z</time>
      </trkpt>
      <trkpt lat="42.66362" lon="1.50106">
        <ele>2313</ele>
        <time>2015-09-19T14:39:36Z</time>
      </trkpt>
      <trkpt lat="42.66353" lon="1.50098">
        <ele>2312</ele>
        <time>2015-09-19T14:39:50Z</time>
      </trkpt>
      <trkpt lat="42.66351" lon="1.50096">
        <ele>2312</ele>
        <time>2015-09-19T14:39:52Z</time>
      </trkpt>
      <trkpt lat="42.6634" lon="1.50092">
        <ele>2313</ele>
        <time>2015-09-19T14:40:05Z</time>
      </trkpt>
      <trkpt lat="42.66338" lon="1.50092">
        <ele>2313</ele>
        <time>2015-09-19T14:40:07Z</time>
      </trkpt>
      <trkpt lat="42.6633" lon="1.5009">
        <ele>2314</ele>
        <time>2015-09-19T14:40:14Z</time>
      </trkpt>
      <trkpt lat="42.66331" lon="1.50091">
        <ele>2314</ele>
        <time>2015-09-19T14:40:23Z</time>
      </trkpt>
      <trkpt lat="42.66326" lon="1.5009">
        <ele>2315</ele>
        <time>2015-09-19T14:40:34Z</time>
      </trkpt>
      <trkpt lat="42.66313" lon="1.5009">
        <ele>2316</ele>
        <time>2015-09-19T14:40:49Z</time>
      </trkpt>
      <trkpt lat="42.66305" lon="1.50084">
        <ele>2317</ele>
        <time>2015-09-19T14:41:02Z</time>
      </trkpt>
      <trkpt lat="42.66297" lon="1.50084">
        <ele>2318</ele>
        <time>2015-09-19T14:41:14Z</time>
      </trkpt>
      <trkpt lat="42.66292" lon="1.5008">
        <ele>2320</ele>
        <time>2015-09-19T14:41:26Z</time>
      </trkpt>
      <trkpt lat="42.66285" lon="1.50078">
        <ele>2320</ele>
        <time>2015-09-19T14:41:36Z</time>
      </trkpt>
      <trkpt lat="42.66275" lon="1.50063">
        <ele>2321</ele>
        <time>2015-09-19T14:41:50Z</time>
      </trkpt>
      <trkpt lat="42.66273" lon="1.50059">
        <ele>2321</ele>
        <time>2015-09-19T14:41:54Z</time>
      </trkpt>
      <trkpt lat="42.66268" lon="1.50048">
        <ele>2321</ele>
        <time>2015-09-19T14:42:06Z</time>
      </trkpt>
      <trkpt lat="42.66264" lon="1.50042">
        <ele>2318</ele>
        <time>2015-09-19T14:42:19Z</time>
      </trkpt>
      <trkpt lat="42.66262" lon="1.50035">
        <ele>2316</ele>
        <time>2015-09-19T14:42:32Z</time>
      </trkpt>
      <trkpt lat="42.66261" lon="1.50031">
        <ele>2314</ele>
        <time>2015-09-19T14:42:44Z</time>
      </trkpt>
      <trkpt lat="42.66258" lon="1.50024">
        <ele>2313</ele>
        <time>2015-09-19T14:42:54Z</time>
      </trkpt>
      <trkpt lat="42.66256" lon="1.50016">
        <ele>2313</ele>
        <time>2015-09-19T14:43:04Z</time>
      </trkpt>
      <trkpt lat="42.66262" lon="1.50005">
        <ele>2315</ele>
        <time>2015-09-19T14:43:19Z</time>
      </trkpt>
      <trkpt lat="42.66263" lon="1.49997">
        <ele>2317</ele>
        <time>2015-09-19T14:43:33Z</time>
      </trkpt>
      <trkpt lat="42.66264" lon="1.4999">
        <ele>2317</ele>
        <time>2015-09-19T14:43:46Z</time>
      </trkpt>
      <trkpt lat="42.66266" lon="1.49985">
        <ele>2319</ele>
        <time>2015-09-19T14:43:57Z</time>
      </trkpt>
      <trkpt lat="42.66268" lon="1.49981">
        <ele>2318</ele>
        <time>2015-09-19T14:44:05Z</time>
      </trkpt>
      <trkpt lat="42.66269" lon="1.4998">
        <ele>2318</ele>
        <time>2015-09-19T14:44:10Z</time>
      </trkpt>
      <trkpt lat="42.66268" lon="1.49976">
        <ele>2320</ele>
        <time>2015-09-19T14:44:22Z</time>
      </trkpt>
      <trkpt lat="42.66271" lon="1.49973">
        <ele>2319</ele>
        <time>2015-09-19T14:44:40Z</time>
      </trkpt>
      <trkpt lat="42.66272" lon="1.49964">
        <ele>2322</ele>
        <time>2015-09-19T14:44:52Z</time>
      </trkpt>
      <trkpt lat="42.66276" lon="1.49957">
        <ele>2322</ele>
        <time>2015-09-19T14:45:05Z</time>
      </trkpt>
      <trkpt lat="42.66279" lon="1.49948">
        <ele>2323</ele>
        <time>2015-09-19T14:45:15Z</time>
      </trkpt>
      <trkpt lat="42.6628" lon="1.49946">
        <ele>2321</ele>
        <time>2015-09-19T14:45:18Z</time>
      </trkpt>
      <trkpt lat="42.66283" lon="1.49939">
        <ele>2322</ele>
        <time>2015-09-19T14:45:30Z</time>
      </trkpt>
      <trkpt lat="42.66286" lon="1.49924">
        <ele>2322</ele>
        <time>2015-09-19T14:45:42Z</time>
      </trkpt>
      <trkpt lat="42.6629" lon="1.49914">
        <ele>2319</ele>
        <time>2015-09-19T14:45:57Z</time>
      </trkpt>
      <trkpt lat="42.66289" lon="1.49915">
        <ele>2318</ele>
        <time>2015-09-19T14:46:04Z</time>
      </trkpt>
      <trkpt lat="42.6629" lon="1.49916">
        <ele>2318</ele>
        <time>2015-09-19T14:46:18Z</time>
      </trkpt>
      <trkpt lat="42.66296" lon="1.49906">
        <ele>2318</ele>
        <time>2015-09-19T14:46:36Z</time>
      </trkpt>
      <trkpt lat="42.663" lon="1.49904">
        <ele>2315</ele>
        <time>2015-09-19T14:46:48Z</time>
      </trkpt>
      <trkpt lat="42.663" lon="1.49899">
        <ele>2314</ele>
        <time>2015-09-19T14:47:04Z</time>
      </trkpt>
      <trkpt lat="42.66304" lon="1.49892">
        <ele>2315</ele>
        <time>2015-09-19T14:47:18Z</time>
      </trkpt>
      <trkpt lat="42.66308" lon="1.4989">
        <ele>2314</ele>
        <time>2015-09-19T14:47:31Z</time>
      </trkpt>
      <trkpt lat="42.66311" lon="1.49883">
        <ele>2314</ele>
        <time>2015-09-19T14:47:48Z</time>
      </trkpt>
      <trkpt lat="42.66314" lon="1.49878">
        <ele>2313</ele>
        <time>2015-09-19T14:48:01Z</time>
      </trkpt>
      <trkpt lat="42.66316" lon="1.49876">
        <ele>2312</ele>
        <time>2015-09-19T14:48:16Z</time>
      </trkpt>
      <trkpt lat="42.66318" lon="1.49871">
        <ele>2311</ele>
        <time>2015-09-19T14:48:35Z</time>
      </trkpt>
      <trkpt lat="42.66318" lon="1.49871">
        <ele>2310</ele>
        <time>2015-09-19T14:48:50Z</time>
      </trkpt>
      <trkpt lat="42.66322" lon="1.49861">
        <ele>2311</ele>
        <time>2015-09-19T14:49:04Z</time>
      </trkpt>
      <trkpt lat="42.66326" lon="1.49855">
        <ele>2310</ele>
        <time>2015-09-19T14:49:17Z</time>
      </trkpt>
      <trkpt lat="42.66329" lon="1.49852">
        <ele>2310</ele>
        <time>2015-09-19T14:49:34Z</time>
      </trkpt>
      <trkpt lat="42.66329" lon="1.49848">
        <ele>2312</ele>
        <time>2015-09-19T14:49:50Z</time>
      </trkpt>
      <trkpt lat="42.66329" lon="1.49839">
        <ele>2313</ele>
        <time>2015-09-19T14:50:04Z</time>
      </trkpt>
      <trkpt lat="42.6633" lon="1.49831">
        <ele>2314</ele>
        <time>2015-09-19T14:50:18Z</time>
      </trkpt>
      <trkpt lat="42.66334" lon="1.49821">
        <ele>2314</ele>
        <time>2015-09-19T14:50:31Z</time>
      </trkpt>
      <trkpt lat="42.66334" lon="1.49815">
        <ele>2314</ele>
        <time>2015-09-19T14:50:43Z</time>
      </trkpt>
      <trkpt lat="42.66336" lon="1.49808">
        <ele>2314</ele>
        <time>2015-09-19T14:50:58Z</time>
      </trkpt>
      <trkpt lat="42.66337" lon="1.49799">
        <ele>2314</ele>
        <time>2015-09-19T14:51:10Z</time>
      </trkpt>
      <trkpt lat="42.66335" lon="1.49796">
        <ele>2316</ele>
        <time>2015-09-19T14:51:21Z</time>
      </trkpt>
      <trkpt lat="42.66334" lon="1.49788">
        <ele>2318</ele>
        <time>2015-09-19T14:51:34Z</time>
      </trkpt>
      <trkpt lat="42.66335" lon="1.49785">
        <ele>2319</ele>
        <time>2015-09-19T14:51:38Z</time>
      </trkpt>
      <trkpt lat="42.66333" lon="1.49784">
        <ele>2316</ele>
        <time>2015-09-19T14:51:42Z</time>
      </trkpt>
      <trkpt lat="42.66333" lon="1.49784">
        <ele>2320</ele>
        <time>2015-09-19T14:51:43Z</time>
      </trkpt>
      <trkpt lat="42.66332" lon="1.49776">
        <ele>2320</ele>
        <time>2015-09-19T14:51:57Z</time>
      </trkpt>
      <trkpt lat="42.66334" lon="1.49769">
        <ele>2323</ele>
        <time>2015-09-19T14:52:09Z</time>
      </trkpt>
      <trkpt lat="42.66334" lon="1.4976">
        <ele>2323</ele>
        <time>2015-09-19T14:52:22Z</time>
      </trkpt>
      <trkpt lat="42.66334" lon="1.4975">
        <ele>2324</ele>
        <time>2015-09-19T14:52:34Z</time>
      </trkpt>
      <trkpt lat="42.66331" lon="1.49733">
        <ele>2324</ele>
        <time>2015-09-19T14:52:47Z</time>
      </trkpt>
      <trkpt lat="42.6633" lon="1.49721">
        <ele>2325</ele>
        <time>2015-09-19T14:52:58Z</time>
      </trkpt>
      <trkpt lat="42.66328" lon="1.49706">
        <ele>2326</ele>
        <time>2015-09-19T14:53:12Z</time>
      </trkpt>
      <trkpt lat="42.66329" lon="1.49697">
        <ele>2327</ele>
        <time>2015-09-19T14:53:25Z</time>
      </trkpt>
      <trkpt lat="42.6633" lon="1.49686">
        <ele>2329</ele>
        <time>2015-09-19T14:53:37Z</time>
      </trkpt>
      <trkpt lat="42.66331" lon="1.49679">
        <ele>2332</ele>
        <time>2015-09-19T14:53:51Z</time>
      </trkpt>
      <trkpt lat="42.66332" lon="1.49671">
        <ele>2334</ele>
        <time>2015-09-19T14:54:04Z</time>
      </trkpt>
      <trkpt lat="42.66336" lon="1.49665">
        <ele>2336</ele>
        <time>2015-09-19T14:54:12Z</time>
      </trkpt>
      <trkpt lat="42.66338" lon="1.49662">
        <ele>2337</ele>
        <time>2015-09-19T14:54:16Z</time>
      </trkpt>
      <trkpt lat="42.66345" lon="1.49653">
        <ele>2339</ele>
        <time>2015-09-19T14:54:30Z</time>
      </trkpt>
      <trkpt lat="42.66348" lon="1.49647">
        <ele>2339</ele>
        <time>2015-09-19T14:54:41Z</time>
      </trkpt>
      <trkpt lat="42.66352" lon="1.49642">
        <ele>2340</ele>
        <time>2015-09-19T14:54:55Z</time>
      </trkpt>
      <trkpt lat="42.66357" lon="1.49638">
        <ele>2339</ele>
        <time>2015-09-19T14:55:02Z</time>
      </trkpt>
      <trkpt lat="42.6636" lon="1.49631">
        <ele>2339</ele>
        <time>2015-09-19T14:55:15Z</time>
      </trkpt>
      <trkpt lat="42.66364" lon="1.49623">
        <ele>2340</ele>
        <time>2015-09-19T14:55:27Z</time>
      </trkpt>
      <trkpt lat="42.66371" lon="1.49614">
        <ele>2340</ele>
        <time>2015-09-19T14:55:42Z</time>
      </trkpt>
      <trkpt lat="42.66378" lon="1.49605">
        <ele>2340</ele>
        <time>2015-09-19T14:55:55Z</time>
      </trkpt>
      <trkpt lat="42.66377" lon="1.49592">
        <ele>2341</ele>
        <time>2015-09-19T14:56:08Z</time>
      </trkpt>
      <trkpt lat="42.66377" lon="1.49578">
        <ele>2341</ele>
        <time>2015-09-19T14:56:21Z</time>
      </trkpt>
      <trkpt lat="42.66381" lon="1.49565">
        <ele>2340</ele>
        <time>2015-09-19T14:56:34Z</time>
      </trkpt>
      <trkpt lat="42.66386" lon="1.49558">
        <ele>2342</ele>
        <time>2015-09-19T14:56:49Z</time>
      </trkpt>
      <trkpt lat="42.66393" lon="1.49546">
        <ele>2341</ele>
        <time>2015-09-19T14:57:02Z</time>
      </trkpt>
      <trkpt lat="42.66397" lon="1.49537">
        <ele>2342</ele>
        <time>2015-09-19T14:57:11Z</time>
      </trkpt>
      <trkpt lat="42.664" lon="1.49533">
        <ele>2344</ele>
        <time>2015-09-19T14:57:22Z</time>
      </trkpt>
      <trkpt lat="42.66401" lon="1.49532">
        <ele>2345</ele>
        <time>2015-09-19T14:57:37Z</time>
      </trkpt>
      <trkpt lat="42.66403" lon="1.49531">
        <ele>2345</ele>
        <time>2015-09-19T14:57:54Z</time>
      </trkpt>
      <trkpt lat="42.66406" lon="1.49529">
        <ele>2345</ele>
        <time>2015-09-19T14:58:16Z</time>
      </trkpt>
      <trkpt lat="42.66406" lon="1.49529">
        <ele>2345</ele>
        <time>2015-09-19T14:58:31Z</time>
      </trkpt>
      <trkpt lat="42.66409" lon="1.49533">
        <ele>2345</ele>
        <time>2015-09-19T14:58:50Z</time>
      </trkpt>
      <trkpt lat="42.66411" lon="1.49531">
        <ele>2346</ele>
        <time>2015-09-19T14:59:11Z</time>
      </trkpt>
      <trkpt lat="42.66411" lon="1.49533">
        <ele>2346</ele>
        <time>2015-09-19T14:59:46Z</time>
      </trkpt>
      <trkpt lat="42.6641" lon="1.49535">
        <ele>2345</ele>
        <time>2015-09-19T15:00:05Z</time>
      </trkpt>
      <trkpt lat="42.66412" lon="1.49535">
        <ele>2345</ele>
        <time>2015-09-19T15:00:33Z</time>
      </trkpt>
      <trkpt lat="42.66406" lon="1.49528">
        <ele>2346</ele>
        <time>2015-09-19T15:00:44Z</time>
      </trkpt>
      <trkpt lat="42.66409" lon="1.49524">
        <ele>2349</ele>
        <time>2015-09-19T15:00:58Z</time>
      </trkpt>
      <trkpt lat="42.66414" lon="1.4952">
        <ele>2351</ele>
        <time>2015-09-19T15:01:10Z</time>
      </trkpt>
      <trkpt lat="42.66417" lon="1.49518">
        <ele>2352</ele>
        <time>2015-09-19T15:01:26Z</time>
      </trkpt>
      <trkpt lat="42.66419" lon="1.49507">
        <ele>2354</ele>
        <time>2015-09-19T15:01:42Z</time>
      </trkpt>
      <trkpt lat="42.66423" lon="1.49505">
        <ele>2356</ele>
        <time>2015-09-19T15:01:54Z</time>
      </trkpt>
      <trkpt lat="42.66428" lon="1.49502">
        <ele>2358</ele>
        <time>2015-09-19T15:02:08Z</time>
      </trkpt>
      <trkpt lat="42.66427" lon="1.495">
        <ele>2361</ele>
        <time>2015-09-19T15:02:23Z</time>
      </trkpt>
      <trkpt lat="42.66427" lon="1.49499">
        <ele>2363</ele>
        <time>2015-09-19T15:02:38Z</time>
      </trkpt>
      <trkpt lat="42.66427" lon="1.49495">
        <ele>2364</ele>
        <time>2015-09-19T15:02:50Z</time>
      </trkpt>
      <trkpt lat="42.66424" lon="1.49493">
        <ele>2366</ele>
        <time>2015-09-19T15:03:05Z</time>
      </trkpt>
      <trkpt lat="42.66426" lon="1.49489">
        <ele>2368</ele>
        <time>2015-09-19T15:03:18Z</time>
      </trkpt>
      <trkpt lat="42.66422" lon="1.49487">
        <ele>2369</ele>
        <time>2015-09-19T15:03:35Z</time>
      </trkpt>
      <trkpt lat="42.66422" lon="1.49483">
        <ele>2371</ele>
        <time>2015-09-19T15:03:48Z</time>
      </trkpt>
      <trkpt lat="42.66422" lon="1.4948">
        <ele>2373</ele>
        <time>2015-09-19T15:04:04Z</time>
      </trkpt>
      <trkpt lat="42.66422" lon="1.49481">
        <ele>2375</ele>
        <time>2015-09-19T15:04:17Z</time>
      </trkpt>
      <trkpt lat="42.66421" lon="1.49479">
        <ele>2375</ele>
        <time>2015-09-19T15:04:29Z</time>
      </trkpt>
      <trkpt lat="42.66421" lon="1.49474">
        <ele>2377</ele>
        <time>2015-09-19T15:04:45Z</time>
      </trkpt>
      <trkpt lat="42.66423" lon="1.49468">
        <ele>2380</ele>
        <time>2015-09-19T15:04:57Z</time>
      </trkpt>
      <trkpt lat="42.66422" lon="1.49467">
        <ele>2381</ele>
        <time>2015-09-19T15:05:13Z</time>
      </trkpt>
      <trkpt lat="42.6642" lon="1.49467">
        <ele>2382</ele>
        <time>2015-09-19T15:05:27Z</time>
      </trkpt>
      <trkpt lat="42.66422" lon="1.49459">
        <ele>2384</ele>
        <time>2015-09-19T15:05:49Z</time>
      </trkpt>
      <trkpt lat="42.66419" lon="1.4946">
        <ele>2385</ele>
        <time>2015-09-19T15:06:04Z</time>
      </trkpt>
      <trkpt lat="42.66417" lon="1.49458">
        <ele>2387</ele>
        <time>2015-09-19T15:06:20Z</time>
      </trkpt>
      <trkpt lat="42.66419" lon="1.49455">
        <ele>2389</ele>
        <time>2015-09-19T15:06:31Z</time>
      </trkpt>
      <trkpt lat="42.66421" lon="1.4945">
        <ele>2390</ele>
        <time>2015-09-19T15:06:46Z</time>
      </trkpt>
      <trkpt lat="42.66417" lon="1.4945">
        <ele>2392</ele>
        <time>2015-09-19T15:07:01Z</time>
      </trkpt>
      <trkpt lat="42.66418" lon="1.49444">
        <ele>2395</ele>
        <time>2015-09-19T15:07:16Z</time>
      </trkpt>
      <trkpt lat="42.66417" lon="1.49445">
        <ele>2396</ele>
        <time>2015-09-19T15:07:32Z</time>
      </trkpt>
      <trkpt lat="42.66416" lon="1.49446">
        <ele>2397</ele>
        <time>2015-09-19T15:07:51Z</time>
      </trkpt>
      <trkpt lat="42.66411" lon="1.49453">
        <ele>2397</ele>
        <time>2015-09-19T15:08:05Z</time>
      </trkpt>
      <trkpt lat="42.66408" lon="1.49452">
        <ele>2398</ele>
        <time>2015-09-19T15:08:18Z</time>
      </trkpt>
      <trkpt lat="42.66403" lon="1.49456">
        <ele>2400</ele>
        <time>2015-09-19T15:08:32Z</time>
      </trkpt>
      <trkpt lat="42.66405" lon="1.49446">
        <ele>2402</ele>
        <time>2015-09-19T15:08:45Z</time>
      </trkpt>
      <trkpt lat="42.66406" lon="1.49436">
        <ele>2404</ele>
        <time>2015-09-19T15:09:00Z</time>
      </trkpt>
      <trkpt lat="42.66408" lon="1.49425">
        <ele>2405</ele>
        <time>2015-09-19T15:09:14Z</time>
      </trkpt>
      <trkpt lat="42.66407" lon="1.49414">
        <ele>2407</ele>
        <time>2015-09-19T15:09:27Z</time>
      </trkpt>
      <trkpt lat="42.66406" lon="1.49408">
        <ele>2410</ele>
        <time>2015-09-19T15:09:37Z</time>
      </trkpt>
      <trkpt lat="42.66404" lon="1.49401">
        <ele>2413</ele>
        <time>2015-09-19T15:09:49Z</time>
      </trkpt>
      <trkpt lat="42.66399" lon="1.49389">
        <ele>2414</ele>
        <time>2015-09-19T15:10:03Z</time>
      </trkpt>
      <trkpt lat="42.66394" lon="1.49381">
        <ele>2416</ele>
        <time>2015-09-19T15:10:17Z</time>
      </trkpt>
      <trkpt lat="42.66389" lon="1.49371">
        <ele>2417</ele>
        <time>2015-09-19T15:10:29Z</time>
      </trkpt>
      <trkpt lat="42.66385" lon="1.49358">
        <ele>2419</ele>
        <time>2015-09-19T15:10:42Z</time>
      </trkpt>
      <trkpt lat="42.66385" lon="1.49348">
        <ele>2420</ele>
        <time>2015-09-19T15:10:57Z</time>
      </trkpt>
      <trkpt lat="42.6638" lon="1.49361">
        <ele>2420</ele>
        <time>2015-09-19T15:11:18Z</time>
      </trkpt>
      <trkpt lat="42.66381" lon="1.49362">
        <ele>2420</ele>
        <time>2015-09-19T15:11:33Z</time>
      </trkpt>
      <trkpt lat="42.6638" lon="1.49352">
        <ele>2419</ele>
        <time>2015-09-19T15:11:52Z</time>
      </trkpt>
      <trkpt lat="42.6638" lon="1.49357">
        <ele>2419</ele>
        <time>2015-09-19T15:12:10Z</time>
      </trkpt>
      <trkpt lat="42.66381" lon="1.49358">
        <ele>2420</ele>
        <time>2015-09-19T15:12:33Z</time>
      </trkpt>
      <trkpt lat="42.66373" lon="1.49375">
        <ele>2420</ele>
        <time>2015-09-19T15:13:03Z</time>
      </trkpt>
      <trkpt lat="42.66366" lon="1.49356">
        <ele>2419</ele>
        <time>2015-09-19T15:13:20Z</time>
      </trkpt>
      <trkpt lat="42.66367" lon="1.49331">
        <ele>2418</ele>
        <time>2015-09-19T15:13:33Z</time>
      </trkpt>
      <trkpt lat="42.6636" lon="1.49317">
        <ele>2418</ele>
        <time>2015-09-19T15:13:47Z</time>
      </trkpt>
      <trkpt lat="42.66356" lon="1.49311">
        <ele>2416</ele>
        <time>2015-09-19T15:13:53Z</time>
      </trkpt>
      <trkpt lat="42.66356" lon="1.49295">
        <ele>2414</ele>
        <time>2015-09-19T15:14:06Z</time>
      </trkpt>
      <trkpt lat="42.66353" lon="1.49292">
        <ele>2413</ele>
        <time>2015-09-19T15:14:13Z</time>
      </trkpt>
      <trkpt lat="42.66355" lon="1.49284">
        <ele>2413</ele>
        <time>2015-09-19T15:14:20Z</time>
      </trkpt>
      <trkpt lat="42.66351" lon="1.49276">
        <ele>2412</ele>
        <time>2015-09-19T15:14:30Z</time>
      </trkpt>
      <trkpt lat="42.66356" lon="1.49273">
        <ele>2414</ele>
        <time>2015-09-19T15:14:41Z</time>
      </trkpt>
      <trkpt lat="42.6636" lon="1.49272">
        <ele>2415</ele>
        <time>2015-09-19T15:14:51Z</time>
      </trkpt>
      <trkpt lat="42.66358" lon="1.49266">
        <ele>2418</ele>
        <time>2015-09-19T15:15:03Z</time>
      </trkpt>
      <trkpt lat="42.66357" lon="1.49266">
        <ele>2419</ele>
        <time>2015-09-19T15:15:17Z</time>
      </trkpt>
      <trkpt lat="42.66354" lon="1.49255">
        <ele>2420</ele>
        <time>2015-09-19T15:15:31Z</time>
      </trkpt>
      <trkpt lat="42.66354" lon="1.49244">
        <ele>2421</ele>
        <time>2015-09-19T15:15:42Z</time>
      </trkpt>
      <trkpt lat="42.66352" lon="1.49235">
        <ele>2420</ele>
        <time>2015-09-19T15:15:52Z</time>
      </trkpt>
      <trkpt lat="42.6635" lon="1.49228">
        <ele>2419</ele>
        <time>2015-09-19T15:16:07Z</time>
      </trkpt>
      <trkpt lat="42.66352" lon="1.49221">
        <ele>2419</ele>
        <time>2015-09-19T15:16:17Z</time>
      </trkpt>
      <trkpt lat="42.66359" lon="1.49216">
        <ele>2419</ele>
        <time>2015-09-19T15:16:30Z</time>
      </trkpt>
      <trkpt lat="42.66366" lon="1.49212">
        <ele>2420</ele>
        <time>2015-09-19T15:16:41Z</time>
      </trkpt>
      <trkpt lat="42.66368" lon="1.49204">
        <ele>2419</ele>
        <time>2015-09-19T15:16:53Z</time>
      </trkpt>
      <trkpt lat="42.66363" lon="1.49199">
        <ele>2420</ele>
        <time>2015-09-19T15:17:05Z</time>
      </trkpt>
      <trkpt lat="42.66366" lon="1.49192">
        <ele>2423</ele>
        <time>2015-09-19T15:17:17Z</time>
      </trkpt>
      <trkpt lat="42.66365" lon="1.4919">
        <ele>2425</ele>
        <time>2015-09-19T15:17:23Z</time>
      </trkpt>
      <trkpt lat="42.66361" lon="1.49186">
        <ele>2426</ele>
        <time>2015-09-19T15:17:36Z</time>
      </trkpt>
      <trkpt lat="42.66364" lon="1.49183">
        <ele>2427</ele>
        <time>2015-09-19T15:17:48Z</time>
      </trkpt>
      <trkpt lat="42.66363" lon="1.49181">
        <ele>2429</ele>
        <time>2015-09-19T15:18:02Z</time>
      </trkpt>
      <trkpt lat="42.66359" lon="1.4917">
        <ele>2430</ele>
        <time>2015-09-19T15:18:15Z</time>
      </trkpt>
      <trkpt lat="42.66352" lon="1.49163">
        <ele>2431</ele>
        <time>2015-09-19T15:18:26Z</time>
      </trkpt>
      <trkpt lat="42.66347" lon="1.4915">
        <ele>2432</ele>
        <time>2015-09-19T15:18:40Z</time>
      </trkpt>
      <trkpt lat="42.6634" lon="1.49142">
        <ele>2434</ele>
        <time>2015-09-19T15:18:52Z</time>
      </trkpt>
      <trkpt lat="42.66338" lon="1.49138">
        <ele>2434</ele>
        <time>2015-09-19T15:18:57Z</time>
      </trkpt>
      <trkpt lat="42.6633" lon="1.49125">
        <ele>2437</ele>
        <time>2015-09-19T15:19:11Z</time>
      </trkpt>
      <trkpt lat="42.66328" lon="1.49119">
        <ele>2437</ele>
        <time>2015-09-19T15:19:19Z</time>
      </trkpt>
      <trkpt lat="42.66322" lon="1.49109">
        <ele>2439</ele>
        <time>2015-09-19T15:19:32Z</time>
      </trkpt>
      <trkpt lat="42.66322" lon="1.49106">
        <ele>2440</ele>
        <time>2015-09-19T15:19:35Z</time>
      </trkpt>
      <trkpt lat="42.66324" lon="1.491">
        <ele>2442</ele>
        <time>2015-09-19T15:19:43Z</time>
      </trkpt>
      <trkpt lat="42.66328" lon="1.49088">
        <ele>2442</ele>
        <time>2015-09-19T15:19:56Z</time>
      </trkpt>
      <trkpt lat="42.66331" lon="1.49078">
        <ele>2441</ele>
        <time>2015-09-19T15:20:09Z</time>
      </trkpt>
      <trkpt lat="42.66336" lon="1.49065">
        <ele>2440</ele>
        <time>2015-09-19T15:20:23Z</time>
      </trkpt>
      <trkpt lat="42.66329" lon="1.49063">
        <ele>2439</ele>
        <time>2015-09-19T15:20:38Z</time>
      </trkpt>
      <trkpt lat="42.66328" lon="1.49061">
        <ele>2437</ele>
        <time>2015-09-19T15:20:51Z</time>
      </trkpt>
      <trkpt lat="42.66322" lon="1.49058">
        <ele>2435</ele>
        <time>2015-09-19T15:21:02Z</time>
      </trkpt>
      <trkpt lat="42.66321" lon="1.49047">
        <ele>2433</ele>
        <time>2015-09-19T15:21:16Z</time>
      </trkpt>
      <trkpt lat="42.66325" lon="1.49042">
        <ele>2431</ele>
        <time>2015-09-19T15:21:29Z</time>
      </trkpt>
      <trkpt lat="42.66327" lon="1.4904">
        <ele>2430</ele>
        <time>2015-09-19T15:21:44Z</time>
      </trkpt>
      <trkpt lat="42.66325" lon="1.49039">
        <ele>2430</ele>
        <time>2015-09-19T15:22:08Z</time>
      </trkpt>
      <trkpt lat="42.66336" lon="1.49044">
        <ele>2429</ele>
        <time>2015-09-19T15:22:24Z</time>
      </trkpt>
      <trkpt lat="42.66338" lon="1.49044">
        <ele>2429</ele>
        <time>2015-09-19T15:22:39Z</time>
      </trkpt>
      <trkpt lat="42.66338" lon="1.49039">
        <ele>2428</ele>
        <time>2015-09-19T15:22:56Z</time>
      </trkpt>
      <trkpt lat="42.66337" lon="1.49037">
        <ele>2426</ele>
        <time>2015-09-19T15:23:15Z</time>
      </trkpt>
      <trkpt lat="42.66343" lon="1.49035">
        <ele>2425</ele>
        <time>2015-09-19T15:23:30Z</time>
      </trkpt>
      <trkpt lat="42.66345" lon="1.49034">
        <ele>2424</ele>
        <time>2015-09-19T15:23:51Z</time>
      </trkpt>
      <trkpt lat="42.66347" lon="1.49032">
        <ele>2423</ele>
        <time>2015-09-19T15:23:56Z</time>
      </trkpt>
      <trkpt lat="42.66359" lon="1.49029">
        <ele>2421</ele>
        <time>2015-09-19T15:24:10Z</time>
      </trkpt>
      <trkpt lat="42.66363" lon="1.49027">
        <ele>2421</ele>
        <time>2015-09-19T15:24:19Z</time>
      </trkpt>
      <trkpt lat="42.66368" lon="1.49028">
        <ele>2421</ele>
        <time>2015-09-19T15:24:24Z</time>
      </trkpt>
      <trkpt lat="42.66384" lon="1.49029">
        <ele>2418</ele>
        <time>2015-09-19T15:24:39Z</time>
      </trkpt>
      <trkpt lat="42.66393" lon="1.49034">
        <ele>2419</ele>
        <time>2015-09-19T15:24:51Z</time>
      </trkpt>
      <trkpt lat="42.66401" lon="1.49033">
        <ele>2419</ele>
        <time>2015-09-19T15:25:00Z</time>
      </trkpt>
      <trkpt lat="42.6641" lon="1.49037">
        <ele>2420</ele>
        <time>2015-09-19T15:25:15Z</time>
      </trkpt>
      <trkpt lat="42.66412" lon="1.49035">
        <ele>2420</ele>
        <time>2015-09-19T15:25:18Z</time>
      </trkpt>
      <trkpt lat="42.6642" lon="1.49035">
        <ele>2419</ele>
        <time>2015-09-19T15:25:30Z</time>
      </trkpt>
      <trkpt lat="42.66425" lon="1.49034">
        <ele>2418</ele>
        <time>2015-09-19T15:25:45Z</time>
      </trkpt>
      <trkpt lat="42.66426" lon="1.49034">
        <ele>2416</ele>
        <time>2015-09-19T15:26:03Z</time>
      </trkpt>
      <trkpt lat="42.66423" lon="1.49035">
        <ele>2415</ele>
        <time>2015-09-19T15:26:18Z</time>
      </trkpt>
      <trkpt lat="42.66424" lon="1.49034">
        <ele>2415</ele>
        <time>2015-09-19T15:26:32Z</time>
      </trkpt>
      <trkpt lat="42.66424" lon="1.49032">
        <ele>2414</ele>
        <time>2015-09-19T15:26:33Z</time>
      </trkpt>
      <trkpt lat="42.66429" lon="1.49024">
        <ele>2414</ele>
        <time>2015-09-19T15:26:43Z</time>
      </trkpt>
      <trkpt lat="42.66435" lon="1.49017">
        <ele>2415</ele>
        <time>2015-09-19T15:26:55Z</time>
      </trkpt>
      <trkpt lat="42.66432" lon="1.49012">
        <ele>2417</ele>
        <time>2015-09-19T15:27:01Z</time>
      </trkpt>
      <trkpt lat="42.66429" lon="1.48996">
        <ele>2418</ele>
        <time>2015-09-19T15:27:15Z</time>
      </trkpt>
      <trkpt lat="42.66431" lon="1.48988">
        <ele>2420</ele>
        <time>2015-09-19T15:27:30Z</time>
      </trkpt>
      <trkpt lat="42.66431" lon="1.48984">
        <ele>2423</ele>
        <time>2015-09-19T15:27:44Z</time>
      </trkpt>
      <trkpt lat="42.66436" lon="1.48987">
        <ele>2425</ele>
        <time>2015-09-19T15:28:03Z</time>
      </trkpt>
      <trkpt lat="42.66439" lon="1.4899">
        <ele>2427</ele>
        <time>2015-09-19T15:28:17Z</time>
      </trkpt>
      <trkpt lat="42.66442" lon="1.48991">
        <ele>2429</ele>
        <time>2015-09-19T15:28:32Z</time>
      </trkpt>
      <trkpt lat="42.66449" lon="1.48993">
        <ele>2431</ele>
        <time>2015-09-19T15:28:44Z</time>
      </trkpt>
      <trkpt lat="42.66452" lon="1.48995">
        <ele>2434</ele>
        <time>2015-09-19T15:28:56Z</time>
      </trkpt>
      <trkpt lat="42.66459" lon="1.48987">
        <ele>2436</ele>
        <time>2015-09-19T15:29:10Z</time>
      </trkpt>
      <trkpt lat="42.66464" lon="1.4898">
        <ele>2438</ele>
        <time>2015-09-19T15:29:23Z</time>
      </trkpt>
      <trkpt lat="42.66473" lon="1.48979">
        <ele>2439</ele>
        <time>2015-09-19T15:29:37Z</time>
      </trkpt>
      <trkpt lat="42.66474" lon="1.48981">
        <ele>2438</ele>
        <time>2015-09-19T15:29:41Z</time>
      </trkpt>
      <trkpt lat="42.66478" lon="1.48983">
        <ele>2437</ele>
        <time>2015-09-19T15:29:47Z</time>
      </trkpt>
      <trkpt lat="42.66485" lon="1.48973">
        <ele>2439</ele>
        <time>2015-09-19T15:29:59Z</time>
      </trkpt>
      <trkpt lat="42.66495" lon="1.48974">
        <ele>2438</ele>
        <time>2015-09-19T15:30:11Z</time>
      </trkpt>
      <trkpt lat="42.665" lon="1.48977">
        <ele>2439</ele>
        <time>2015-09-19T15:30:22Z</time>
      </trkpt>
      <trkpt lat="42.66501" lon="1.48974">
        <ele>2439</ele>
        <time>2015-09-19T15:30:35Z</time>
      </trkpt>
      <trkpt lat="42.665" lon="1.48974">
        <ele>2441</ele>
        <time>2015-09-19T15:30:57Z</time>
      </trkpt>
    </trkseg>
  </trk>
</gpx>